﻿<?xml version="1.0" encoding="utf-8"?><gpx creator="Garmin Desktop App" version="1.1" xsi:schemaLocation="http://www.topografix.com/GPX/1/1 http://www.topografix.com/GPX/1/1/gpx.xsd http://www.garmin.com/xmlschemas/WaypointExtension/v1 http://www8.garmin.com/xmlschemas/WaypointExtensionv1.xsd http://www.garmin.com/xmlschemas/TrackPointExtension/v1 http://www.garmin.com/xmlschemas/TrackPointExtensionv1.xsd http://www.garmin.com/xmlschemas/GpxExtensions/v3 http://www8.garmin.com/xmlschemas/GpxExtensionsv3.xsd http://www.garmin.com/xmlschemas/ActivityExtension/v1 http://www8.garmin.com/xmlschemas/ActivityExtensionv1.xsd http://www.garmin.com/xmlschemas/AdventuresExtensions/v1 http://www8.garmin.com/xmlschemas/AdventuresExtensionv1.xsd http://www.garmin.com/xmlschemas/PressureExtension/v1 http://www.garmin.com/xmlschemas/PressureExtensionv1.xsd http://www.garmin.com/xmlschemas/TripExtensions/v1 http://www.garmin.com/xmlschemas/TripExtensionsv1.xsd http://www.garmin.com/xmlschemas/TripMetaDataExtensions/v1 http://www.garmin.com/xmlschemas/TripMetaDataExtensionsv1.xsd http://www.garmin.com/xmlschemas/ViaPointTransportationModeExtensions/v1 http://www.garmin.com/xmlschemas/ViaPointTransportationModeExtensionsv1.xsd http://www.garmin.com/xmlschemas/CreationTimeExtension/v1 http://www.garmin.com/xmlschemas/CreationTimeExtensionsv1.xsd http://www.garmin.com/xmlschemas/AccelerationExtension/v1 http://www.garmin.com/xmlschemas/AccelerationExtensionv1.xsd http://www.garmin.com/xmlschemas/PowerExtension/v1 http://www.garmin.com/xmlschemas/PowerExtensionv1.xsd http://www.garmin.com/xmlschemas/VideoExtension/v1 http://www.garmin.com/xmlschemas/VideoExtensionv1.xsd" xmlns="http://www.topografix.com/GPX/1/1" xmlns:xsi="http://www.w3.org/2001/XMLSchema-instance" xmlns:wptx1="http://www.garmin.com/xmlschemas/WaypointExtension/v1" xmlns:gpxtrx="http://www.garmin.com/xmlschemas/GpxExtensions/v3" xmlns:gpxtpx="http://www.garmin.com/xmlschemas/TrackPointExtension/v1" xmlns:gpxx="http://www.garmin.com/xmlschemas/GpxExtensions/v3" xmlns:trp="http://www.garmin.com/xmlschemas/TripExtensions/v1" xmlns:adv="http://www.garmin.com/xmlschemas/AdventuresExtensions/v1" xmlns:prs="http://www.garmin.com/xmlschemas/PressureExtension/v1" xmlns:tmd="http://www.garmin.com/xmlschemas/TripMetaDataExtensions/v1" xmlns:vptm="http://www.garmin.com/xmlschemas/ViaPointTransportationModeExtensions/v1" xmlns:ctx="http://www.garmin.com/xmlschemas/CreationTimeExtension/v1" xmlns:gpxacc="http://www.garmin.com/xmlschemas/AccelerationExtension/v1" xmlns:gpxpx="http://www.garmin.com/xmlschemas/PowerExtension/v1" xmlns:vidx1="http://www.garmin.com/xmlschemas/VideoExtension/v1">

  <metadata>
    <link href="http://www.garmin.com">
      <text>Garmin International</text>
    </link>
    <time>2025-07-13T07:53:19Z</time>
    <bounds maxlat="62.626522276550531" maxlon="12.306596729904413" minlat="62.581959133967757" minlon="12.183852139860392" />
  </metadata>

  <trk>
    <name>HTR Ultra 48k 2025</name>
    <extensions>
      <gpxx:TrackExtension>
        <gpxx:DisplayColor>DarkRed</gpxx:DisplayColor>
      </gpxx:TrackExtension>
    </extensions>
    <trkseg>
      <trkpt lat="62.595569752156734" lon="12.183852139860392">
        <ele>813</ele>
        <time>2025-07-12T11:22:18Z</time>
      </trkpt>
      <trkpt lat="62.595344446599483" lon="12.1848049107939">
        <ele>817</ele>
        <time>2025-07-12T11:21:32Z</time>
      </trkpt>
      <trkpt lat="62.595094665884972" lon="12.185275638476014">
        <ele>817</ele>
        <time>2025-07-12T11:21:08Z</time>
      </trkpt>
      <trkpt lat="62.595076393336058" lon="12.185429446399212">
        <ele>818</ele>
        <time>2025-07-12T11:21:03Z</time>
      </trkpt>
      <trkpt lat="62.595138000324368" lon="12.185854827985168">
        <ele>821</ele>
        <time>2025-07-12T11:20:47Z</time>
      </trkpt>
      <trkpt lat="62.595362635329366" lon="12.186147272586823">
        <ele>824</ele>
        <time>2025-07-12T11:20:24Z</time>
      </trkpt>
      <trkpt lat="62.595656253397465" lon="12.186277359724045">
        <ele>827</ele>
        <time>2025-07-12T11:20:04Z</time>
      </trkpt>
      <trkpt lat="62.595957750454545" lon="12.186722019687295">
        <ele>832</ele>
        <time>2025-07-12T11:19:34Z</time>
      </trkpt>
      <trkpt lat="62.596236364915967" lon="12.18776548281312">
        <ele>836</ele>
        <time>2025-07-12T11:18:53Z</time>
      </trkpt>
      <trkpt lat="62.59616713039577" lon="12.188396556302905">
        <ele>837</ele>
        <time>2025-07-12T11:18:30Z</time>
      </trkpt>
      <trkpt lat="62.595973676070571" lon="12.188619347289205">
        <ele>837</ele>
        <time>2025-07-12T11:18:12Z</time>
      </trkpt>
      <trkpt lat="62.595688439905643" lon="12.189119579270482">
        <ele>837</ele>
        <time>2025-07-12T11:17:45Z</time>
      </trkpt>
      <trkpt lat="62.595568830147386" lon="12.189660547301173">
        <ele>838</ele>
        <time>2025-07-12T11:17:25Z</time>
      </trkpt>
      <trkpt lat="62.595563717186451" lon="12.189873866736889">
        <ele>839</ele>
        <time>2025-07-12T11:17:17Z</time>
      </trkpt>
      <trkpt lat="62.59565650485456" lon="12.190786069259048">
        <ele>843</ele>
        <time>2025-07-12T11:16:46Z</time>
      </trkpt>
      <trkpt lat="62.595803858712316" lon="12.191154956817627">
        <ele>846</ele>
        <time>2025-07-12T11:16:29Z</time>
      </trkpt>
      <trkpt lat="62.596181128174067" lon="12.191582517698407">
        <ele>850</ele>
        <time>2025-07-12T11:15:55Z</time>
      </trkpt>
      <trkpt lat="62.596554290503263" lon="12.191592575982213">
        <ele>852</ele>
        <time>2025-07-12T11:15:24Z</time>
      </trkpt>
      <trkpt lat="62.597021162509918" lon="12.192112170159817">
        <ele>857</ele>
        <time>2025-07-12T11:14:45Z</time>
      </trkpt>
      <trkpt lat="62.59735744446516" lon="12.19219883903861">
        <ele>860</ele>
        <time>2025-07-12T11:13:52Z</time>
      </trkpt>
      <trkpt lat="62.597558358684182" lon="12.19245390035212">
        <ele>862</ele>
        <time>2025-07-12T11:13:28Z</time>
      </trkpt>
      <trkpt lat="62.598451785743237" lon="12.192969974130392">
        <ele>870</ele>
        <time>2025-07-12T11:12:04Z</time>
      </trkpt>
      <trkpt lat="62.598980013281107" lon="12.193186394870281">
        <ele>875</ele>
        <time>2025-07-12T11:11:26Z</time>
      </trkpt>
      <trkpt lat="62.599924905225635" lon="12.193158231675625">
        <ele>882</ele>
        <time>2025-07-12T11:10:20Z</time>
      </trkpt>
      <trkpt lat="62.600431758910418" lon="12.193513540551066">
        <ele>886</ele>
        <time>2025-07-12T11:09:40Z</time>
      </trkpt>
      <trkpt lat="62.600716659799218" lon="12.193603059276938">
        <ele>888</ele>
        <time>2025-07-12T11:08:59Z</time>
      </trkpt>
      <trkpt lat="62.600759575143456" lon="12.193800620734692">
        <ele>889</ele>
        <time>2025-07-12T11:08:45Z</time>
      </trkpt>
      <trkpt lat="62.600750019773841" lon="12.194244274869561">
        <ele>891</ele>
        <time>2025-07-12T11:08:26Z</time>
      </trkpt>
      <trkpt lat="62.600791174918413" lon="12.19453252851963">
        <ele>893</ele>
        <time>2025-07-12T11:08:17Z</time>
      </trkpt>
      <trkpt lat="62.600739290937781" lon="12.194907367229462">
        <ele>896</ele>
        <time>2025-07-12T11:08:05Z</time>
      </trkpt>
      <trkpt lat="62.600538963451982" lon="12.195323947817087">
        <ele>897</ele>
        <time>2025-07-12T11:07:43Z</time>
      </trkpt>
      <trkpt lat="62.600555475801229" lon="12.195665175095201">
        <ele>898</ele>
        <time>2025-07-12T11:07:34Z</time>
      </trkpt>
      <trkpt lat="62.600872479379177" lon="12.196390712633729">
        <ele>902</ele>
        <time>2025-07-12T11:07:01Z</time>
      </trkpt>
      <trkpt lat="62.600921262055635" lon="12.196783488616347">
        <ele>904</ele>
        <time>2025-07-12T11:06:46Z</time>
      </trkpt>
      <trkpt lat="62.6010128762573" lon="12.196969566866755">
        <ele>904</ele>
        <time>2025-07-12T11:06:38Z</time>
      </trkpt>
      <trkpt lat="62.601150590926409" lon="12.197539703920484">
        <ele>906</ele>
        <time>2025-07-12T11:06:20Z</time>
      </trkpt>
      <trkpt lat="62.601185794919729" lon="12.198238838464022">
        <ele>907</ele>
        <time>2025-07-12T11:05:56Z</time>
      </trkpt>
      <trkpt lat="62.601274894550443" lon="12.198550729081035">
        <ele>908</ele>
        <time>2025-07-12T11:05:40Z</time>
      </trkpt>
      <trkpt lat="62.601255280897021" lon="12.1985456161201">
        <ele>908</ele>
        <time>2025-07-12T11:05:36Z</time>
      </trkpt>
      <trkpt lat="62.601481340825558" lon="12.19858274795115">
        <ele>909</ele>
        <time>2025-07-12T11:05:18Z</time>
      </trkpt>
      <trkpt lat="62.602060697972775" lon="12.198891872540116">
        <ele>911</ele>
        <time>2025-07-12T11:04:37Z</time>
      </trkpt>
      <trkpt lat="62.602125322446227" lon="12.199132097885013">
        <ele>912</ele>
        <time>2025-07-12T11:04:29Z</time>
      </trkpt>
      <trkpt lat="62.602113923057914" lon="12.199496459215879">
        <ele>913</ele>
        <time>2025-07-12T11:04:18Z</time>
      </trkpt>
      <trkpt lat="62.602207884192467" lon="12.199795609340072">
        <ele>914</ele>
        <time>2025-07-12T11:04:05Z</time>
      </trkpt>
      <trkpt lat="62.602424724027514" lon="12.201488418504596">
        <ele>918</ele>
        <time>2025-07-12T11:02:15Z</time>
      </trkpt>
      <trkpt lat="62.602464705705643" lon="12.201545415446162">
        <ele>918</ele>
        <time>2025-07-12T11:02:11Z</time>
      </trkpt>
      <trkpt lat="62.602566545829177" lon="12.20207984559238">
        <ele>919</ele>
        <time>2025-07-12T11:01:52Z</time>
      </trkpt>
      <trkpt lat="62.602814733982086" lon="12.202466921880841">
        <ele>920</ele>
        <time>2025-07-12T11:01:30Z</time>
      </trkpt>
      <trkpt lat="62.60325713083148" lon="12.202741848304868">
        <ele>922</ele>
        <time>2025-07-12T11:00:57Z</time>
      </trkpt>
      <trkpt lat="62.603412279859185" lon="12.20293739810586">
        <ele>923</ele>
        <time>2025-07-12T11:00:44Z</time>
      </trkpt>
      <trkpt lat="62.603570614010096" lon="12.202974110841751">
        <ele>923</ele>
        <time>2025-07-12T11:00:34Z</time>
      </trkpt>
      <trkpt lat="62.603887701407075" lon="12.203291030600667">
        <ele>925</ele>
        <time>2025-07-12T11:00:10Z</time>
      </trkpt>
      <trkpt lat="62.604185845702887" lon="12.203259682282805">
        <ele>926</ele>
        <time>2025-07-12T10:59:49Z</time>
      </trkpt>
      <trkpt lat="62.604395477101207" lon="12.203601580113173">
        <ele>927</ele>
        <time>2025-07-12T10:59:29Z</time>
      </trkpt>
      <trkpt lat="62.604703679680824" lon="12.203611973673105">
        <ele>928</ele>
        <time>2025-07-12T10:59:08Z</time>
      </trkpt>
      <trkpt lat="62.605129731819034" lon="12.203868543729186">
        <ele>930</ele>
        <time>2025-07-12T10:58:37Z</time>
      </trkpt>
      <trkpt lat="62.605427457019687" lon="12.204264421015978">
        <ele>931</ele>
        <time>2025-07-12T10:58:14Z</time>
      </trkpt>
      <trkpt lat="62.605623174458742" lon="12.203996703028679">
        <ele>931</ele>
        <time>2025-07-12T10:57:58Z</time>
      </trkpt>
      <trkpt lat="62.605828866362572" lon="12.204040205106139">
        <ele>932</ele>
        <time>2025-07-12T10:57:44Z</time>
      </trkpt>
      <trkpt lat="62.605894496664405" lon="12.204201053828001">
        <ele>933</ele>
        <time>2025-07-12T10:57:37Z</time>
      </trkpt>
      <trkpt lat="62.605893490836024" lon="12.204705392941833">
        <ele>933</ele>
        <time>2025-07-12T10:57:19Z</time>
      </trkpt>
      <trkpt lat="62.606081496924162" lon="12.20512792468071">
        <ele>933</ele>
        <time>2025-07-12T10:57:00Z</time>
      </trkpt>
      <trkpt lat="62.606155090034008" lon="12.205482646822929">
        <ele>933</ele>
        <time>2025-07-12T10:56:47Z</time>
      </trkpt>
      <trkpt lat="62.606179649010301" lon="12.2060177475214">
        <ele>933</ele>
        <time>2025-07-12T10:56:30Z</time>
      </trkpt>
      <trkpt lat="62.606274951249361" lon="12.206569612026215">
        <ele>932</ele>
        <time>2025-07-12T10:56:12Z</time>
      </trkpt>
      <trkpt lat="62.606237148866057" lon="12.20734728500247">
        <ele>931</ele>
        <time>2025-07-12T10:55:46Z</time>
      </trkpt>
      <trkpt lat="62.606304455548525" lon="12.207999145612121">
        <ele>932</ele>
        <time>2025-07-12T10:55:25Z</time>
      </trkpt>
      <trkpt lat="62.606525486335158" lon="12.208564002066851">
        <ele>933</ele>
        <time>2025-07-12T10:54:59Z</time>
      </trkpt>
      <trkpt lat="62.60806423611939" lon="12.210135608911514">
        <ele>940</ele>
        <time>2025-07-12T10:52:58Z</time>
      </trkpt>
      <trkpt lat="62.608250817283988" lon="12.210154552012682">
        <ele>941</ele>
        <time>2025-07-12T10:52:44Z</time>
      </trkpt>
      <trkpt lat="62.608453407883644" lon="12.210275670513511">
        <ele>941</ele>
        <time>2025-07-12T10:52:29Z</time>
      </trkpt>
      <trkpt lat="62.608744008466601" lon="12.210317747667432">
        <ele>941</ele>
        <time>2025-07-12T10:52:08Z</time>
      </trkpt>
      <trkpt lat="62.608956573531032" lon="12.21042855642736">
        <ele>941</ele>
        <time>2025-07-12T10:51:53Z</time>
      </trkpt>
      <trkpt lat="62.609264608472586" lon="12.210855698212981">
        <ele>941</ele>
        <time>2025-07-12T10:51:27Z</time>
      </trkpt>
      <trkpt lat="62.609418919309974" lon="12.211273284628987">
        <ele>941</ele>
        <time>2025-07-12T10:51:10Z</time>
      </trkpt>
      <trkpt lat="62.609682027250528" lon="12.212169477716088">
        <ele>940</ele>
        <time>2025-07-12T10:50:32Z</time>
      </trkpt>
      <trkpt lat="62.609786968678236" lon="12.212282633408904">
        <ele>939</ele>
        <time>2025-07-12T10:50:23Z</time>
      </trkpt>
      <trkpt lat="62.609827872365713" lon="12.212408613413572">
        <ele>939</ele>
        <time>2025-07-12T10:50:18Z</time>
      </trkpt>
      <trkpt lat="62.610069522634149" lon="12.21257021650672">
        <ele>939</ele>
        <time>2025-07-12T10:50:01Z</time>
      </trkpt>
      <trkpt lat="62.610175469890237" lon="12.212771382182837">
        <ele>939</ele>
        <time>2025-07-12T10:49:51Z</time>
      </trkpt>
      <trkpt lat="62.610361380502582" lon="12.213420309126377">
        <ele>939</ele>
        <time>2025-07-12T10:49:25Z</time>
      </trkpt>
      <trkpt lat="62.6105244923383" lon="12.21372390165925">
        <ele>939</ele>
        <time>2025-07-12T10:49:11Z</time>
      </trkpt>
      <trkpt lat="62.610604120418429" lon="12.213726751506329">
        <ele>939</ele>
        <time>2025-07-12T10:49:05Z</time>
      </trkpt>
      <trkpt lat="62.610743260011077" lon="12.213458698242903">
        <ele>940</ele>
        <time>2025-07-12T10:48:51Z</time>
      </trkpt>
      <trkpt lat="62.610868820920587" lon="12.213111268356442">
        <ele>940</ele>
        <time>2025-07-12T10:48:37Z</time>
      </trkpt>
      <trkpt lat="62.610932188108563" lon="12.212846903130412">
        <ele>941</ele>
        <time>2025-07-12T10:48:27Z</time>
      </trkpt>
      <trkpt lat="62.611080715432763" lon="12.212533922865987">
        <ele>942</ele>
        <time>2025-07-12T10:48:12Z</time>
      </trkpt>
      <trkpt lat="62.611154392361641" lon="12.212510202080011">
        <ele>942</ele>
        <time>2025-07-12T10:48:06Z</time>
      </trkpt>
      <trkpt lat="62.611243659630418" lon="12.21239528618753">
        <ele>943</ele>
        <time>2025-07-12T10:47:58Z</time>
      </trkpt>
      <trkpt lat="62.611407106742263" lon="12.212477177381516">
        <ele>944</ele>
        <time>2025-07-12T10:47:46Z</time>
      </trkpt>
      <trkpt lat="62.61154918000102" lon="12.212446751073003">
        <ele>945</ele>
        <time>2025-07-12T10:47:36Z</time>
      </trkpt>
      <trkpt lat="62.611758224666119" lon="12.212565690279007">
        <ele>947</ele>
        <time>2025-07-12T10:47:21Z</time>
      </trkpt>
      <trkpt lat="62.611934160813689" lon="12.213210174813867">
        <ele>947</ele>
        <time>2025-07-12T10:46:56Z</time>
      </trkpt>
      <trkpt lat="62.611997276544571" lon="12.213317295536399">
        <ele>948</ele>
        <time>2025-07-12T10:46:49Z</time>
      </trkpt>
      <trkpt lat="62.612215206027031" lon="12.213464984670281">
        <ele>949</ele>
        <time>2025-07-12T10:46:34Z</time>
      </trkpt>
      <trkpt lat="62.612313693389297" lon="12.213614182546735">
        <ele>950</ele>
        <time>2025-07-12T10:46:26Z</time>
      </trkpt>
      <trkpt lat="62.612413018941879" lon="12.213943088427186">
        <ele>949</ele>
        <time>2025-07-12T10:46:14Z</time>
      </trkpt>
      <trkpt lat="62.612544531002641" lon="12.21462051384151">
        <ele>947</ele>
        <time>2025-07-12T10:45:51Z</time>
      </trkpt>
      <trkpt lat="62.612558025866747" lon="12.215155530720949">
        <ele>945</ele>
        <time>2025-07-12T10:45:35Z</time>
      </trkpt>
      <trkpt lat="62.612611334770918" lon="12.21541453152895">
        <ele>944</ele>
        <time>2025-07-12T10:45:25Z</time>
      </trkpt>
      <trkpt lat="62.6128557510674" lon="12.215869082137942">
        <ele>942</ele>
        <time>2025-07-12T10:45:03Z</time>
      </trkpt>
      <trkpt lat="62.612933367490768" lon="12.215887606143951">
        <ele>942</ele>
        <time>2025-07-12T10:44:40Z</time>
      </trkpt>
      <trkpt lat="62.613353887572885" lon="12.216705763712525">
        <ele>939</ele>
        <time>2025-07-12T10:43:57Z</time>
      </trkpt>
      <trkpt lat="62.613493446260691" lon="12.217106837779284">
        <ele>939</ele>
        <time>2025-07-12T10:43:39Z</time>
      </trkpt>
      <trkpt lat="62.613655971363187" lon="12.217084290459752">
        <ele>939</ele>
        <time>2025-07-12T10:43:28Z</time>
      </trkpt>
      <trkpt lat="62.613814305514097" lon="12.217139527201653">
        <ele>939</ele>
        <time>2025-07-12T10:43:15Z</time>
      </trkpt>
      <trkpt lat="62.613980853930116" lon="12.217599609866738">
        <ele>938</ele>
        <time>2025-07-12T10:42:53Z</time>
      </trkpt>
      <trkpt lat="62.614003568887711" lon="12.217812091112137">
        <ele>938</ele>
        <time>2025-07-12T10:42:46Z</time>
      </trkpt>
      <trkpt lat="62.614088477566838" lon="12.218133369460702">
        <ele>938</ele>
        <time>2025-07-12T10:42:33Z</time>
      </trkpt>
      <trkpt lat="62.614084789529443" lon="12.218362027779222">
        <ele>938</ele>
        <time>2025-07-12T10:42:24Z</time>
      </trkpt>
      <trkpt lat="62.614111276343465" lon="12.218443248420954">
        <ele>938</ele>
        <time>2025-07-12T10:42:21Z</time>
      </trkpt>
      <trkpt lat="62.614094512537122" lon="12.21854860894382">
        <ele>938</ele>
        <time>2025-07-12T10:42:18Z</time>
      </trkpt>
      <trkpt lat="62.614155951887369" lon="12.218987233936787">
        <ele>938</ele>
        <time>2025-07-12T10:42:03Z</time>
      </trkpt>
      <trkpt lat="62.61417455971241" lon="12.2194545250386">
        <ele>938</ele>
        <time>2025-07-12T10:41:47Z</time>
      </trkpt>
      <trkpt lat="62.614245805889368" lon="12.219961797818542">
        <ele>939</ele>
        <time>2025-07-12T10:41:30Z</time>
      </trkpt>
      <trkpt lat="62.614188389852643" lon="12.220294810831547">
        <ele>938</ele>
        <time>2025-07-12T10:41:18Z</time>
      </trkpt>
      <trkpt lat="62.614234071224928" lon="12.220525229349732">
        <ele>937</ele>
        <time>2025-07-12T10:41:10Z</time>
      </trkpt>
      <trkpt lat="62.614326858893037" lon="12.220707116648555">
        <ele>937</ele>
        <time>2025-07-12T10:41:02Z</time>
      </trkpt>
      <trkpt lat="62.614292241632938" lon="12.220937618985772">
        <ele>936</ele>
        <time>2025-07-12T10:40:54Z</time>
      </trkpt>
      <trkpt lat="62.614190569147468" lon="12.221118081361055">
        <ele>934</ele>
        <time>2025-07-12T10:40:44Z</time>
      </trkpt>
      <trkpt lat="62.614163663238287" lon="12.221335088834167">
        <ele>933</ele>
        <time>2025-07-12T10:40:34Z</time>
      </trkpt>
      <trkpt lat="62.614178080111742" lon="12.221646727994084">
        <ele>931</ele>
        <time>2025-07-12T10:40:22Z</time>
      </trkpt>
      <trkpt lat="62.614268772304058" lon="12.221868010237813">
        <ele>931</ele>
        <time>2025-07-12T10:40:12Z</time>
      </trkpt>
      <trkpt lat="62.614290229976177" lon="12.22202324308455">
        <ele>930</ele>
        <time>2025-07-12T10:40:05Z</time>
      </trkpt>
      <trkpt lat="62.614250583574176" lon="12.222253996878862">
        <ele>929</ele>
        <time>2025-07-12T10:39:57Z</time>
      </trkpt>
      <trkpt lat="62.614373797550797" lon="12.22278306260705">
        <ele>927</ele>
        <time>2025-07-12T10:39:36Z</time>
      </trkpt>
      <trkpt lat="62.614590050652623" lon="12.223176844418049">
        <ele>926</ele>
        <time>2025-07-12T10:39:16Z</time>
      </trkpt>
      <trkpt lat="62.614708822220564" lon="12.223608680069447">
        <ele>925</ele>
        <time>2025-07-12T10:38:59Z</time>
      </trkpt>
      <trkpt lat="62.614768082275987" lon="12.223908081650734">
        <ele>924</ele>
        <time>2025-07-12T10:38:46Z</time>
      </trkpt>
      <trkpt lat="62.614708989858627" lon="12.22419667057693">
        <ele>922</ele>
        <time>2025-07-12T10:38:34Z</time>
      </trkpt>
      <trkpt lat="62.614712007343769" lon="12.224306557327509">
        <ele>922</ele>
        <time>2025-07-12T10:18:28Z</time>
      </trkpt>
      <trkpt lat="62.614756934344769" lon="12.224097345024347">
        <ele>923</ele>
        <time>2025-07-12T10:18:18Z</time>
      </trkpt>
      <trkpt lat="62.614756934344769" lon="12.223888551816344">
        <ele>924</ele>
        <time>2025-07-12T10:18:10Z</time>
      </trkpt>
      <trkpt lat="62.614542609080672" lon="12.223145244643092">
        <ele>926</ele>
        <time>2025-07-12T10:17:39Z</time>
      </trkpt>
      <trkpt lat="62.614354100078344" lon="12.222820026800036">
        <ele>927</ele>
        <time>2025-07-12T10:17:21Z</time>
      </trkpt>
      <trkpt lat="62.614229628816247" lon="12.222279561683536">
        <ele>929</ele>
        <time>2025-07-12T10:17:01Z</time>
      </trkpt>
      <trkpt lat="62.614276316016912" lon="12.222047802060843">
        <ele>930</ele>
        <time>2025-07-12T10:16:52Z</time>
      </trkpt>
      <trkpt lat="62.614260977134109" lon="12.221921151503921">
        <ele>931</ele>
        <time>2025-07-12T10:16:48Z</time>
      </trkpt>
      <trkpt lat="62.614181181415915" lon="12.221702300012112">
        <ele>931</ele>
        <time>2025-07-12T10:16:37Z</time>
      </trkpt>
      <trkpt lat="62.614172799512744" lon="12.221573805436492">
        <ele>932</ele>
        <time>2025-07-12T10:16:32Z</time>
      </trkpt>
      <trkpt lat="62.614127704873681" lon="12.221534997224808">
        <ele>932</ele>
        <time>2025-07-12T10:16:21Z</time>
      </trkpt>
      <trkpt lat="62.614083532243967" lon="12.221632394939661">
        <ele>931</ele>
        <time>2025-07-12T10:16:16Z</time>
      </trkpt>
      <trkpt lat="62.613891502842307" lon="12.221660809591413">
        <ele>931</ele>
        <time>2025-07-12T10:16:02Z</time>
      </trkpt>
      <trkpt lat="62.613836769014597" lon="12.22173985093832">
        <ele>930</ele>
        <time>2025-07-12T10:15:57Z</time>
      </trkpt>
      <trkpt lat="62.613763092085719" lon="12.222203454002738">
        <ele>928</ele>
        <time>2025-07-12T10:15:40Z</time>
      </trkpt>
      <trkpt lat="62.613631496205926" lon="12.222370924428105">
        <ele>927</ele>
        <time>2025-07-12T10:15:29Z</time>
      </trkpt>
      <trkpt lat="62.613579444587231" lon="12.222916083410382">
        <ele>925</ele>
        <time>2025-07-12T10:15:11Z</time>
      </trkpt>
      <trkpt lat="62.613427564501762" lon="12.22322721965611">
        <ele>924</ele>
        <time>2025-07-12T10:14:57Z</time>
      </trkpt>
      <trkpt lat="62.613365286961198" lon="12.223629299551249">
        <ele>923</ele>
        <time>2025-07-12T10:14:36Z</time>
      </trkpt>
      <trkpt lat="62.612861450761557" lon="12.223898777738214">
        <ele>923</ele>
        <time>2025-07-12T10:13:42Z</time>
      </trkpt>
      <trkpt lat="62.612728932872415" lon="12.223718231543899">
        <ele>924</ele>
        <time>2025-07-12T10:13:28Z</time>
      </trkpt>
      <trkpt lat="62.612703535705805" lon="12.223554281517863">
        <ele>924</ele>
        <time>2025-07-12T10:13:21Z</time>
      </trkpt>
      <trkpt lat="62.612571436911821" lon="12.223320007324219">
        <ele>926</ele>
        <time>2025-07-12T10:13:08Z</time>
      </trkpt>
      <trkpt lat="62.612526258453727" lon="12.222922621294856">
        <ele>927</ele>
        <time>2025-07-12T10:12:53Z</time>
      </trkpt>
      <trkpt lat="62.612437326461077" lon="12.222779374569654">
        <ele>928</ele>
        <time>2025-07-12T10:12:44Z</time>
      </trkpt>
      <trkpt lat="62.612347891554236" lon="12.222741404548287">
        <ele>928</ele>
        <time>2025-07-12T10:12:37Z</time>
      </trkpt>
      <trkpt lat="62.612195340916514" lon="12.222842993214726">
        <ele>929</ele>
        <time>2025-07-12T10:12:10Z</time>
      </trkpt>
      <trkpt lat="62.611972130835056" lon="12.222701255232096">
        <ele>930</ele>
        <time>2025-07-12T10:11:52Z</time>
      </trkpt>
      <trkpt lat="62.611866435036063" lon="12.222494641318917">
        <ele>931</ele>
        <time>2025-07-12T10:11:38Z</time>
      </trkpt>
      <trkpt lat="62.611649008467793" lon="12.222486762329936">
        <ele>932</ele>
        <time>2025-07-12T10:11:18Z</time>
      </trkpt>
      <trkpt lat="62.611447088420391" lon="12.222856655716896">
        <ele>932</ele>
        <time>2025-07-12T10:10:57Z</time>
      </trkpt>
      <trkpt lat="62.61137718334794" lon="12.222847603261471">
        <ele>933</ele>
        <time>2025-07-12T10:10:52Z</time>
      </trkpt>
      <trkpt lat="62.611327059566975" lon="12.222935780882835">
        <ele>933</ele>
        <time>2025-07-12T10:10:47Z</time>
      </trkpt>
      <trkpt lat="62.611272744834423" lon="12.222907030954957">
        <ele>933</ele>
        <time>2025-07-12T10:10:43Z</time>
      </trkpt>
      <trkpt lat="62.611036878079176" lon="12.223141472786665">
        <ele>934</ele>
        <time>2025-07-12T10:10:24Z</time>
      </trkpt>
      <trkpt lat="62.610862534493208" lon="12.223049020394683">
        <ele>935</ele>
        <time>2025-07-12T10:10:11Z</time>
      </trkpt>
      <trkpt lat="62.610690537840128" lon="12.22318765707314">
        <ele>935</ele>
        <time>2025-07-12T10:09:58Z</time>
      </trkpt>
      <trkpt lat="62.610398512333632" lon="12.222901415079832">
        <ele>937</ele>
        <time>2025-07-12T10:09:34Z</time>
      </trkpt>
      <trkpt lat="62.610366158187389" lon="12.222604025155306">
        <ele>938</ele>
        <time>2025-07-12T10:09:22Z</time>
      </trkpt>
      <trkpt lat="62.610293235629797" lon="12.222488019615412">
        <ele>938</ele>
        <time>2025-07-12T10:09:15Z</time>
      </trkpt>
      <trkpt lat="62.610253170132637" lon="12.22248843871057">
        <ele>938</ele>
        <time>2025-07-12T10:09:12Z</time>
      </trkpt>
      <trkpt lat="62.610125094652176" lon="12.222771244123578">
        <ele>937</ele>
        <time>2025-07-12T10:08:58Z</time>
      </trkpt>
      <trkpt lat="62.609958043321967" lon="12.222978780046105">
        <ele>937</ele>
        <time>2025-07-12T10:08:44Z</time>
      </trkpt>
      <trkpt lat="62.60985067114234" lon="12.222754145041108">
        <ele>937</ele>
        <time>2025-07-12T10:08:33Z</time>
      </trkpt>
      <trkpt lat="62.609635340049863" lon="12.222480224445462">
        <ele>937</ele>
        <time>2025-07-12T10:08:11Z</time>
      </trkpt>
      <trkpt lat="62.609304590150714" lon="12.22232230938971">
        <ele>936</ele>
        <time>2025-07-12T10:07:46Z</time>
      </trkpt>
      <trkpt lat="62.609204258769751" lon="12.221837919205427">
        <ele>935</ele>
        <time>2025-07-12T10:07:25Z</time>
      </trkpt>
      <trkpt lat="62.609144076704979" lon="12.221760218963027">
        <ele>934</ele>
        <time>2025-07-12T10:07:19Z</time>
      </trkpt>
      <trkpt lat="62.609099904075265" lon="12.221569027751684">
        <ele>934</ele>
        <time>2025-07-12T10:07:12Z</time>
      </trkpt>
      <trkpt lat="62.608945928514004" lon="12.221183963119984">
        <ele>932</ele>
        <time>2025-07-12T10:06:55Z</time>
      </trkpt>
      <trkpt lat="62.608905024826527" lon="12.221157560124993">
        <ele>931</ele>
        <time>2025-07-12T10:06:52Z</time>
      </trkpt>
      <trkpt lat="62.608747780323029" lon="12.220815913751721">
        <ele>929</ele>
        <time>2025-07-12T10:06:35Z</time>
      </trkpt>
      <trkpt lat="62.608614843338728" lon="12.220660597085953">
        <ele>928</ele>
        <time>2025-07-12T10:06:23Z</time>
      </trkpt>
      <trkpt lat="62.608460700139403" lon="12.220335714519024">
        <ele>926</ele>
        <time>2025-07-12T10:06:08Z</time>
      </trkpt>
      <trkpt lat="62.60842340067029" lon="12.220131196081638">
        <ele>925</ele>
        <time>2025-07-12T10:06:01Z</time>
      </trkpt>
      <trkpt lat="62.608360117301345" lon="12.219957271590829">
        <ele>924</ele>
        <time>2025-07-12T10:05:52Z</time>
      </trkpt>
      <trkpt lat="62.60828023776412" lon="12.219904968515038">
        <ele>923</ele>
        <time>2025-07-12T10:05:46Z</time>
      </trkpt>
      <trkpt lat="62.608263725414872" lon="12.219826010987163">
        <ele>923</ele>
        <time>2025-07-12T10:05:43Z</time>
      </trkpt>
      <trkpt lat="62.608155682682991" lon="12.219711430370808">
        <ele>922</ele>
        <time>2025-07-12T10:05:33Z</time>
      </trkpt>
      <trkpt lat="62.608040431514382" lon="12.219474641606212">
        <ele>921</ele>
        <time>2025-07-12T10:05:20Z</time>
      </trkpt>
      <trkpt lat="62.607987374067307" lon="12.219473551958799">
        <ele>920</ele>
        <time>2025-07-12T10:05:16Z</time>
      </trkpt>
      <trkpt lat="62.607891317456961" lon="12.219334496185184">
        <ele>920</ele>
        <time>2025-07-12T10:05:06Z</time>
      </trkpt>
      <trkpt lat="62.60783507488668" lon="12.219336088746786">
        <ele>919</ele>
        <time>2025-07-12T10:05:02Z</time>
      </trkpt>
      <trkpt lat="62.607794757932425" lon="12.219077590852976">
        <ele>919</ele>
        <time>2025-07-12T10:04:51Z</time>
      </trkpt>
      <trkpt lat="62.607705574482679" lon="12.218873240053654">
        <ele>919</ele>
        <time>2025-07-12T10:04:41Z</time>
      </trkpt>
      <trkpt lat="62.607711609452963" lon="12.21863167360425">
        <ele>919</ele>
        <time>2025-07-12T10:04:33Z</time>
      </trkpt>
      <trkpt lat="62.607521843165159" lon="12.218299498781562">
        <ele>918</ele>
        <time>2025-07-12T10:04:15Z</time>
      </trkpt>
      <trkpt lat="62.607480017468333" lon="12.218152228742838">
        <ele>919</ele>
        <time>2025-07-12T10:04:09Z</time>
      </trkpt>
      <trkpt lat="62.607446322217584" lon="12.217832375317812">
        <ele>920</ele>
        <time>2025-07-12T10:03:59Z</time>
      </trkpt>
      <trkpt lat="62.607369627803564" lon="12.21774335950613">
        <ele>920</ele>
        <time>2025-07-12T10:03:52Z</time>
      </trkpt>
      <trkpt lat="62.607098137959838" lon="12.217014720663428">
        <ele>922</ele>
        <time>2025-07-12T10:03:22Z</time>
      </trkpt>
      <trkpt lat="62.607102077454329" lon="12.216927381232381">
        <ele>922</ele>
        <time>2025-07-12T10:03:19Z</time>
      </trkpt>
      <trkpt lat="62.606913736090064" lon="12.216291027143598">
        <ele>924</ele>
        <time>2025-07-12T10:02:49Z</time>
      </trkpt>
      <trkpt lat="62.60645960457623" lon="12.215562555938959">
        <ele>925</ele>
        <time>2025-07-12T10:02:04Z</time>
      </trkpt>
      <trkpt lat="62.606366900727153" lon="12.215569093823433">
        <ele>925</ele>
        <time>2025-07-12T10:01:58Z</time>
      </trkpt>
      <trkpt lat="62.6060726121068" lon="12.215365245938301">
        <ele>925</ele>
        <time>2025-07-12T10:01:33Z</time>
      </trkpt>
      <trkpt lat="62.605963060632348" lon="12.215413693338633">
        <ele>924</ele>
        <time>2025-07-12T10:01:24Z</time>
      </trkpt>
      <trkpt lat="62.605821490287781" lon="12.21535200253129">
        <ele>924</ele>
        <time>2025-07-12T10:01:12Z</time>
      </trkpt>
      <trkpt lat="62.60567924939096" lon="12.215397516265512">
        <ele>923</ele>
        <time>2025-07-12T10:01:00Z</time>
      </trkpt>
      <trkpt lat="62.605518819764256" lon="12.215318558737636">
        <ele>923</ele>
        <time>2025-07-12T10:00:48Z</time>
      </trkpt>
      <trkpt lat="62.605394767597318" lon="12.215442610904574">
        <ele>923</ele>
        <time>2025-07-12T10:00:37Z</time>
      </trkpt>
      <trkpt lat="62.605353863909841" lon="12.215294167399406">
        <ele>923</ele>
        <time>2025-07-12T10:00:31Z</time>
      </trkpt>
      <trkpt lat="62.605174239724874" lon="12.215208923444152">
        <ele>922</ele>
        <time>2025-07-12T10:00:15Z</time>
      </trkpt>
      <trkpt lat="62.605085475370288" lon="12.215110100805759">
        <ele>922</ele>
        <time>2025-07-12T10:00:08Z</time>
      </trkpt>
      <trkpt lat="62.605065274983644" lon="12.214960316196084">
        <ele>922</ele>
        <time>2025-07-12T10:00:03Z</time>
      </trkpt>
      <trkpt lat="62.604915825650096" lon="12.214875072240829">
        <ele>921</ele>
        <time>2025-07-12T09:59:51Z</time>
      </trkpt>
      <trkpt lat="62.60488816536963" lon="12.214941289275885">
        <ele>921</ele>
        <time>2025-07-12T09:59:49Z</time>
      </trkpt>
      <trkpt lat="62.604844747111201" lon="12.214931650087237">
        <ele>921</ele>
        <time>2025-07-12T09:59:46Z</time>
      </trkpt>
      <trkpt lat="62.604776937514544" lon="12.21505737863481">
        <ele>921</ele>
        <time>2025-07-12T09:59:39Z</time>
      </trkpt>
      <trkpt lat="62.604715414345264" lon="12.215014463290572">
        <ele>921</ele>
        <time>2025-07-12T09:59:34Z</time>
      </trkpt>
      <trkpt lat="62.604500502347946" lon="12.215216299518943">
        <ele>921</ele>
        <time>2025-07-12T09:59:16Z</time>
      </trkpt>
      <trkpt lat="62.604446606710553" lon="12.215183777734637">
        <ele>921</ele>
        <time>2025-07-12T09:59:12Z</time>
      </trkpt>
      <trkpt lat="62.604369074106216" lon="12.215241109952331">
        <ele>921</ele>
        <time>2025-07-12T09:59:05Z</time>
      </trkpt>
      <trkpt lat="62.604172183200717" lon="12.215261897072196">
        <ele>920</ele>
        <time>2025-07-12T09:58:51Z</time>
      </trkpt>
      <trkpt lat="62.604235718026757" lon="12.215762296691537">
        <ele>921</ele>
        <time>2025-07-12T09:58:31Z</time>
      </trkpt>
      <trkpt lat="62.60428274050355" lon="12.215829016640782">
        <ele>921</ele>
        <time>2025-07-12T09:58:26Z</time>
      </trkpt>
      <trkpt lat="62.604309227317572" lon="12.216045605018735">
        <ele>921</ele>
        <time>2025-07-12T09:58:18Z</time>
      </trkpt>
      <trkpt lat="62.604369157925248" lon="12.216159179806709">
        <ele>921</ele>
        <time>2025-07-12T09:58:12Z</time>
      </trkpt>
      <trkpt lat="62.604431184008718" lon="12.216558074578643">
        <ele>921</ele>
        <time>2025-07-12T09:57:58Z</time>
      </trkpt>
      <trkpt lat="62.604433782398701" lon="12.216732166707516">
        <ele>921</ele>
        <time>2025-07-12T09:57:52Z</time>
      </trkpt>
      <trkpt lat="62.604495557025075" lon="12.217056127265096">
        <ele>921</ele>
        <time>2025-07-12T09:57:41Z</time>
      </trkpt>
      <trkpt lat="62.604462364688516" lon="12.21725326962769">
        <ele>921</ele>
        <time>2025-07-12T09:57:34Z</time>
      </trkpt>
      <trkpt lat="62.604505531489849" lon="12.217554934322834">
        <ele>921</ele>
        <time>2025-07-12T09:57:23Z</time>
      </trkpt>
      <trkpt lat="62.604483487084508" lon="12.217623917385936">
        <ele>921</ele>
        <time>2025-07-12T09:57:20Z</time>
      </trkpt>
      <trkpt lat="62.604497065767646" lon="12.217769762501121">
        <ele>920</ele>
        <time>2025-07-12T09:57:14Z</time>
      </trkpt>
      <trkpt lat="62.6046047732234" lon="12.218210231512785">
        <ele>919</ele>
        <time>2025-07-12T09:56:58Z</time>
      </trkpt>
      <trkpt lat="62.60475036688149" lon="12.218561433255672">
        <ele>919</ele>
        <time>2025-07-12T09:56:38Z</time>
      </trkpt>
      <trkpt lat="62.604764113202691" lon="12.218756731599569">
        <ele>918</ele>
        <time>2025-07-12T09:56:31Z</time>
      </trkpt>
      <trkpt lat="62.60481147095561" lon="12.218995029106736">
        <ele>918</ele>
        <time>2025-07-12T09:56:23Z</time>
      </trkpt>
      <trkpt lat="62.60477626696229" lon="12.219114722684026">
        <ele>917</ele>
        <time>2025-07-12T09:56:18Z</time>
      </trkpt>
      <trkpt lat="62.604789761826396" lon="12.219571871683002">
        <ele>916</ele>
        <time>2025-07-12T09:56:02Z</time>
      </trkpt>
      <trkpt lat="62.604770986363292" lon="12.219677483662963">
        <ele>916</ele>
        <time>2025-07-12T09:55:58Z</time>
      </trkpt>
      <trkpt lat="62.60483980178833" lon="12.220006221905351">
        <ele>915</ele>
        <time>2025-07-12T09:55:45Z</time>
      </trkpt>
      <trkpt lat="62.604852458462119" lon="12.220497820526361">
        <ele>914</ele>
        <time>2025-07-12T09:55:29Z</time>
      </trkpt>
      <trkpt lat="62.604883639141917" lon="12.220674343407154">
        <ele>914</ele>
        <time>2025-07-12T09:55:23Z</time>
      </trkpt>
      <trkpt lat="62.604886572808027" lon="12.221121769398451">
        <ele>913</ele>
        <time>2025-07-12T09:55:07Z</time>
      </trkpt>
      <trkpt lat="62.60491062887013" lon="12.221253784373403">
        <ele>912</ele>
        <time>2025-07-12T09:55:02Z</time>
      </trkpt>
      <trkpt lat="62.604897804558277" lon="12.221517898142338">
        <ele>912</ele>
        <time>2025-07-12T09:54:52Z</time>
      </trkpt>
      <trkpt lat="62.604864863678813" lon="12.221626779064536">
        <ele>911</ele>
        <time>2025-07-12T09:54:48Z</time>
      </trkpt>
      <trkpt lat="62.604900654405355" lon="12.22178628668189">
        <ele>911</ele>
        <time>2025-07-12T09:54:41Z</time>
      </trkpt>
      <trkpt lat="62.604983216151595" lon="12.223238619044423">
        <ele>910</ele>
        <time>2025-07-12T09:53:52Z</time>
      </trkpt>
      <trkpt lat="62.605098551139235" lon="12.223562328144908">
        <ele>910</ele>
        <time>2025-07-12T09:53:36Z</time>
      </trkpt>
      <trkpt lat="62.605283539742231" lon="12.223730301484466">
        <ele>910</ele>
        <time>2025-07-12T09:53:22Z</time>
      </trkpt>
      <trkpt lat="62.605352271348238" lon="12.223868099972606">
        <ele>910</ele>
        <time>2025-07-12T09:53:15Z</time>
      </trkpt>
      <trkpt lat="62.605421170592308" lon="12.224211506545544">
        <ele>910</ele>
        <time>2025-07-12T09:53:02Z</time>
      </trkpt>
      <trkpt lat="62.605516975745559" lon="12.224416779354215">
        <ele>910</ele>
        <time>2025-07-12T09:52:52Z</time>
      </trkpt>
      <trkpt lat="62.605592329055071" lon="12.225190093740821">
        <ele>910</ele>
        <time>2025-07-12T09:52:22Z</time>
      </trkpt>
      <trkpt lat="62.605638513341546" lon="12.22531808540225">
        <ele>910</ele>
        <time>2025-07-12T09:52:16Z</time>
      </trkpt>
      <trkpt lat="62.60562309063971" lon="12.225519251078367">
        <ele>910</ele>
        <time>2025-07-12T09:52:07Z</time>
      </trkpt>
      <trkpt lat="62.60568268597126" lon="12.225579516962171">
        <ele>910</ele>
        <time>2025-07-12T09:52:03Z</time>
      </trkpt>
      <trkpt lat="62.605510940775275" lon="12.226065499708056">
        <ele>910</ele>
        <time>2025-07-12T09:51:39Z</time>
      </trkpt>
      <trkpt lat="62.605500463396311" lon="12.226253673434258">
        <ele>909</ele>
        <time>2025-07-12T09:51:32Z</time>
      </trkpt>
      <trkpt lat="62.605443466454744" lon="12.226513344794512">
        <ele>909</ele>
        <time>2025-07-12T09:51:21Z</time>
      </trkpt>
      <trkpt lat="62.605442041531205" lon="12.22663345746696">
        <ele>909</ele>
        <time>2025-07-12T09:51:18Z</time>
      </trkpt>
      <trkpt lat="62.605398120358586" lon="12.226785253733397">
        <ele>909</ele>
        <time>2025-07-12T09:51:12Z</time>
      </trkpt>
      <trkpt lat="62.605399461463094" lon="12.227133186534047">
        <ele>909</ele>
        <time>2025-07-12T09:51:00Z</time>
      </trkpt>
      <trkpt lat="62.605317905545235" lon="12.227305099368095">
        <ele>908</ele>
        <time>2025-07-12T09:50:52Z</time>
      </trkpt>
      <trkpt lat="62.605294017121196" lon="12.227713298052549">
        <ele>908</ele>
        <time>2025-07-12T09:50:38Z</time>
      </trkpt>
      <trkpt lat="62.60517306625843" lon="12.227966599166393">
        <ele>907</ele>
        <time>2025-07-12T09:50:25Z</time>
      </trkpt>
      <trkpt lat="62.605098718777299" lon="12.228276645764709">
        <ele>906</ele>
        <time>2025-07-12T09:50:10Z</time>
      </trkpt>
      <trkpt lat="62.604945581406355" lon="12.228422239422798">
        <ele>905</ele>
        <time>2025-07-12T09:49:44Z</time>
      </trkpt>
      <trkpt lat="62.604932505637407" lon="12.228555511683226">
        <ele>905</ele>
        <time>2025-07-12T09:49:39Z</time>
      </trkpt>
      <trkpt lat="62.604841897264123" lon="12.228637989610434">
        <ele>905</ele>
        <time>2025-07-12T09:49:30Z</time>
      </trkpt>
      <trkpt lat="62.604797556996346" lon="12.228779643774033">
        <ele>904</ele>
        <time>2025-07-12T09:49:24Z</time>
      </trkpt>
      <trkpt lat="62.604686748236418" lon="12.228945018723607">
        <ele>904</ele>
        <time>2025-07-12T09:49:14Z</time>
      </trkpt>
      <trkpt lat="62.604671660810709" lon="12.22903948277235">
        <ele>904</ele>
        <time>2025-07-12T09:49:10Z</time>
      </trkpt>
      <trkpt lat="62.604633439332247" lon="12.229056414216757">
        <ele>903</ele>
        <time>2025-07-12T09:49:04Z</time>
      </trkpt>
      <trkpt lat="62.604461442679167" lon="12.22970056347549">
        <ele>903</ele>
        <time>2025-07-12T09:48:39Z</time>
      </trkpt>
      <trkpt lat="62.60446747764945" lon="12.229917654767632">
        <ele>903</ele>
        <time>2025-07-12T09:48:31Z</time>
      </trkpt>
      <trkpt lat="62.604431016370654" lon="12.230069199576974">
        <ele>902</ele>
        <time>2025-07-12T09:48:24Z</time>
      </trkpt>
      <trkpt lat="62.604472422972322" lon="12.231525639072061">
        <ele>904</ele>
        <time>2025-07-12T09:47:32Z</time>
      </trkpt>
      <trkpt lat="62.60443277657032" lon="12.231896538287401">
        <ele>904</ele>
        <time>2025-07-12T09:47:18Z</time>
      </trkpt>
      <trkpt lat="62.604481391608715" lon="12.232245141640306">
        <ele>905</ele>
        <time>2025-07-12T09:47:05Z</time>
      </trkpt>
      <trkpt lat="62.604459598660469" lon="12.232320411130786">
        <ele>905</ele>
        <time>2025-07-12T09:47:02Z</time>
      </trkpt>
      <trkpt lat="62.604485079646111" lon="12.23253314383328">
        <ele>906</ele>
        <time>2025-07-12T09:46:49Z</time>
      </trkpt>
      <trkpt lat="62.604425484314561" lon="12.233049720525742">
        <ele>906</ele>
        <time>2025-07-12T09:46:18Z</time>
      </trkpt>
      <trkpt lat="62.604383574798703" lon="12.23305206745863">
        <ele>906</ele>
        <time>2025-07-12T09:46:17Z</time>
      </trkpt>
      <trkpt lat="62.604423724114895" lon="12.233014684170485">
        <ele>906</ele>
        <time>2025-07-12T09:41:45Z</time>
      </trkpt>
      <trkpt lat="62.60439807549119" lon="12.233157511800528">
        <ele>906</ele>
        <time>2025-07-12T09:41:36Z</time>
      </trkpt>
      <trkpt lat="62.604567473754287" lon="12.234381185844541">
        <ele>909</ele>
        <time>2025-07-12T09:40:49Z</time>
      </trkpt>
      <trkpt lat="62.604600749909878" lon="12.234890051186085">
        <ele>910</ele>
        <time>2025-07-12T09:40:29Z</time>
      </trkpt>
      <trkpt lat="62.604698231443763" lon="12.23523966036737">
        <ele>911</ele>
        <time>2025-07-12T09:40:14Z</time>
      </trkpt>
      <trkpt lat="62.604693537577987" lon="12.235453566536307">
        <ele>911</ele>
        <time>2025-07-12T09:40:07Z</time>
      </trkpt>
      <trkpt lat="62.604792108759284" lon="12.235832596197724">
        <ele>911</ele>
        <time>2025-07-12T09:39:52Z</time>
      </trkpt>
      <trkpt lat="62.604858241975307" lon="12.236255714669824">
        <ele>911</ele>
        <time>2025-07-12T09:39:36Z</time>
      </trkpt>
      <trkpt lat="62.60494926944375" lon="12.236428465694189">
        <ele>911</ele>
        <time>2025-07-12T09:39:27Z</time>
      </trkpt>
      <trkpt lat="62.604954047128558" lon="12.236575065180659">
        <ele>911</ele>
        <time>2025-07-12T09:39:22Z</time>
      </trkpt>
      <trkpt lat="62.605116404592991" lon="12.236823253333569">
        <ele>912</ele>
        <time>2025-07-12T09:39:06Z</time>
      </trkpt>
      <trkpt lat="62.605178095400333" lon="12.236993908882141">
        <ele>912</ele>
        <time>2025-07-12T09:38:58Z</time>
      </trkpt>
      <trkpt lat="62.605636585503817" lon="12.237345110625029">
        <ele>914</ele>
        <time>2025-07-12T09:38:19Z</time>
      </trkpt>
      <trkpt lat="62.605700623244047" lon="12.23730412311852">
        <ele>914</ele>
        <time>2025-07-12T09:38:15Z</time>
      </trkpt>
      <trkpt lat="62.605763236060739" lon="12.237383499741554">
        <ele>915</ele>
        <time>2025-07-12T09:38:10Z</time>
      </trkpt>
      <trkpt lat="62.605828447267413" lon="12.238062517717481">
        <ele>916</ele>
        <time>2025-07-12T09:37:46Z</time>
      </trkpt>
      <trkpt lat="62.605879828333855" lon="12.23816997371614">
        <ele>917</ele>
        <time>2025-07-12T09:37:41Z</time>
      </trkpt>
      <trkpt lat="62.605876978486776" lon="12.238291930407286">
        <ele>917</ele>
        <time>2025-07-12T09:37:37Z</time>
      </trkpt>
      <trkpt lat="62.605926683172584" lon="12.2384690400213">
        <ele>917</ele>
        <time>2025-07-12T09:37:30Z</time>
      </trkpt>
      <trkpt lat="62.605907237157226" lon="12.23875243216753">
        <ele>918</ele>
        <time>2025-07-12T09:37:20Z</time>
      </trkpt>
      <trkpt lat="62.605876475572586" lon="12.238851338624954">
        <ele>918</ele>
        <time>2025-07-12T09:37:16Z</time>
      </trkpt>
      <trkpt lat="62.605871027335525" lon="12.239232212305069">
        <ele>918</ele>
        <time>2025-07-12T09:37:03Z</time>
      </trkpt>
      <trkpt lat="62.605913355946541" lon="12.23944628611207">
        <ele>918</ele>
        <time>2025-07-12T09:36:54Z</time>
      </trkpt>
      <trkpt lat="62.605947135016322" lon="12.23983864299953">
        <ele>918</ele>
        <time>2025-07-12T09:36:40Z</time>
      </trkpt>
      <trkpt lat="62.60607554577291" lon="12.240350358188152">
        <ele>918</ele>
        <time>2025-07-12T09:36:20Z</time>
      </trkpt>
      <trkpt lat="62.606112929061055" lon="12.24072502925992">
        <ele>918</ele>
        <time>2025-07-12T09:36:07Z</time>
      </trkpt>
      <trkpt lat="62.606076467782259" lon="12.241050414741039">
        <ele>918</ele>
        <time>2025-07-12T09:35:56Z</time>
      </trkpt>
      <trkpt lat="62.606092477217317" lon="12.241141609847546">
        <ele>918</ele>
        <time>2025-07-12T09:35:53Z</time>
      </trkpt>
      <trkpt lat="62.605985105037689" lon="12.241894891485572">
        <ele>918</ele>
        <time>2025-07-12T09:35:24Z</time>
      </trkpt>
      <trkpt lat="62.606014609336853" lon="12.242065379396081">
        <ele>919</ele>
        <time>2025-07-12T09:35:17Z</time>
      </trkpt>
      <trkpt lat="62.605996336787939" lon="12.242132099345326">
        <ele>919</ele>
        <time>2025-07-12T09:35:14Z</time>
      </trkpt>
      <trkpt lat="62.606003796681762" lon="12.242256822064519">
        <ele>919</ele>
        <time>2025-07-12T09:35:09Z</time>
      </trkpt>
      <trkpt lat="62.60596364736557" lon="12.242367966100574">
        <ele>919</ele>
        <time>2025-07-12T09:35:04Z</time>
      </trkpt>
      <trkpt lat="62.605971610173583" lon="12.242542980238795">
        <ele>919</ele>
        <time>2025-07-12T09:34:58Z</time>
      </trkpt>
      <trkpt lat="62.605937160551548" lon="12.242679689079523">
        <ele>919</ele>
        <time>2025-07-12T09:34:51Z</time>
      </trkpt>
      <trkpt lat="62.605937663465738" lon="12.242843052372336">
        <ele>920</ele>
        <time>2025-07-12T09:34:45Z</time>
      </trkpt>
      <trkpt lat="62.605886366218328" lon="12.242920082062483">
        <ele>920</ele>
        <time>2025-07-12T09:34:41Z</time>
      </trkpt>
      <trkpt lat="62.605917127802968" lon="12.242972468957305">
        <ele>920</ele>
        <time>2025-07-12T09:34:38Z</time>
      </trkpt>
      <trkpt lat="62.605916038155556" lon="12.243069782853127">
        <ele>920</ele>
        <time>2025-07-12T09:34:34Z</time>
      </trkpt>
      <trkpt lat="62.606057692319155" lon="12.243575043976307">
        <ele>921</ele>
        <time>2025-07-12T09:34:14Z</time>
      </trkpt>
      <trkpt lat="62.606074959039688" lon="12.243736982345581">
        <ele>921</ele>
        <time>2025-07-12T09:34:09Z</time>
      </trkpt>
      <trkpt lat="62.606052160263062" lon="12.243841588497162">
        <ele>921</ele>
        <time>2025-07-12T09:34:05Z</time>
      </trkpt>
      <trkpt lat="62.606093483045697" lon="12.244130680337548">
        <ele>921</ele>
        <time>2025-07-12T09:33:54Z</time>
      </trkpt>
      <trkpt lat="62.606495814397931" lon="12.244841465726495">
        <ele>920</ele>
        <time>2025-07-12T09:32:55Z</time>
      </trkpt>
      <trkpt lat="62.606504783034325" lon="12.244795868173242">
        <ele>920</ele>
        <time>2025-07-12T09:32:51Z</time>
      </trkpt>
      <trkpt lat="62.606553565710783" lon="12.244938528165221">
        <ele>920</ele>
        <time>2025-07-12T09:32:43Z</time>
      </trkpt>
      <trkpt lat="62.606839472427964" lon="12.245459966361523">
        <ele>920</ele>
        <time>2025-07-12T09:32:11Z</time>
      </trkpt>
      <trkpt lat="62.60689303278923" lon="12.245792057365179">
        <ele>920</ele>
        <time>2025-07-12T09:31:56Z</time>
      </trkpt>
      <trkpt lat="62.60706402361393" lon="12.246026583015919">
        <ele>920</ele>
        <time>2025-07-12T09:31:38Z</time>
      </trkpt>
      <trkpt lat="62.607213975861669" lon="12.246077880263329">
        <ele>920</ele>
        <time>2025-07-12T09:31:26Z</time>
      </trkpt>
      <trkpt lat="62.607395192608237" lon="12.24602859467268">
        <ele>920</ele>
        <time>2025-07-12T09:31:12Z</time>
      </trkpt>
      <trkpt lat="62.607530057430267" lon="12.246095314621925">
        <ele>920</ele>
        <time>2025-07-12T09:31:00Z</time>
      </trkpt>
      <trkpt lat="62.607627874240279" lon="12.246053069829941">
        <ele>920</ele>
        <time>2025-07-12T09:30:52Z</time>
      </trkpt>
      <trkpt lat="62.607669532299042" lon="12.246105456724763">
        <ele>920</ele>
        <time>2025-07-12T09:30:43Z</time>
      </trkpt>
      <trkpt lat="62.607642123475671" lon="12.246180223301053">
        <ele>920</ele>
        <time>2025-07-12T09:30:41Z</time>
      </trkpt>
      <trkpt lat="62.607629550620914" lon="12.246064217761159">
        <ele>920</ele>
        <time>2025-07-12T09:30:40Z</time>
      </trkpt>
      <trkpt lat="62.60765578597784" lon="12.246061367914081">
        <ele>920</ele>
        <time>2025-07-12T09:28:47Z</time>
      </trkpt>
      <trkpt lat="62.60772904381156" lon="12.246066564694047">
        <ele>919</ele>
        <time>2025-07-12T09:28:40Z</time>
      </trkpt>
      <trkpt lat="62.607946386560798" lon="12.24639555439353">
        <ele>919</ele>
        <time>2025-07-12T09:28:19Z</time>
      </trkpt>
      <trkpt lat="62.608011178672314" lon="12.246588841080666">
        <ele>919</ele>
        <time>2025-07-12T09:28:10Z</time>
      </trkpt>
      <trkpt lat="62.608201028779149" lon="12.246699398383498">
        <ele>919</ele>
        <time>2025-07-12T09:27:55Z</time>
      </trkpt>
      <trkpt lat="62.608503364026546" lon="12.24704347550869">
        <ele>919</ele>
        <time>2025-07-12T09:27:23Z</time>
      </trkpt>
      <trkpt lat="62.608681060373783" lon="12.247709752991796">
        <ele>919</ele>
        <time>2025-07-12T09:26:55Z</time>
      </trkpt>
      <trkpt lat="62.608681814745069" lon="12.247951989993453">
        <ele>919</ele>
        <time>2025-07-12T09:26:46Z</time>
      </trkpt>
      <trkpt lat="62.608770160004497" lon="12.248184336349368">
        <ele>919</ele>
        <time>2025-07-12T09:26:37Z</time>
      </trkpt>
      <trkpt lat="62.608850374817848" lon="12.248704433441162">
        <ele>919</ele>
        <time>2025-07-12T09:26:15Z</time>
      </trkpt>
      <trkpt lat="62.608891278505325" lon="12.248770566657186">
        <ele>919</ele>
        <time>2025-07-12T09:26:10Z</time>
      </trkpt>
      <trkpt lat="62.609254634007812" lon="12.248740140348673">
        <ele>920</ele>
        <time>2025-07-12T09:25:43Z</time>
      </trkpt>
      <trkpt lat="62.609421098604798" lon="12.248826641589403">
        <ele>920</ele>
        <time>2025-07-12T09:25:31Z</time>
      </trkpt>
      <trkpt lat="62.609589071944356" lon="12.249187231063843">
        <ele>921</ele>
        <time>2025-07-12T09:23:37Z</time>
      </trkpt>
      <trkpt lat="62.609570296481252" lon="12.249268954619765">
        <ele>921</ele>
        <time>2025-07-12T09:23:22Z</time>
      </trkpt>
      <trkpt lat="62.609553448855877" lon="12.249248083680868">
        <ele>921</ele>
        <time>2025-07-12T09:23:20Z</time>
      </trkpt>
      <trkpt lat="62.609618240967393" lon="12.249422930181026">
        <ele>921</ele>
        <time>2025-07-12T09:23:10Z</time>
      </trkpt>
      <trkpt lat="62.609668700024486" lon="12.249432653188705">
        <ele>921</ele>
        <time>2025-07-12T09:23:06Z</time>
      </trkpt>
      <trkpt lat="62.609751932322979" lon="12.249656282365322">
        <ele>922</ele>
        <time>2025-07-12T09:22:55Z</time>
      </trkpt>
      <trkpt lat="62.609751848503947" lon="12.250065486878157">
        <ele>922</ele>
        <time>2025-07-12T09:22:40Z</time>
      </trkpt>
      <trkpt lat="62.609798535704613" lon="12.250116029754281">
        <ele>922</ele>
        <time>2025-07-12T09:22:36Z</time>
      </trkpt>
      <trkpt lat="62.609816556796432" lon="12.250280566513538">
        <ele>923</ele>
        <time>2025-07-12T09:22:30Z</time>
      </trkpt>
      <trkpt lat="62.609790740534663" lon="12.250592205673456">
        <ele>923</ele>
        <time>2025-07-12T09:22:19Z</time>
      </trkpt>
      <trkpt lat="62.609838601201773" lon="12.250866293907166">
        <ele>923</ele>
        <time>2025-07-12T09:22:08Z</time>
      </trkpt>
      <trkpt lat="62.609830386936665" lon="12.250963859260082">
        <ele>923</ele>
        <time>2025-07-12T09:22:04Z</time>
      </trkpt>
      <trkpt lat="62.610194329172373" lon="12.251226464286447">
        <ele>926</ele>
        <time>2025-07-12T09:21:27Z</time>
      </trkpt>
      <trkpt lat="62.610290134325624" lon="12.251450177282095">
        <ele>927</ele>
        <time>2025-07-12T09:21:16Z</time>
      </trkpt>
      <trkpt lat="62.610449222847819" lon="12.251654025167227">
        <ele>928</ele>
        <time>2025-07-12T09:21:03Z</time>
      </trkpt>
      <trkpt lat="62.610626667737961" lon="12.252245200797915">
        <ele>930</ele>
        <time>2025-07-12T09:20:39Z</time>
      </trkpt>
      <trkpt lat="62.610824899747968" lon="12.252552816644311">
        <ele>932</ele>
        <time>2025-07-12T09:20:19Z</time>
      </trkpt>
      <trkpt lat="62.611083146184683" lon="12.253218339756131">
        <ele>935</ele>
        <time>2025-07-12T09:19:43Z</time>
      </trkpt>
      <trkpt lat="62.611078284680843" lon="12.253482285887003">
        <ele>936</ele>
        <time>2025-07-12T09:19:33Z</time>
      </trkpt>
      <trkpt lat="62.611044337972999" lon="12.253533415496349">
        <ele>936</ele>
        <time>2025-07-12T09:19:30Z</time>
      </trkpt>
      <trkpt lat="62.611043248325586" lon="12.253824518993497">
        <ele>936</ele>
        <time>2025-07-12T09:19:20Z</time>
      </trkpt>
      <trkpt lat="62.611119775101542" lon="12.254290217533708">
        <ele>938</ele>
        <time>2025-07-12T09:19:03Z</time>
      </trkpt>
      <trkpt lat="62.611332088708878" lon="12.254629600793123">
        <ele>940</ele>
        <time>2025-07-12T09:18:41Z</time>
      </trkpt>
      <trkpt lat="62.611454213038087" lon="12.254649549722672">
        <ele>941</ele>
        <time>2025-07-12T09:18:29Z</time>
      </trkpt>
      <trkpt lat="62.611471060663462" lon="12.254844596609473">
        <ele>942</ele>
        <time>2025-07-12T09:18:22Z</time>
      </trkpt>
      <trkpt lat="62.61145144701004" lon="12.254952723160386">
        <ele>942</ele>
        <time>2025-07-12T09:18:18Z</time>
      </trkpt>
      <trkpt lat="62.611506097018719" lon="12.2552749235183">
        <ele>943</ele>
        <time>2025-07-12T09:18:06Z</time>
      </trkpt>
      <trkpt lat="62.611598549410701" lon="12.255455302074552">
        <ele>945</ele>
        <time>2025-07-12T09:17:56Z</time>
      </trkpt>
      <trkpt lat="62.611654540523887" lon="12.255747998133302">
        <ele>946</ele>
        <time>2025-07-12T09:17:44Z</time>
      </trkpt>
      <trkpt lat="62.611814048141241" lon="12.255963915959001">
        <ele>948</ele>
        <time>2025-07-12T09:17:29Z</time>
      </trkpt>
      <trkpt lat="62.611847994849086" lon="12.256281254813075">
        <ele>949</ele>
        <time>2025-07-12T09:17:17Z</time>
      </trkpt>
      <trkpt lat="62.611939441412687" lon="12.256485354155302">
        <ele>950</ele>
        <time>2025-07-12T09:16:54Z</time>
      </trkpt>
      <trkpt lat="62.612018147483468" lon="12.256573615595698">
        <ele>951</ele>
        <time>2025-07-12T09:16:46Z</time>
      </trkpt>
      <trkpt lat="62.612090315669775" lon="12.256972175091505">
        <ele>953</ele>
        <time>2025-07-12T09:16:31Z</time>
      </trkpt>
      <trkpt lat="62.612220905721188" lon="12.257331591099501">
        <ele>955</ele>
        <time>2025-07-12T09:16:15Z</time>
      </trkpt>
      <trkpt lat="62.612247476354241" lon="12.257613558322191">
        <ele>956</ele>
        <time>2025-07-12T09:16:04Z</time>
      </trkpt>
      <trkpt lat="62.612223085016012" lon="12.257782202214003">
        <ele>956</ele>
        <time>2025-07-12T09:15:57Z</time>
      </trkpt>
      <trkpt lat="62.612258456647396" lon="12.258146060630679">
        <ele>958</ele>
        <time>2025-07-12T09:15:42Z</time>
      </trkpt>
      <trkpt lat="62.612390471622348" lon="12.258416628465056">
        <ele>960</ele>
        <time>2025-07-12T09:15:25Z</time>
      </trkpt>
      <trkpt lat="62.612481163814664" lon="12.258451832458377">
        <ele>961</ele>
        <time>2025-07-12T09:15:18Z</time>
      </trkpt>
      <trkpt lat="62.612719126045704" lon="12.25888199172914">
        <ele>964</ele>
        <time>2025-07-12T09:14:52Z</time>
      </trkpt>
      <trkpt lat="62.612735722213984" lon="12.258987184613943">
        <ele>965</ele>
        <time>2025-07-12T09:14:48Z</time>
      </trkpt>
      <trkpt lat="62.61305071413517" lon="12.259520692750812">
        <ele>969</ele>
        <time>2025-07-12T09:14:17Z</time>
      </trkpt>
      <trkpt lat="62.613098574802279" lon="12.259697131812572">
        <ele>970</ele>
        <time>2025-07-12T09:14:09Z</time>
      </trkpt>
      <trkpt lat="62.613191027194262" lon="12.259864937514067">
        <ele>971</ele>
        <time>2025-07-12T09:13:59Z</time>
      </trkpt>
      <trkpt lat="62.613182896748185" lon="12.259946912527084">
        <ele>971</ele>
        <time>2025-07-12T09:13:56Z</time>
      </trkpt>
      <trkpt lat="62.613233271986246" lon="12.260173223912716">
        <ele>972</ele>
        <time>2025-07-12T09:13:47Z</time>
      </trkpt>
      <trkpt lat="62.613387666642666" lon="12.260299623012543">
        <ele>973</ele>
        <time>2025-07-12T09:13:34Z</time>
      </trkpt>
      <trkpt lat="62.613452961668372" lon="12.260226616635919">
        <ele>974</ele>
        <time>2025-07-12T09:13:29Z</time>
      </trkpt>
      <trkpt lat="62.613506941124797" lon="12.260311273857951">
        <ele>974</ele>
        <time>2025-07-12T09:13:25Z</time>
      </trkpt>
      <trkpt lat="62.613602494820952" lon="12.260273387655616">
        <ele>975</ele>
        <time>2025-07-12T09:13:18Z</time>
      </trkpt>
      <trkpt lat="62.613630741834641" lon="12.260358044877648">
        <ele>975</ele>
        <time>2025-07-12T09:13:15Z</time>
      </trkpt>
      <trkpt lat="62.613725960254669" lon="12.260299036279321">
        <ele>976</ele>
        <time>2025-07-12T09:13:06Z</time>
      </trkpt>
      <trkpt lat="62.613803325220942" lon="12.26012796163559">
        <ele>976</ele>
        <time>2025-07-12T09:12:58Z</time>
      </trkpt>
      <trkpt lat="62.613859819248319" lon="12.260079933330417">
        <ele>976</ele>
        <time>2025-07-12T09:12:54Z</time>
      </trkpt>
      <trkpt lat="62.613956043496728" lon="12.260230137035251">
        <ele>977</ele>
        <time>2025-07-12T09:12:45Z</time>
      </trkpt>
      <trkpt lat="62.613983284682035" lon="12.260405486449599">
        <ele>977</ele>
        <time>2025-07-12T09:12:38Z</time>
      </trkpt>
      <trkpt lat="62.614143462851644" lon="12.2606454603374">
        <ele>979</ele>
        <time>2025-07-12T09:12:24Z</time>
      </trkpt>
      <trkpt lat="62.614268688485026" lon="12.260653339326382">
        <ele>980</ele>
        <time>2025-07-12T09:12:15Z</time>
      </trkpt>
      <trkpt lat="62.61432166211307" lon="12.260724836960435">
        <ele>981</ele>
        <time>2025-07-12T09:12:10Z</time>
      </trkpt>
      <trkpt lat="62.614424005150795" lon="12.261798977851868">
        <ele>983</ele>
        <time>2025-07-12T09:10:35Z</time>
      </trkpt>
      <trkpt lat="62.61451662518084" lon="12.261943817138672">
        <ele>984</ele>
        <time>2025-07-12T09:10:22Z</time>
      </trkpt>
      <trkpt lat="62.614623242989182" lon="12.261976087465882">
        <ele>985</ele>
        <time>2025-07-12T09:10:13Z</time>
      </trkpt>
      <trkpt lat="62.614633133634925" lon="12.262223269790411">
        <ele>986</ele>
        <time>2025-07-12T09:10:04Z</time>
      </trkpt>
      <trkpt lat="62.614673282951117" lon="12.26232192479074">
        <ele>986</ele>
        <time>2025-07-12T09:09:59Z</time>
      </trkpt>
      <trkpt lat="62.614639839157462" lon="12.262637335807085">
        <ele>987</ele>
        <time>2025-07-12T09:09:45Z</time>
      </trkpt>
      <trkpt lat="62.614721562713385" lon="12.262936066836119">
        <ele>989</ele>
        <time>2025-07-12T09:09:32Z</time>
      </trkpt>
      <trkpt lat="62.614731956273317" lon="12.263103704899549">
        <ele>989</ele>
        <time>2025-07-12T09:09:24Z</time>
      </trkpt>
      <trkpt lat="62.614617459475994" lon="12.263337476179004">
        <ele>989</ele>
        <time>2025-07-12T09:09:09Z</time>
      </trkpt>
      <trkpt lat="62.614484773948789" lon="12.263414086773992">
        <ele>988</ele>
        <time>2025-07-12T09:08:57Z</time>
      </trkpt>
      <trkpt lat="62.61436901986599" lon="12.263929406180978">
        <ele>988</ele>
        <time>2025-07-12T09:08:38Z</time>
      </trkpt>
      <trkpt lat="62.614301545545459" lon="12.264071563258767">
        <ele>987</ele>
        <time>2025-07-12T09:08:31Z</time>
      </trkpt>
      <trkpt lat="62.61424345895648" lon="12.2641044203192">
        <ele>987</ele>
        <time>2025-07-12T09:08:27Z</time>
      </trkpt>
      <trkpt lat="62.614222755655646" lon="12.2643668577075">
        <ele>987</ele>
        <time>2025-07-12T09:08:17Z</time>
      </trkpt>
      <trkpt lat="62.614112282171845" lon="12.26470104418695">
        <ele>986</ele>
        <time>2025-07-12T09:08:02Z</time>
      </trkpt>
      <trkpt lat="62.613842133432627" lon="12.264909418299794">
        <ele>983</ele>
        <time>2025-07-12T09:07:41Z</time>
      </trkpt>
      <trkpt lat="62.61386476457119" lon="12.265204461291432">
        <ele>984</ele>
        <time>2025-07-12T09:07:30Z</time>
      </trkpt>
      <trkpt lat="62.613927964121103" lon="12.265327926725149">
        <ele>984</ele>
        <time>2025-07-12T09:07:24Z</time>
      </trkpt>
      <trkpt lat="62.613936513662338" lon="12.265446111559868">
        <ele>985</ele>
        <time>2025-07-12T09:07:20Z</time>
      </trkpt>
      <trkpt lat="62.613837774842978" lon="12.265730006620288">
        <ele>984</ele>
        <time>2025-07-12T09:07:07Z</time>
      </trkpt>
      <trkpt lat="62.613843474537134" lon="12.265808125957847">
        <ele>984</ele>
        <time>2025-07-12T09:07:02Z</time>
      </trkpt>
      <trkpt lat="62.613903908059001" lon="12.265841234475374">
        <ele>985</ele>
        <time>2025-07-12T09:06:57Z</time>
      </trkpt>
      <trkpt lat="62.613937268033624" lon="12.265994371846318">
        <ele>986</ele>
        <time>2025-07-12T09:06:51Z</time>
      </trkpt>
      <trkpt lat="62.613934418186545" lon="12.266108198091388">
        <ele>986</ele>
        <time>2025-07-12T09:06:48Z</time>
      </trkpt>
      <trkpt lat="62.613954953849316" lon="12.266114400699735">
        <ele>986</ele>
        <time>2025-07-12T09:06:47Z</time>
      </trkpt>
      <trkpt lat="62.613933747634292" lon="12.266101660206914">
        <ele>986</ele>
        <time>2025-07-12T09:06:43Z</time>
      </trkpt>
      <trkpt lat="62.613918744027615" lon="12.266187993809581">
        <ele>986</ele>
        <time>2025-07-12T09:06:35Z</time>
      </trkpt>
      <trkpt lat="62.614082777872682" lon="12.266431991010904">
        <ele>988</ele>
        <time>2025-07-12T09:06:18Z</time>
      </trkpt>
      <trkpt lat="62.61424295604229" lon="12.266365606337786">
        <ele>990</ele>
        <time>2025-07-12T09:06:05Z</time>
      </trkpt>
      <trkpt lat="62.614528611302376" lon="12.266707504168153">
        <ele>994</ele>
        <time>2025-07-12T09:05:41Z</time>
      </trkpt>
      <trkpt lat="62.614608323201537" lon="12.26663013920188">
        <ele>994</ele>
        <time>2025-07-12T09:05:35Z</time>
      </trkpt>
      <trkpt lat="62.614670936018229" lon="12.266734577715397">
        <ele>995</ele>
        <time>2025-07-12T09:05:29Z</time>
      </trkpt>
      <trkpt lat="62.614838490262628" lon="12.266606586053967">
        <ele>996</ele>
        <time>2025-07-12T09:05:16Z</time>
      </trkpt>
      <trkpt lat="62.615026077255607" lon="12.266874555498362">
        <ele>999</ele>
        <time>2025-07-12T09:04:48Z</time>
      </trkpt>
      <trkpt lat="62.615130767226219" lon="12.266880422830582">
        <ele>1000</ele>
        <time>2025-07-12T09:04:40Z</time>
      </trkpt>
      <trkpt lat="62.61527300812304" lon="12.267213771119714">
        <ele>1002</ele>
        <time>2025-07-12T09:04:17Z</time>
      </trkpt>
      <trkpt lat="62.615534439682961" lon="12.267327094450593">
        <ele>1005</ele>
        <time>2025-07-12T09:03:56Z</time>
      </trkpt>
      <trkpt lat="62.615769635885954" lon="12.267497917637229">
        <ele>1007</ele>
        <time>2025-07-12T09:03:36Z</time>
      </trkpt>
      <trkpt lat="62.615813305601478" lon="12.267444021999836">
        <ele>1007</ele>
        <time>2025-07-12T09:03:32Z</time>
      </trkpt>
      <trkpt lat="62.616103990003467" lon="12.267473023384809">
        <ele>1010</ele>
        <time>2025-07-12T09:03:09Z</time>
      </trkpt>
      <trkpt lat="62.616295181214809" lon="12.267307648435235">
        <ele>1011</ele>
        <time>2025-07-12T09:02:52Z</time>
      </trkpt>
      <trkpt lat="62.616432728245854" lon="12.26709583774209">
        <ele>1011</ele>
        <time>2025-07-12T09:02:38Z</time>
      </trkpt>
      <trkpt lat="62.616892727091908" lon="12.26672887802124">
        <ele>1013</ele>
        <time>2025-07-12T09:01:59Z</time>
      </trkpt>
      <trkpt lat="62.617137897759676" lon="12.266649501398206">
        <ele>1015</ele>
        <time>2025-07-12T09:01:41Z</time>
      </trkpt>
      <trkpt lat="62.61783585883677" lon="12.266578255221248">
        <ele>1018</ele>
        <time>2025-07-12T09:00:44Z</time>
      </trkpt>
      <trkpt lat="62.618373893201351" lon="12.266650255769491">
        <ele>1020</ele>
        <time>2025-07-12T09:00:04Z</time>
      </trkpt>
      <trkpt lat="62.618409600108862" lon="12.266835076734424">
        <ele>1021</ele>
        <time>2025-07-12T08:59:56Z</time>
      </trkpt>
      <trkpt lat="62.618582183495164" lon="12.267114948481321">
        <ele>1021</ele>
        <time>2025-07-12T08:59:39Z</time>
      </trkpt>
      <trkpt lat="62.618675054982305" lon="12.267159707844257">
        <ele>1021</ele>
        <time>2025-07-12T08:59:31Z</time>
      </trkpt>
      <trkpt lat="62.618766753003001" lon="12.267346708104014">
        <ele>1022</ele>
        <time>2025-07-12T08:59:21Z</time>
      </trkpt>
      <trkpt lat="62.619107393547893" lon="12.267069183290005">
        <ele>1023</ele>
        <time>2025-07-12T08:58:52Z</time>
      </trkpt>
      <trkpt lat="62.619497403502464" lon="12.267558183521032">
        <ele>1023</ele>
        <time>2025-07-12T08:58:18Z</time>
      </trkpt>
      <trkpt lat="62.619665628299117" lon="12.267889603972435">
        <ele>1024</ele>
        <time>2025-07-12T08:57:57Z</time>
      </trkpt>
      <trkpt lat="62.61970141902566" lon="12.267855824902654">
        <ele>1024</ele>
        <time>2025-07-12T08:57:48Z</time>
      </trkpt>
      <trkpt lat="62.620367361232638" lon="12.269094251096249">
        <ele>1028</ele>
        <time>2025-07-12T08:56:03Z</time>
      </trkpt>
      <trkpt lat="62.620857618749142" lon="12.269154768437147">
        <ele>1029</ele>
        <time>2025-07-12T08:55:23Z</time>
      </trkpt>
      <trkpt lat="62.621162217110395" lon="12.2693782299757">
        <ele>1031</ele>
        <time>2025-07-12T08:54:56Z</time>
      </trkpt>
      <trkpt lat="62.621269254013896" lon="12.269196258857846">
        <ele>1031</ele>
        <time>2025-07-12T08:54:45Z</time>
      </trkpt>
      <trkpt lat="62.621737383306026" lon="12.269162479788065">
        <ele>1033</ele>
        <time>2025-07-12T08:54:08Z</time>
      </trkpt>
      <trkpt lat="62.621841402724385" lon="12.269247304648161">
        <ele>1034</ele>
        <time>2025-07-12T08:53:59Z</time>
      </trkpt>
      <trkpt lat="62.622019937261939" lon="12.269177148118615">
        <ele>1035</ele>
        <time>2025-07-12T08:53:44Z</time>
      </trkpt>
      <trkpt lat="62.622225629165769" lon="12.269337913021445">
        <ele>1037</ele>
        <time>2025-07-12T08:53:25Z</time>
      </trkpt>
      <trkpt lat="62.622840274125338" lon="12.27009161375463">
        <ele>1047</ele>
        <time>2025-07-12T08:52:23Z</time>
      </trkpt>
      <trkpt lat="62.623022580519319" lon="12.270197728648782">
        <ele>1050</ele>
        <time>2025-07-12T08:52:08Z</time>
      </trkpt>
      <trkpt lat="62.623628592118621" lon="12.270890073850751">
        <ele>1061</ele>
        <time>2025-07-12T08:51:16Z</time>
      </trkpt>
      <trkpt lat="62.624055901542306" lon="12.271286118775606">
        <ele>1068</ele>
        <time>2025-07-12T08:50:36Z</time>
      </trkpt>
      <trkpt lat="62.624395787715912" lon="12.271705130115151">
        <ele>1075</ele>
        <time>2025-07-12T08:49:59Z</time>
      </trkpt>
      <trkpt lat="62.624516990035772" lon="12.271936386823654">
        <ele>1078</ele>
        <time>2025-07-12T08:49:45Z</time>
      </trkpt>
      <trkpt lat="62.624680688604712" lon="12.271970584988594">
        <ele>1080</ele>
        <time>2025-07-12T08:49:27Z</time>
      </trkpt>
      <trkpt lat="62.624708097428083" lon="12.272075358778238">
        <ele>1081</ele>
        <time>2025-07-12T08:49:16Z</time>
      </trkpt>
      <trkpt lat="62.624815385788679" lon="12.272249199450016">
        <ele>1084</ele>
        <time>2025-07-12T08:48:47Z</time>
      </trkpt>
      <trkpt lat="62.624832987785339" lon="12.272533429786563">
        <ele>1087</ele>
        <time>2025-07-12T08:48:28Z</time>
      </trkpt>
      <trkpt lat="62.624987969174981" lon="12.272839704528451">
        <ele>1093</ele>
        <time>2025-07-12T08:48:06Z</time>
      </trkpt>
      <trkpt lat="62.624997608363628" lon="12.273014215752482">
        <ele>1095</ele>
        <time>2025-07-12T08:47:59Z</time>
      </trkpt>
      <trkpt lat="62.625152254477143" lon="12.273774705827236">
        <ele>1106</ele>
        <time>2025-07-12T08:47:23Z</time>
      </trkpt>
      <trkpt lat="62.625392144545913" lon="12.274406366050243">
        <ele>1118</ele>
        <time>2025-07-12T08:46:20Z</time>
      </trkpt>
      <trkpt lat="62.625915091484785" lon="12.274638880044222">
        <ele>1130</ele>
        <time>2025-07-12T08:45:30Z</time>
      </trkpt>
      <trkpt lat="62.626084489747882" lon="12.274882709607482">
        <ele>1135</ele>
        <time>2025-07-12T08:45:05Z</time>
      </trkpt>
      <trkpt lat="62.626066049560905" lon="12.275132071226835">
        <ele>1136</ele>
        <time>2025-07-12T08:44:50Z</time>
      </trkpt>
      <trkpt lat="62.626097314059734" lon="12.27523148059845">
        <ele>1137</ele>
        <time>2025-07-12T08:44:42Z</time>
      </trkpt>
      <trkpt lat="62.626104271039367" lon="12.275523841381073">
        <ele>1138</ele>
        <time>2025-07-12T08:43:49Z</time>
      </trkpt>
      <trkpt lat="62.626522276550531" lon="12.277008444070816">
        <ele>1145</ele>
        <time>2025-07-12T08:42:36Z</time>
      </trkpt>
      <trkpt lat="62.626475086435676" lon="12.277369620278478">
        <ele>1145</ele>
        <time>2025-07-12T08:41:15Z</time>
      </trkpt>
      <trkpt lat="62.626482211053371" lon="12.277312790974975">
        <ele>1145</ele>
        <time>2025-07-12T08:41:03Z</time>
      </trkpt>
      <trkpt lat="62.626289930194616" lon="12.278084931895137">
        <ele>1146</ele>
        <time>2025-07-12T08:40:15Z</time>
      </trkpt>
      <trkpt lat="62.626064540818334" lon="12.278695804998279">
        <ele>1147</ele>
        <time>2025-07-12T08:39:46Z</time>
      </trkpt>
      <trkpt lat="62.626028247177601" lon="12.278910549357533">
        <ele>1147</ele>
        <time>2025-07-12T08:39:37Z</time>
      </trkpt>
      <trkpt lat="62.625177567824721" lon="12.281925184652209">
        <ele>1157</ele>
        <time>2025-07-12T08:37:26Z</time>
      </trkpt>
      <trkpt lat="62.624936420470476" lon="12.282485514879227">
        <ele>1164</ele>
        <time>2025-07-12T08:36:59Z</time>
      </trkpt>
      <trkpt lat="62.624833742156625" lon="12.282859934493899">
        <ele>1163</ele>
        <time>2025-07-12T08:36:43Z</time>
      </trkpt>
      <trkpt lat="62.624455885961652" lon="12.283961651846766">
        <ele>1168</ele>
        <time>2025-07-12T08:35:55Z</time>
      </trkpt>
      <trkpt lat="62.624295707792044" lon="12.284592976793647">
        <ele>1171</ele>
        <time>2025-07-12T08:35:09Z</time>
      </trkpt>
      <trkpt lat="62.624064786359668" lon="12.286042794585228">
        <ele>1166</ele>
        <time>2025-07-12T08:34:14Z</time>
      </trkpt>
      <trkpt lat="62.624000832438469" lon="12.28627203963697">
        <ele>1165</ele>
        <time>2025-07-12T08:34:04Z</time>
      </trkpt>
      <trkpt lat="62.623968478292227" lon="12.286721644923091">
        <ele>1162</ele>
        <time>2025-07-12T08:33:47Z</time>
      </trkpt>
      <trkpt lat="62.623753314837813" lon="12.288144892081618">
        <ele>1154</ele>
        <time>2025-07-12T08:32:53Z</time>
      </trkpt>
      <trkpt lat="62.62370964512229" lon="12.288648309186101">
        <ele>1153</ele>
        <time>2025-07-12T08:32:35Z</time>
      </trkpt>
      <trkpt lat="62.623493894934654" lon="12.289599571377039">
        <ele>1159</ele>
        <time>2025-07-12T08:31:48Z</time>
      </trkpt>
      <trkpt lat="62.623480316251516" lon="12.289581885561347">
        <ele>1160</ele>
        <time>2025-07-12T08:07:22Z</time>
      </trkpt>
      <trkpt lat="62.623528344556689" lon="12.290469696745276">
        <ele>1158</ele>
        <time>2025-07-12T08:06:48Z</time>
      </trkpt>
      <trkpt lat="62.623804612085223" lon="12.292842110618949">
        <ele>1152</ele>
        <time>2025-07-12T08:04:48Z</time>
      </trkpt>
      <trkpt lat="62.623828249052167" lon="12.293553650379181">
        <ele>1152</ele>
        <time>2025-07-12T08:04:02Z</time>
      </trkpt>
      <trkpt lat="62.623804109171033" lon="12.295164484530687">
        <ele>1151</ele>
        <time>2025-07-12T08:02:50Z</time>
      </trkpt>
      <trkpt lat="62.623780053108931" lon="12.295299014076591">
        <ele>1151</ele>
        <time>2025-07-12T08:02:42Z</time>
      </trkpt>
      <trkpt lat="62.623796314001083" lon="12.295765466988087">
        <ele>1150</ele>
        <time>2025-07-12T08:02:33Z</time>
      </trkpt>
      <trkpt lat="62.623747866600752" lon="12.29631339199841">
        <ele>1150</ele>
        <time>2025-07-12T08:02:06Z</time>
      </trkpt>
      <trkpt lat="62.623771168291569" lon="12.296298472210765">
        <ele>1149</ele>
        <time>2025-07-12T08:01:59Z</time>
      </trkpt>
      <trkpt lat="62.623773012310266" lon="12.296953853219748">
        <ele>1148</ele>
        <time>2025-07-12T08:01:25Z</time>
      </trkpt>
      <trkpt lat="62.623877953737974" lon="12.298502493649721">
        <ele>1152</ele>
        <time>2025-07-12T08:00:21Z</time>
      </trkpt>
      <trkpt lat="62.623852891847491" lon="12.299412516877055">
        <ele>1159</ele>
        <time>2025-07-12T07:59:42Z</time>
      </trkpt>
      <trkpt lat="62.623880971223116" lon="12.299925070255995">
        <ele>1160</ele>
        <time>2025-07-12T07:59:22Z</time>
      </trkpt>
      <trkpt lat="62.623838307335973" lon="12.300337376073003">
        <ele>1161</ele>
        <time>2025-07-12T07:59:06Z</time>
      </trkpt>
      <trkpt lat="62.623848281800747" lon="12.300618169829249">
        <ele>1161</ele>
        <time>2025-07-12T07:58:51Z</time>
      </trkpt>
      <trkpt lat="62.623830176889896" lon="12.300947578623891">
        <ele>1162</ele>
        <time>2025-07-12T07:58:38Z</time>
      </trkpt>
      <trkpt lat="62.623682571575046" lon="12.301789959892631">
        <ele>1160</ele>
        <time>2025-07-12T07:58:02Z</time>
      </trkpt>
      <trkpt lat="62.623300943523645" lon="12.302880445495248">
        <ele>1160</ele>
        <time>2025-07-12T07:56:58Z</time>
      </trkpt>
      <trkpt lat="62.623221063986421" lon="12.303240951150656">
        <ele>1158</ele>
        <time>2025-07-12T07:56:42Z</time>
      </trkpt>
      <trkpt lat="62.623215112835169" lon="12.303415210917592">
        <ele>1156</ele>
        <time>2025-07-12T07:56:21Z</time>
      </trkpt>
      <trkpt lat="62.622944880276918" lon="12.304114094004035">
        <ele>1154</ele>
        <time>2025-07-12T07:55:46Z</time>
      </trkpt>
      <trkpt lat="62.622906742617488" lon="12.304333699867129">
        <ele>1153</ele>
        <time>2025-07-12T07:55:37Z</time>
      </trkpt>
      <trkpt lat="62.622729130089283" lon="12.304683560505509">
        <ele>1153</ele>
        <time>2025-07-12T07:55:15Z</time>
      </trkpt>
      <trkpt lat="62.622740780934691" lon="12.304727230221033">
        <ele>1153</ele>
        <time>2025-07-12T07:55:13Z</time>
      </trkpt>
      <trkpt lat="62.622728124260902" lon="12.304720273241401">
        <ele>1153</ele>
        <time>2025-07-12T07:55:12Z</time>
      </trkpt>
      <trkpt lat="62.622740110382438" lon="12.304713735356927">
        <ele>1153</ele>
        <time>2025-07-12T07:54:51Z</time>
      </trkpt>
      <trkpt lat="62.622640449553728" lon="12.30494842864573">
        <ele>1152</ele>
        <time>2025-07-12T07:54:34Z</time>
      </trkpt>
      <trkpt lat="62.622572723776102" lon="12.305285213515162">
        <ele>1151</ele>
        <time>2025-07-12T07:54:18Z</time>
      </trkpt>
      <trkpt lat="62.622452527284622" lon="12.305665081366897">
        <ele>1149</ele>
        <time>2025-07-12T07:53:59Z</time>
      </trkpt>
      <trkpt lat="62.622321350499988" lon="12.305857697501779">
        <ele>1147</ele>
        <time>2025-07-12T07:53:43Z</time>
      </trkpt>
      <trkpt lat="62.622191682457924" lon="12.306159613654017">
        <ele>1144</ele>
        <time>2025-07-12T07:53:17Z</time>
      </trkpt>
      <trkpt lat="62.621985403820872" lon="12.306419452652335">
        <ele>1141</ele>
        <time>2025-07-12T07:52:51Z</time>
      </trkpt>
      <trkpt lat="62.621757667511702" lon="12.306596729904413">
        <ele>1139</ele>
        <time>2025-07-12T07:52:23Z</time>
      </trkpt>
      <trkpt lat="62.621696898713708" lon="12.306583905592561">
        <ele>1139</ele>
        <time>2025-07-12T07:52:16Z</time>
      </trkpt>
      <trkpt lat="62.621618779376149" lon="12.306471839547157">
        <ele>1139</ele>
        <time>2025-07-12T07:51:59Z</time>
      </trkpt>
      <trkpt lat="62.621544431895018" lon="12.306524142622948">
        <ele>1137</ele>
        <time>2025-07-12T07:51:48Z</time>
      </trkpt>
      <trkpt lat="62.621506042778492" lon="12.306485082954168">
        <ele>1137</ele>
        <time>2025-07-12T07:51:42Z</time>
      </trkpt>
      <trkpt lat="62.621371848508716" lon="12.30657460168004">
        <ele>1135</ele>
        <time>2025-07-12T07:51:20Z</time>
      </trkpt>
      <trkpt lat="62.621174538508058" lon="12.306399838998914">
        <ele>1133</ele>
        <time>2025-07-12T07:50:56Z</time>
      </trkpt>
      <trkpt lat="62.620948227122426" lon="12.306418027728796">
        <ele>1130</ele>
        <time>2025-07-12T07:50:33Z</time>
      </trkpt>
      <trkpt lat="62.620864575728774" lon="12.306255754083395">
        <ele>1131</ele>
        <time>2025-07-12T07:50:19Z</time>
      </trkpt>
      <trkpt lat="62.620586715638638" lon="12.30621007271111">
        <ele>1124</ele>
        <time>2025-07-12T07:49:22Z</time>
      </trkpt>
      <trkpt lat="62.620488060638309" lon="12.305978229269385">
        <ele>1124</ele>
        <time>2025-07-12T07:48:59Z</time>
      </trkpt>
      <trkpt lat="62.620308604091406" lon="12.305998597294092">
        <ele>1119</ele>
        <time>2025-07-12T07:48:39Z</time>
      </trkpt>
      <trkpt lat="62.620015405118465" lon="12.305738842114806">
        <ele>1112</ele>
        <time>2025-07-12T07:47:42Z</time>
      </trkpt>
      <trkpt lat="62.620023032650352" lon="12.30567061342299">
        <ele>1111</ele>
        <time>2025-07-12T07:47:23Z</time>
      </trkpt>
      <trkpt lat="62.619906775653362" lon="12.305359141901135">
        <ele>1105</ele>
        <time>2025-07-12T07:47:03Z</time>
      </trkpt>
      <trkpt lat="62.619461612775922" lon="12.304967623203993">
        <ele>1090</ele>
        <time>2025-07-12T07:45:29Z</time>
      </trkpt>
      <trkpt lat="62.619463708251715" lon="12.304781461134553">
        <ele>1090</ele>
        <time>2025-07-12T07:45:19Z</time>
      </trkpt>
      <trkpt lat="62.619285341352224" lon="12.304486753419042">
        <ele>1085</ele>
        <time>2025-07-12T07:44:40Z</time>
      </trkpt>
      <trkpt lat="62.619246281683445" lon="12.304054582491517">
        <ele>1083</ele>
        <time>2025-07-12T07:44:04Z</time>
      </trkpt>
      <trkpt lat="62.61915760114789" lon="12.30394578538835">
        <ele>1079</ele>
        <time>2025-07-12T07:43:52Z</time>
      </trkpt>
      <trkpt lat="62.619102783501148" lon="12.30366482399404">
        <ele>1076</ele>
        <time>2025-07-12T07:43:33Z</time>
      </trkpt>
      <trkpt lat="62.619050648063421" lon="12.303620064631104">
        <ele>1073</ele>
        <time>2025-07-12T07:43:26Z</time>
      </trkpt>
      <trkpt lat="62.618673462420702" lon="12.3025859054178">
        <ele>1053</ele>
        <time>2025-07-12T07:41:59Z</time>
      </trkpt>
      <trkpt lat="62.618576567620039" lon="12.302494207397103">
        <ele>1048</ele>
        <time>2025-07-12T07:41:47Z</time>
      </trkpt>
      <trkpt lat="62.618383364751935" lon="12.302692104130983">
        <ele>1040</ele>
        <time>2025-07-12T07:41:22Z</time>
      </trkpt>
      <trkpt lat="62.618372049182653" lon="12.302782461047173">
        <ele>1040</ele>
        <time>2025-07-12T07:41:18Z</time>
      </trkpt>
      <trkpt lat="62.618044149130583" lon="12.303219912573695">
        <ele>1029</ele>
        <time>2025-07-12T07:39:58Z</time>
      </trkpt>
      <trkpt lat="62.617745921015739" lon="12.303179511800408">
        <ele>1016</ele>
        <time>2025-07-12T07:39:24Z</time>
      </trkpt>
      <trkpt lat="62.617578785866499" lon="12.303389059379697">
        <ele>1010</ele>
        <time>2025-07-12T07:39:00Z</time>
      </trkpt>
      <trkpt lat="62.617372507229447" lon="12.303442368283868">
        <ele>1004</ele>
        <time>2025-07-12T07:38:16Z</time>
      </trkpt>
      <trkpt lat="62.617288269102573" lon="12.303628027439117">
        <ele>1003</ele>
        <time>2025-07-12T07:38:03Z</time>
      </trkpt>
      <trkpt lat="62.615813221782446" lon="12.303142044693232">
        <ele>971</ele>
        <time>2025-07-12T07:34:16Z</time>
      </trkpt>
      <trkpt lat="62.615503929555416" lon="12.30340632610023">
        <ele>968</ele>
        <time>2025-07-12T07:33:40Z</time>
      </trkpt>
      <trkpt lat="62.61529203504324" lon="12.303334325551987">
        <ele>965</ele>
        <time>2025-07-12T07:32:52Z</time>
      </trkpt>
      <trkpt lat="62.615421954542398" lon="12.30297046713531">
        <ele>967</ele>
        <time>2025-07-12T07:31:53Z</time>
      </trkpt>
      <trkpt lat="62.615400580689311" lon="12.302549779415131">
        <ele>966</ele>
        <time>2025-07-12T07:31:25Z</time>
      </trkpt>
      <trkpt lat="62.615292957052588" lon="12.302023898810148">
        <ele>965</ele>
        <time>2025-07-12T07:31:03Z</time>
      </trkpt>
      <trkpt lat="62.615278540179133" lon="12.301807645708323">
        <ele>965</ele>
        <time>2025-07-12T07:30:56Z</time>
      </trkpt>
      <trkpt lat="62.6149798091501" lon="12.301042126491666">
        <ele>964</ele>
        <time>2025-07-12T07:29:57Z</time>
      </trkpt>
      <trkpt lat="62.614823402836919" lon="12.30042421258986">
        <ele>963</ele>
        <time>2025-07-12T07:29:29Z</time>
      </trkpt>
      <trkpt lat="62.614816781133413" lon="12.300255903974175">
        <ele>963</ele>
        <time>2025-07-12T07:29:14Z</time>
      </trkpt>
      <trkpt lat="62.61483714915812" lon="12.300281133502722">
        <ele>963</ele>
        <time>2025-07-12T07:28:56Z</time>
      </trkpt>
      <trkpt lat="62.614801106974483" lon="12.300246516242623">
        <ele>962</ele>
        <time>2025-07-12T07:28:52Z</time>
      </trkpt>
      <trkpt lat="62.61481418274343" lon="12.300177700817585">
        <ele>963</ele>
        <time>2025-07-12T07:28:50Z</time>
      </trkpt>
      <trkpt lat="62.614736314862967" lon="12.300138641148806">
        <ele>962</ele>
        <time>2025-07-12T07:28:43Z</time>
      </trkpt>
      <trkpt lat="62.614664565771818" lon="12.299721138551831">
        <ele>960</ele>
        <time>2025-07-12T07:28:27Z</time>
      </trkpt>
      <trkpt lat="62.614598264917731" lon="12.299567330628633">
        <ele>959</ele>
        <time>2025-07-12T07:28:19Z</time>
      </trkpt>
      <trkpt lat="62.614420233294368" lon="12.298356229439378">
        <ele>953</ele>
        <time>2025-07-12T07:27:29Z</time>
      </trkpt>
      <trkpt lat="62.614327780902386" lon="12.298085493966937">
        <ele>951</ele>
        <time>2025-07-12T07:27:17Z</time>
      </trkpt>
      <trkpt lat="62.614332977682352" lon="12.297825319692492">
        <ele>951</ele>
        <time>2025-07-12T07:27:07Z</time>
      </trkpt>
      <trkpt lat="62.614266760647297" lon="12.29757159948349">
        <ele>949</ele>
        <time>2025-07-12T07:26:56Z</time>
      </trkpt>
      <trkpt lat="62.614254355430603" lon="12.297417707741261">
        <ele>949</ele>
        <time>2025-07-12T07:26:50Z</time>
      </trkpt>
      <trkpt lat="62.61421219445765" lon="12.297314610332251">
        <ele>948</ele>
        <time>2025-07-12T07:26:45Z</time>
      </trkpt>
      <trkpt lat="62.614207500591874" lon="12.297020740807056">
        <ele>948</ele>
        <time>2025-07-12T07:26:34Z</time>
      </trkpt>
      <trkpt lat="62.614135835319757" lon="12.29658312164247">
        <ele>947</ele>
        <time>2025-07-12T07:26:16Z</time>
      </trkpt>
      <trkpt lat="62.614132314920425" lon="12.296137707307935">
        <ele>947</ele>
        <time>2025-07-12T07:25:57Z</time>
      </trkpt>
      <trkpt lat="62.614068863913417" lon="12.295884490013123">
        <ele>947</ele>
        <time>2025-07-12T07:25:46Z</time>
      </trkpt>
      <trkpt lat="62.613998958840966" lon="12.295838473364711">
        <ele>947</ele>
        <time>2025-07-12T07:25:40Z</time>
      </trkpt>
      <trkpt lat="62.613997450098395" lon="12.295777201652527">
        <ele>947</ele>
        <time>2025-07-12T07:25:38Z</time>
      </trkpt>
      <trkpt lat="62.613902734592557" lon="12.295552650466561">
        <ele>946</ele>
        <time>2025-07-12T07:25:26Z</time>
      </trkpt>
      <trkpt lat="62.613811371847987" lon="12.295095166191459">
        <ele>947</ele>
        <time>2025-07-12T07:25:08Z</time>
      </trkpt>
      <trkpt lat="62.613821430131793" lon="12.294954350218177">
        <ele>947</ele>
        <time>2025-07-12T07:25:03Z</time>
      </trkpt>
      <trkpt lat="62.613748339936137" lon="12.294215150177479">
        <ele>948</ele>
        <time>2025-07-12T07:24:34Z</time>
      </trkpt>
      <trkpt lat="62.613763930276036" lon="12.293511237949133">
        <ele>950</ele>
        <time>2025-07-12T07:24:08Z</time>
      </trkpt>
      <trkpt lat="62.613744148984551" lon="12.293250812217593">
        <ele>950</ele>
        <time>2025-07-12T07:23:57Z</time>
      </trkpt>
      <trkpt lat="62.613790920004249" lon="12.292748317122459">
        <ele>951</ele>
        <time>2025-07-12T07:23:36Z</time>
      </trkpt>
      <trkpt lat="62.613785639405251" lon="12.29207064025104">
        <ele>952</ele>
        <time>2025-07-12T07:22:34Z</time>
      </trkpt>
      <trkpt lat="62.613680781796575" lon="12.291602846235037">
        <ele>952</ele>
        <time>2025-07-12T07:21:15Z</time>
      </trkpt>
      <trkpt lat="62.613699724897742" lon="12.29148231446743">
        <ele>952</ele>
        <time>2025-07-12T07:21:11Z</time>
      </trkpt>
      <trkpt lat="62.613680278882384" lon="12.291275700554252">
        <ele>953</ele>
        <time>2025-07-12T07:21:03Z</time>
      </trkpt>
      <trkpt lat="62.613584138453007" lon="12.290930869057775">
        <ele>953</ele>
        <time>2025-07-12T07:20:38Z</time>
      </trkpt>
      <trkpt lat="62.613651026040316" lon="12.29042736813426">
        <ele>956</ele>
        <time>2025-07-12T07:20:21Z</time>
      </trkpt>
      <trkpt lat="62.613650858402252" lon="12.290097707882524">
        <ele>957</ele>
        <time>2025-07-12T07:20:10Z</time>
      </trkpt>
      <trkpt lat="62.613565614446998" lon="12.289616754278541">
        <ele>961</ele>
        <time>2025-07-12T07:19:53Z</time>
      </trkpt>
      <trkpt lat="62.613473664969206" lon="12.289276951923966">
        <ele>963</ele>
        <time>2025-07-12T07:19:39Z</time>
      </trkpt>
      <trkpt lat="62.613504678010941" lon="12.288984339684248">
        <ele>967</ele>
        <time>2025-07-12T07:19:29Z</time>
      </trkpt>
      <trkpt lat="62.613499648869038" lon="12.288652751594782">
        <ele>971</ele>
        <time>2025-07-12T07:19:18Z</time>
      </trkpt>
      <trkpt lat="62.613526219502091" lon="12.288492908701301">
        <ele>973</ele>
        <time>2025-07-12T07:19:13Z</time>
      </trkpt>
      <trkpt lat="62.613511802628636" lon="12.288243714720011">
        <ele>977</ele>
        <time>2025-07-12T07:19:05Z</time>
      </trkpt>
      <trkpt lat="62.613550694659352" lon="12.287812130525708">
        <ele>984</ele>
        <time>2025-07-12T07:18:50Z</time>
      </trkpt>
      <trkpt lat="62.61351834051311" lon="12.286973269656301">
        <ele>995</ele>
        <time>2025-07-12T07:18:22Z</time>
      </trkpt>
      <trkpt lat="62.613521022722125" lon="12.28587775491178">
        <ele>1002</ele>
        <time>2025-07-12T07:17:43Z</time>
      </trkpt>
      <trkpt lat="62.613453045487404" lon="12.285291440784931">
        <ele>1003</ele>
        <time>2025-07-12T07:17:22Z</time>
      </trkpt>
      <trkpt lat="62.613504510372877" lon="12.28428234346211">
        <ele>1005</ele>
        <time>2025-07-12T07:13:46Z</time>
      </trkpt>
      <trkpt lat="62.613452123478055" lon="12.284161727875471">
        <ele>1005</ele>
        <time>2025-07-12T07:13:40Z</time>
      </trkpt>
      <trkpt lat="62.613449608907104" lon="12.283694772049785">
        <ele>1006</ele>
        <time>2025-07-12T07:13:25Z</time>
      </trkpt>
      <trkpt lat="62.613255819305778" lon="12.282480150461197">
        <ele>1007</ele>
        <time>2025-07-12T07:12:42Z</time>
      </trkpt>
      <trkpt lat="62.613238887861371" lon="12.282057702541351">
        <ele>1007</ele>
        <time>2025-07-12T07:12:27Z</time>
      </trkpt>
      <trkpt lat="62.612955830991268" lon="12.281412547454238">
        <ele>1005</ele>
        <time>2025-07-12T07:11:57Z</time>
      </trkpt>
      <trkpt lat="62.612846363335848" lon="12.28127047419548">
        <ele>1004</ele>
        <time>2025-07-12T07:11:47Z</time>
      </trkpt>
      <trkpt lat="62.612596079707146" lon="12.281132843345404">
        <ele>1002</ele>
        <time>2025-07-12T07:11:27Z</time>
      </trkpt>
      <trkpt lat="62.611900800839067" lon="12.280325414612889">
        <ele>991</ele>
        <time>2025-07-12T07:10:03Z</time>
      </trkpt>
      <trkpt lat="62.611466869711876" lon="12.280073538422585">
        <ele>984</ele>
        <time>2025-07-12T07:09:29Z</time>
      </trkpt>
      <trkpt lat="62.611416159197688" lon="12.279975134879351">
        <ele>983</ele>
        <time>2025-07-12T07:09:24Z</time>
      </trkpt>
      <trkpt lat="62.610847614705563" lon="12.279841192066669">
        <ele>972</ele>
        <time>2025-07-12T07:08:40Z</time>
      </trkpt>
      <trkpt lat="62.610593056306243" lon="12.279876479879022">
        <ele>967</ele>
        <time>2025-07-12T07:08:15Z</time>
      </trkpt>
      <trkpt lat="62.6105572655797" lon="12.279821159318089">
        <ele>966</ele>
        <time>2025-07-12T07:08:11Z</time>
      </trkpt>
      <trkpt lat="62.610404044389725" lon="12.279855273663998">
        <ele>963</ele>
        <time>2025-07-12T07:07:55Z</time>
      </trkpt>
      <trkpt lat="62.61018393561244" lon="12.279777070507407">
        <ele>960</ele>
        <time>2025-07-12T07:07:34Z</time>
      </trkpt>
      <trkpt lat="62.610119227319956" lon="12.279859632253647">
        <ele>958</ele>
        <time>2025-07-12T07:07:19Z</time>
      </trkpt>
      <trkpt lat="62.61005250737071" lon="12.27982996031642">
        <ele>957</ele>
        <time>2025-07-12T07:07:11Z</time>
      </trkpt>
      <trkpt lat="62.609797948971391" lon="12.279956107959151">
        <ele>952</ele>
        <time>2025-07-12T07:06:47Z</time>
      </trkpt>
      <trkpt lat="62.609708094969392" lon="12.279887711629272">
        <ele>951</ele>
        <time>2025-07-12T07:06:38Z</time>
      </trkpt>
      <trkpt lat="62.609383715316653" lon="12.280028527602553">
        <ele>945</ele>
        <time>2025-07-12T07:06:15Z</time>
      </trkpt>
      <trkpt lat="62.609125971794128" lon="12.279960969462991">
        <ele>941</ele>
        <time>2025-07-12T07:05:53Z</time>
      </trkpt>
      <trkpt lat="62.608935534954071" lon="12.280031209811568">
        <ele>938</ele>
        <time>2025-07-12T07:05:35Z</time>
      </trkpt>
      <trkpt lat="62.60886219330132" lon="12.279711859300733">
        <ele>938</ele>
        <time>2025-07-12T07:05:15Z</time>
      </trkpt>
      <trkpt lat="62.608693968504667" lon="12.279599793255329">
        <ele>936</ele>
        <time>2025-07-12T07:04:59Z</time>
      </trkpt>
      <trkpt lat="62.608593972399831" lon="12.27971906773746">
        <ele>934</ele>
        <time>2025-07-12T07:04:31Z</time>
      </trkpt>
      <trkpt lat="62.608321895822883" lon="12.279645055532455">
        <ele>931</ele>
        <time>2025-07-12T07:04:06Z</time>
      </trkpt>
      <trkpt lat="62.608183510601521" lon="12.279708422720432">
        <ele>930</ele>
        <time>2025-07-12T07:03:56Z</time>
      </trkpt>
      <trkpt lat="62.608046801760793" lon="12.279578167945147">
        <ele>929</ele>
        <time>2025-07-12T07:03:45Z</time>
      </trkpt>
      <trkpt lat="62.607868518680334" lon="12.279011886566877">
        <ele>928</ele>
        <time>2025-07-12T07:03:19Z</time>
      </trkpt>
      <trkpt lat="62.607640950009227" lon="12.27865582332015">
        <ele>926</ele>
        <time>2025-07-12T07:02:59Z</time>
      </trkpt>
      <trkpt lat="62.607434587553144" lon="12.278146035969257">
        <ele>925</ele>
        <time>2025-07-12T07:02:03Z</time>
      </trkpt>
      <trkpt lat="62.607375411316752" lon="12.277878234162927">
        <ele>926</ele>
        <time>2025-07-12T07:01:51Z</time>
      </trkpt>
      <trkpt lat="62.607293855398893" lon="12.277744375169277">
        <ele>926</ele>
        <time>2025-07-12T07:01:42Z</time>
      </trkpt>
      <trkpt lat="62.607169719412923" lon="12.277647145092487">
        <ele>925</ele>
        <time>2025-07-12T07:01:31Z</time>
      </trkpt>
      <trkpt lat="62.607116242870688" lon="12.277494007721543">
        <ele>925</ele>
        <time>2025-07-12T07:01:23Z</time>
      </trkpt>
      <trkpt lat="62.606983724981546" lon="12.277335589751601">
        <ele>924</ele>
        <time>2025-07-12T07:01:11Z</time>
      </trkpt>
      <trkpt lat="62.606960255652666" lon="12.277144649997354">
        <ele>924</ele>
        <time>2025-07-12T07:01:04Z</time>
      </trkpt>
      <trkpt lat="62.606240082532167" lon="12.276410646736622">
        <ele>921</ele>
        <time>2025-07-12T07:00:01Z</time>
      </trkpt>
      <trkpt lat="62.605609847232699" lon="12.275579664856195">
        <ele>919</ele>
        <time>2025-07-12T06:58:41Z</time>
      </trkpt>
      <trkpt lat="62.60499662719667" lon="12.275110697373748">
        <ele>918</ele>
        <time>2025-07-12T06:56:55Z</time>
      </trkpt>
      <trkpt lat="62.604943234473467" lon="12.274746922776103">
        <ele>918</ele>
        <time>2025-07-12T06:56:24Z</time>
      </trkpt>
      <trkpt lat="62.60474449954927" lon="12.274666121229529">
        <ele>918</ele>
        <time>2025-07-12T06:56:09Z</time>
      </trkpt>
      <trkpt lat="62.604631930589676" lon="12.274108808487654">
        <ele>919</ele>
        <time>2025-07-12T06:55:47Z</time>
      </trkpt>
      <trkpt lat="62.604451971128583" lon="12.273936057463288">
        <ele>919</ele>
        <time>2025-07-12T06:55:32Z</time>
      </trkpt>
      <trkpt lat="62.603973699733615" lon="12.273746123537421">
        <ele>919</ele>
        <time>2025-07-12T06:54:55Z</time>
      </trkpt>
      <trkpt lat="62.60379608720541" lon="12.273528864607215">
        <ele>919</ele>
        <time>2025-07-12T06:54:39Z</time>
      </trkpt>
      <trkpt lat="62.603505654260516" lon="12.273381175473332">
        <ele>920</ele>
        <time>2025-07-12T06:54:17Z</time>
      </trkpt>
      <trkpt lat="62.60332846082747" lon="12.273151595145464">
        <ele>920</ele>
        <time>2025-07-12T06:54:02Z</time>
      </trkpt>
      <trkpt lat="62.602926883846521" lon="12.272784300148487">
        <ele>920</ele>
        <time>2025-07-12T06:53:29Z</time>
      </trkpt>
      <trkpt lat="62.602810123935342" lon="12.27276929654181">
        <ele>920</ele>
        <time>2025-07-12T06:53:19Z</time>
      </trkpt>
      <trkpt lat="62.60254668071866" lon="12.272550109773874">
        <ele>920</ele>
        <time>2025-07-12T06:52:58Z</time>
      </trkpt>
      <trkpt lat="62.602452719584107" lon="12.272383142262697">
        <ele>920</ele>
        <time>2025-07-12T06:52:49Z</time>
      </trkpt>
      <trkpt lat="62.602115599438548" lon="12.272036718204618">
        <ele>920</ele>
        <time>2025-07-12T06:52:20Z</time>
      </trkpt>
      <trkpt lat="62.602065056562424" lon="12.271930519491434">
        <ele>920</ele>
        <time>2025-07-12T06:52:15Z</time>
      </trkpt>
      <trkpt lat="62.601777808740735" lon="12.271795570850372">
        <ele>920</ele>
        <time>2025-07-12T06:51:54Z</time>
      </trkpt>
      <trkpt lat="62.601751489564776" lon="12.2717060521245">
        <ele>920</ele>
        <time>2025-07-12T06:51:50Z</time>
      </trkpt>
      <trkpt lat="62.601462565362453" lon="12.27142701856792">
        <ele>920</ele>
        <time>2025-07-12T06:51:28Z</time>
      </trkpt>
      <trkpt lat="62.601259807124734" lon="12.271147230640054">
        <ele>920</ele>
        <time>2025-07-12T06:51:10Z</time>
      </trkpt>
      <trkpt lat="62.601044476032257" lon="12.271083360537887">
        <ele>920</ele>
        <time>2025-07-12T06:50:54Z</time>
      </trkpt>
      <trkpt lat="62.600797628983855" lon="12.270760238170624">
        <ele>920</ele>
        <time>2025-07-12T06:50:33Z</time>
      </trkpt>
      <trkpt lat="62.600689586251974" lon="12.270745486021042">
        <ele>920</ele>
        <time>2025-07-12T06:50:24Z</time>
      </trkpt>
      <trkpt lat="62.600326649844646" lon="12.270454885438085">
        <ele>920</ele>
        <time>2025-07-12T06:49:57Z</time>
      </trkpt>
      <trkpt lat="62.600252637639642" lon="12.270444827154279">
        <ele>920</ele>
        <time>2025-07-12T06:49:52Z</time>
      </trkpt>
      <trkpt lat="62.599969077855349" lon="12.270064959302545">
        <ele>920</ele>
        <time>2025-07-12T06:49:27Z</time>
      </trkpt>
      <trkpt lat="62.599733378738165" lon="12.269942332059145">
        <ele>921</ele>
        <time>2025-07-12T06:49:10Z</time>
      </trkpt>
      <trkpt lat="62.599666155874729" lon="12.269764132797718">
        <ele>920</ele>
        <time>2025-07-12T06:49:02Z</time>
      </trkpt>
      <trkpt lat="62.59882964193821" lon="12.268560407683253">
        <ele>920</ele>
        <time>2025-07-12T06:47:41Z</time>
      </trkpt>
      <trkpt lat="62.598843639716506" lon="12.268617153167725">
        <ele>920</ele>
        <time>2025-07-12T06:47:07Z</time>
      </trkpt>
      <trkpt lat="62.59864641353488" lon="12.268232339993119">
        <ele>920</ele>
        <time>2025-07-12T06:46:47Z</time>
      </trkpt>
      <trkpt lat="62.598590087145567" lon="12.268190095201135">
        <ele>920</ele>
        <time>2025-07-12T06:46:43Z</time>
      </trkpt>
      <trkpt lat="62.598440134897828" lon="12.267811316996813">
        <ele>919</ele>
        <time>2025-07-12T06:46:26Z</time>
      </trkpt>
      <trkpt lat="62.598298061639071" lon="12.267662957310677">
        <ele>919</ele>
        <time>2025-07-12T06:46:13Z</time>
      </trkpt>
      <trkpt lat="62.598244082182646" lon="12.267486182972789">
        <ele>918</ele>
        <time>2025-07-12T06:46:06Z</time>
      </trkpt>
      <trkpt lat="62.598066385835409" lon="12.267178148031235">
        <ele>918</ele>
        <time>2025-07-12T06:45:49Z</time>
      </trkpt>
      <trkpt lat="62.597816102206707" lon="12.266927445307374">
        <ele>917</ele>
        <time>2025-07-12T06:45:09Z</time>
      </trkpt>
      <trkpt lat="62.597559532150626" lon="12.266475409269333">
        <ele>916</ele>
        <time>2025-07-12T06:44:43Z</time>
      </trkpt>
      <trkpt lat="62.597261052578688" lon="12.26619285531342">
        <ele>915</ele>
        <time>2025-07-12T06:44:17Z</time>
      </trkpt>
      <trkpt lat="62.596926111727953" lon="12.265664208680391">
        <ele>915</ele>
        <time>2025-07-12T06:43:41Z</time>
      </trkpt>
      <trkpt lat="62.596685048192739" lon="12.265484416857362">
        <ele>914</ele>
        <time>2025-07-12T06:43:21Z</time>
      </trkpt>
      <trkpt lat="62.596239801496267" lon="12.264672797173262">
        <ele>915</ele>
        <time>2025-07-12T06:42:36Z</time>
      </trkpt>
      <trkpt lat="62.596146594733" lon="12.264576321467757">
        <ele>915</ele>
        <time>2025-07-12T06:42:29Z</time>
      </trkpt>
      <trkpt lat="62.595825400203466" lon="12.263947175815701">
        <ele>915</ele>
        <time>2025-07-12T06:41:44Z</time>
      </trkpt>
      <trkpt lat="62.595776449888945" lon="12.263731928542256">
        <ele>916</ele>
        <time>2025-07-12T06:41:36Z</time>
      </trkpt>
      <trkpt lat="62.595150154083967" lon="12.263016365468502">
        <ele>917</ele>
        <time>2025-07-12T06:34:23Z</time>
      </trkpt>
      <trkpt lat="62.59464212693274" lon="12.263335883617401">
        <ele>917</ele>
        <time>2025-07-12T06:33:44Z</time>
      </trkpt>
      <trkpt lat="62.594490498304367" lon="12.26314963772893">
        <ele>918</ele>
        <time>2025-07-12T06:33:25Z</time>
      </trkpt>
      <trkpt lat="62.594210794195533" lon="12.263118959963322">
        <ele>919</ele>
        <time>2025-07-12T06:32:45Z</time>
      </trkpt>
      <trkpt lat="62.594207776710391" lon="12.263014772906899">
        <ele>918</ele>
        <time>2025-07-12T06:32:06Z</time>
      </trkpt>
      <trkpt lat="62.594054387882352" lon="12.262876555323601">
        <ele>918</ele>
        <time>2025-07-12T06:31:48Z</time>
      </trkpt>
      <trkpt lat="62.59396294131875" lon="12.262932294979692">
        <ele>919</ele>
        <time>2025-07-12T06:31:39Z</time>
      </trkpt>
      <trkpt lat="62.593678794801235" lon="12.262628450989723">
        <ele>918</ele>
        <time>2025-07-12T06:31:09Z</time>
      </trkpt>
      <trkpt lat="62.593433624133468" lon="12.262535579502583">
        <ele>918</ele>
        <time>2025-07-12T06:30:48Z</time>
      </trkpt>
      <trkpt lat="62.593307811766863" lon="12.262555528432131">
        <ele>918</ele>
        <time>2025-07-12T06:30:39Z</time>
      </trkpt>
      <trkpt lat="62.593212677165866" lon="12.262449078261852">
        <ele>918</ele>
        <time>2025-07-12T06:30:30Z</time>
      </trkpt>
      <trkpt lat="62.59296809323132" lon="12.26244798861444">
        <ele>918</ele>
        <time>2025-07-12T06:30:08Z</time>
      </trkpt>
      <trkpt lat="62.5929104257375" lon="12.262528706341982">
        <ele>918</ele>
        <time>2025-07-12T06:30:02Z</time>
      </trkpt>
      <trkpt lat="62.592817386612296" lon="12.262491155415773">
        <ele>918</ele>
        <time>2025-07-12T06:29:55Z</time>
      </trkpt>
      <trkpt lat="62.59271202608943" lon="12.262534070760012">
        <ele>919</ele>
        <time>2025-07-12T06:29:48Z</time>
      </trkpt>
      <trkpt lat="62.592618735507131" lon="12.262321170419455">
        <ele>918</ele>
        <time>2025-07-12T06:29:38Z</time>
      </trkpt>
      <trkpt lat="62.592559223994613" lon="12.262304993346334">
        <ele>919</ele>
        <time>2025-07-12T06:29:34Z</time>
      </trkpt>
      <trkpt lat="62.592492671683431" lon="12.262022355571389">
        <ele>918</ele>
        <time>2025-07-12T06:29:21Z</time>
      </trkpt>
      <trkpt lat="62.592539694160223" lon="12.261884473264217">
        <ele>918</ele>
        <time>2025-07-12T06:29:15Z</time>
      </trkpt>
      <trkpt lat="62.592525612562895" lon="12.261809622868896">
        <ele>918</ele>
        <time>2025-07-12T06:29:12Z</time>
      </trkpt>
      <trkpt lat="62.592428214848042" lon="12.26183133199811">
        <ele>918</ele>
        <time>2025-07-12T06:29:05Z</time>
      </trkpt>
      <trkpt lat="62.592399967834353" lon="12.261622957885265">
        <ele>918</ele>
        <time>2025-07-12T06:28:58Z</time>
      </trkpt>
      <trkpt lat="62.592338193207979" lon="12.261615917086601">
        <ele>919</ele>
        <time>2025-07-12T06:28:54Z</time>
      </trkpt>
      <trkpt lat="62.592235682532191" lon="12.261479627341032">
        <ele>919</ele>
        <time>2025-07-12T06:28:45Z</time>
      </trkpt>
      <trkpt lat="62.592070307582617" lon="12.261026250198483">
        <ele>919</ele>
        <time>2025-07-12T06:28:25Z</time>
      </trkpt>
      <trkpt lat="62.592014819383621" lon="12.260959446430206">
        <ele>919</ele>
        <time>2025-07-12T06:28:21Z</time>
      </trkpt>
      <trkpt lat="62.591978358104825" lon="12.260709665715694">
        <ele>919</ele>
        <time>2025-07-12T06:28:13Z</time>
      </trkpt>
      <trkpt lat="62.59200937114656" lon="12.26058242842555">
        <ele>919</ele>
        <time>2025-07-12T06:28:08Z</time>
      </trkpt>
      <trkpt lat="62.591948183253407" lon="12.260283445939422">
        <ele>919</ele>
        <time>2025-07-12T06:27:57Z</time>
      </trkpt>
      <trkpt lat="62.591826310381293" lon="12.260222928598523">
        <ele>919</ele>
        <time>2025-07-12T06:27:48Z</time>
      </trkpt>
      <trkpt lat="62.59179194457829" lon="12.260125949978828">
        <ele>919</ele>
        <time>2025-07-12T06:27:44Z</time>
      </trkpt>
      <trkpt lat="62.591841062530875" lon="12.259588167071342">
        <ele>919</ele>
        <time>2025-07-12T06:27:26Z</time>
      </trkpt>
      <trkpt lat="62.591971987858415" lon="12.259359760209918">
        <ele>919</ele>
        <time>2025-07-12T06:27:13Z</time>
      </trkpt>
      <trkpt lat="62.591854557394981" lon="12.258349740877748">
        <ele>919</ele>
        <time>2025-07-12T06:26:31Z</time>
      </trkpt>
      <trkpt lat="62.591901328414679" lon="12.258243625983596">
        <ele>919</ele>
        <time>2025-07-12T06:26:26Z</time>
      </trkpt>
      <trkpt lat="62.591840559616685" lon="12.258160812780261">
        <ele>919</ele>
        <time>2025-07-12T06:26:20Z</time>
      </trkpt>
      <trkpt lat="62.59183787740767" lon="12.2579809371382">
        <ele>919</ele>
        <time>2025-07-12T06:26:15Z</time>
      </trkpt>
      <trkpt lat="62.591787502169609" lon="12.257722523063421">
        <ele>919</ele>
        <time>2025-07-12T06:26:06Z</time>
      </trkpt>
      <trkpt lat="62.591694630682468" lon="12.257754625752568">
        <ele>919</ele>
        <time>2025-07-12T06:26:01Z</time>
      </trkpt>
      <trkpt lat="62.591696893796325" lon="12.257433850318193">
        <ele>919</ele>
        <time>2025-07-12T06:25:51Z</time>
      </trkpt>
      <trkpt lat="62.591634364798665" lon="12.257318682968616">
        <ele>918</ele>
        <time>2025-07-12T06:25:45Z</time>
      </trkpt>
      <trkpt lat="62.591607039794326" lon="12.257179375737906">
        <ele>918</ele>
        <time>2025-07-12T06:25:40Z</time>
      </trkpt>
      <trkpt lat="62.591619528830051" lon="12.257079631090164">
        <ele>918</ele>
        <time>2025-07-12T06:25:37Z</time>
      </trkpt>
      <trkpt lat="62.591576194390655" lon="12.256946945562959">
        <ele>918</ele>
        <time>2025-07-12T06:25:32Z</time>
      </trkpt>
      <trkpt lat="62.591613242402673" lon="12.256638323888183">
        <ele>918</ele>
        <time>2025-07-12T06:25:21Z</time>
      </trkpt>
      <trkpt lat="62.59158625267446" lon="12.256524665281177">
        <ele>918</ele>
        <time>2025-07-12T06:25:16Z</time>
      </trkpt>
      <trkpt lat="62.591625144705176" lon="12.25644763559103">
        <ele>918</ele>
        <time>2025-07-12T06:25:12Z</time>
      </trkpt>
      <trkpt lat="62.591676777228713" lon="12.255877163261175">
        <ele>917</ele>
        <time>2025-07-12T06:24:54Z</time>
      </trkpt>
      <trkpt lat="62.591628413647413" lon="12.255596788600087">
        <ele>917</ele>
        <time>2025-07-12T06:24:45Z</time>
      </trkpt>
      <trkpt lat="62.591475527733564" lon="12.255284395068884">
        <ele>917</ele>
        <time>2025-07-12T06:24:27Z</time>
      </trkpt>
      <trkpt lat="62.591415848582983" lon="12.25527785718441">
        <ele>917</ele>
        <time>2025-07-12T06:24:23Z</time>
      </trkpt>
      <trkpt lat="62.591393971815705" lon="12.255037128925323">
        <ele>917</ele>
        <time>2025-07-12T06:24:15Z</time>
      </trkpt>
      <trkpt lat="62.591327084228396" lon="12.254924895241857">
        <ele>917</ele>
        <time>2025-07-12T06:24:08Z</time>
      </trkpt>
      <trkpt lat="62.591266231611371" lon="12.254625912755728">
        <ele>917</ele>
        <time>2025-07-12T06:23:58Z</time>
      </trkpt>
      <trkpt lat="62.59116942062974" lon="12.254432206973433">
        <ele>917</ele>
        <time>2025-07-12T06:23:49Z</time>
      </trkpt>
      <trkpt lat="62.590973954647779" lon="12.254262892529368">
        <ele>917</ele>
        <time>2025-07-12T06:23:33Z</time>
      </trkpt>
      <trkpt lat="62.590925674885511" lon="12.254082513973117">
        <ele>917</ele>
        <time>2025-07-12T06:23:26Z</time>
      </trkpt>
      <trkpt lat="62.590787373483181" lon="12.254063654690981">
        <ele>917</ele>
        <time>2025-07-12T06:23:15Z</time>
      </trkpt>
      <trkpt lat="62.590760970488191" lon="12.253743717446923">
        <ele>917</ele>
        <time>2025-07-12T06:23:02Z</time>
      </trkpt>
      <trkpt lat="62.590777482837439" lon="12.253494439646602">
        <ele>917</ele>
        <time>2025-07-12T06:22:54Z</time>
      </trkpt>
      <trkpt lat="62.590670613572001" lon="12.253400394693017">
        <ele>917</ele>
        <time>2025-07-12T06:22:45Z</time>
      </trkpt>
      <trkpt lat="62.590421587228775" lon="12.252707714214921">
        <ele>917</ele>
        <time>2025-07-12T06:22:15Z</time>
      </trkpt>
      <trkpt lat="62.590122856199741" lon="12.252461286261678">
        <ele>918</ele>
        <time>2025-07-12T06:21:53Z</time>
      </trkpt>
      <trkpt lat="62.590043228119612" lon="12.252323320135474">
        <ele>918</ele>
        <time>2025-07-12T06:21:45Z</time>
      </trkpt>
      <trkpt lat="62.590048173442483" lon="12.252090303227305">
        <ele>918</ele>
        <time>2025-07-12T06:21:37Z</time>
      </trkpt>
      <trkpt lat="62.590011544525623" lon="12.251703226938844">
        <ele>918</ele>
        <time>2025-07-12T06:21:23Z</time>
      </trkpt>
      <trkpt lat="62.590059069916606" lon="12.251632483676076">
        <ele>918</ele>
        <time>2025-07-12T06:21:19Z</time>
      </trkpt>
      <trkpt lat="62.59003727696836" lon="12.251397622749209">
        <ele>918</ele>
        <time>2025-07-12T06:21:11Z</time>
      </trkpt>
      <trkpt lat="62.589981788769364" lon="12.251360323280096">
        <ele>918</ele>
        <time>2025-07-12T06:21:07Z</time>
      </trkpt>
      <trkpt lat="62.589936358854175" lon="12.251185895875096">
        <ele>918</ele>
        <time>2025-07-12T06:21:00Z</time>
      </trkpt>
      <trkpt lat="62.58960435166955" lon="12.250794628635049">
        <ele>919</ele>
        <time>2025-07-12T06:20:29Z</time>
      </trkpt>
      <trkpt lat="62.58954182267189" lon="12.250518780201674">
        <ele>919</ele>
        <time>2025-07-12T06:20:17Z</time>
      </trkpt>
      <trkpt lat="62.589393043890595" lon="12.250128770247102">
        <ele>919</ele>
        <time>2025-07-12T06:19:52Z</time>
      </trkpt>
      <trkpt lat="62.589391954243183" lon="12.249750830233097">
        <ele>920</ele>
        <time>2025-07-12T06:19:38Z</time>
      </trkpt>
      <trkpt lat="62.589031783863902" lon="12.249026885256171">
        <ele>920</ele>
        <time>2025-07-12T06:18:57Z</time>
      </trkpt>
      <trkpt lat="62.58894712664187" lon="12.248361948877573">
        <ele>919</ele>
        <time>2025-07-12T06:18:31Z</time>
      </trkpt>
      <trkpt lat="62.588886860758066" lon="12.248278381302953">
        <ele>919</ele>
        <time>2025-07-12T06:18:26Z</time>
      </trkpt>
      <trkpt lat="62.588818883523345" lon="12.2480065561831">
        <ele>918</ele>
        <time>2025-07-12T06:18:15Z</time>
      </trkpt>
      <trkpt lat="62.588866241276264" lon="12.247796086594462">
        <ele>918</ele>
        <time>2025-07-12T06:18:05Z</time>
      </trkpt>
      <trkpt lat="62.588865822181106" lon="12.247475227341056">
        <ele>917</ele>
        <time>2025-07-12T06:17:52Z</time>
      </trkpt>
      <trkpt lat="62.588726850226521" lon="12.24725553765893">
        <ele>917</ele>
        <time>2025-07-12T06:17:41Z</time>
      </trkpt>
      <trkpt lat="62.58865593932569" lon="12.24726090207696">
        <ele>917</ele>
        <time>2025-07-12T06:17:37Z</time>
      </trkpt>
      <trkpt lat="62.588643785566092" lon="12.246944736689329">
        <ele>916</ele>
        <time>2025-07-12T06:17:26Z</time>
      </trkpt>
      <trkpt lat="62.588672200217843" lon="12.246544500812888">
        <ele>916</ele>
        <time>2025-07-12T06:17:12Z</time>
      </trkpt>
      <trkpt lat="62.588476398959756" lon="12.246184749528766">
        <ele>916</ele>
        <time>2025-07-12T06:16:54Z</time>
      </trkpt>
      <trkpt lat="62.588239526376128" lon="12.246074946597219">
        <ele>917</ele>
        <time>2025-07-12T06:16:34Z</time>
      </trkpt>
      <trkpt lat="62.588064596056938" lon="12.246275525540113">
        <ele>917</ele>
        <time>2025-07-12T06:16:17Z</time>
      </trkpt>
      <trkpt lat="62.587880278006196" lon="12.246269574388862">
        <ele>917</ele>
        <time>2025-07-12T06:16:05Z</time>
      </trkpt>
      <trkpt lat="62.587802410125732" lon="12.246120795607567">
        <ele>918</ele>
        <time>2025-07-12T06:15:58Z</time>
      </trkpt>
      <trkpt lat="62.587668970227242" lon="12.245622575283051">
        <ele>918</ele>
        <time>2025-07-12T06:15:39Z</time>
      </trkpt>
      <trkpt lat="62.58757458999753" lon="12.245098454877734">
        <ele>918</ele>
        <time>2025-07-12T06:15:20Z</time>
      </trkpt>
      <trkpt lat="62.587562017142773" lon="12.244780277833343">
        <ele>918</ele>
        <time>2025-07-12T06:15:10Z</time>
      </trkpt>
      <trkpt lat="62.587487669661641" lon="12.244582967832685">
        <ele>918</ele>
        <time>2025-07-12T06:15:02Z</time>
      </trkpt>
      <trkpt lat="62.587479371577501" lon="12.244435446336865">
        <ele>918</ele>
        <time>2025-07-12T06:14:58Z</time>
      </trkpt>
      <trkpt lat="62.587392199784517" lon="12.244096314534545">
        <ele>918</ele>
        <time>2025-07-12T06:14:45Z</time>
      </trkpt>
      <trkpt lat="62.587404521182179" lon="12.2439328674227">
        <ele>918</ele>
        <time>2025-07-12T06:14:39Z</time>
      </trkpt>
      <trkpt lat="62.587367808446288" lon="12.243622234091163">
        <ele>918</ele>
        <time>2025-07-12T06:14:28Z</time>
      </trkpt>
      <trkpt lat="62.587388847023249" lon="12.243447303771973">
        <ele>918</ele>
        <time>2025-07-12T06:14:23Z</time>
      </trkpt>
      <trkpt lat="62.587355319410563" lon="12.243092665448785">
        <ele>918</ele>
        <time>2025-07-12T06:14:12Z</time>
      </trkpt>
      <trkpt lat="62.587223639711738" lon="12.242773985490203">
        <ele>918</ele>
        <time>2025-07-12T06:13:58Z</time>
      </trkpt>
      <trkpt lat="62.586882077157497" lon="12.242749929428101">
        <ele>919</ele>
        <time>2025-07-12T06:13:34Z</time>
      </trkpt>
      <trkpt lat="62.586318142712116" lon="12.242444744333625">
        <ele>918</ele>
        <time>2025-07-12T06:12:52Z</time>
      </trkpt>
      <trkpt lat="62.586250668391585" lon="12.24235413596034">
        <ele>918</ele>
        <time>2025-07-12T06:12:46Z</time>
      </trkpt>
      <trkpt lat="62.585177700966597" lon="12.239986164495349">
        <ele>925</ele>
        <time>2025-07-12T06:10:48Z</time>
      </trkpt>
      <trkpt lat="62.585014924407005" lon="12.239298513159156">
        <ele>926</ele>
        <time>2025-07-12T06:10:23Z</time>
      </trkpt>
      <trkpt lat="62.585021965205669" lon="12.239090977236629">
        <ele>926</ele>
        <time>2025-07-12T06:10:17Z</time>
      </trkpt>
      <trkpt lat="62.584903528913856" lon="12.238975977525115">
        <ele>927</ele>
        <time>2025-07-12T06:10:08Z</time>
      </trkpt>
      <trkpt lat="62.584623070433736" lon="12.23888193257153">
        <ele>930</ele>
        <time>2025-07-12T06:09:49Z</time>
      </trkpt>
      <trkpt lat="62.584470938891172" lon="12.238484797999263">
        <ele>932</ele>
        <time>2025-07-12T06:09:30Z</time>
      </trkpt>
      <trkpt lat="62.584307156503201" lon="12.238351861014962">
        <ele>934</ele>
        <time>2025-07-12T06:09:19Z</time>
      </trkpt>
      <trkpt lat="62.584134321659803" lon="12.238002670928836">
        <ele>935</ele>
        <time>2025-07-12T06:09:01Z</time>
      </trkpt>
      <trkpt lat="62.583802817389369" lon="12.237036321312189">
        <ele>937</ele>
        <time>2025-07-12T06:08:22Z</time>
      </trkpt>
      <trkpt lat="62.583630820736289" lon="12.236694423481822">
        <ele>939</ele>
        <time>2025-07-12T06:08:05Z</time>
      </trkpt>
      <trkpt lat="62.582866307348013" lon="12.236046502366662">
        <ele>948</ele>
        <time>2025-07-12T06:06:48Z</time>
      </trkpt>
      <trkpt lat="62.582446038722992" lon="12.235368574038148">
        <ele>952</ele>
        <time>2025-07-12T06:04:21Z</time>
      </trkpt>
      <trkpt lat="62.582317879423499" lon="12.235305793583393">
        <ele>953</ele>
        <time>2025-07-12T06:04:10Z</time>
      </trkpt>
      <trkpt lat="62.581959133967757" lon="12.235512658953667">
        <ele>956</ele>
        <time>2025-07-12T06:03:42Z</time>
      </trkpt>
      <trkpt lat="62.582108499482274" lon="12.234796425327659">
        <ele>954</ele>
        <time>2025-07-12T06:03:10Z</time>
      </trkpt>
      <trkpt lat="62.582191061228514" lon="12.234617304056883">
        <ele>952</ele>
        <time>2025-07-12T06:03:01Z</time>
      </trkpt>
      <trkpt lat="62.582240933552384" lon="12.234293762594461">
        <ele>951</ele>
        <time>2025-07-12T06:02:48Z</time>
      </trkpt>
      <trkpt lat="62.582261636853218" lon="12.233934011310339">
        <ele>950</ele>
        <time>2025-07-12T06:02:35Z</time>
      </trkpt>
      <trkpt lat="62.582419887185097" lon="12.233512904495001">
        <ele>947</ele>
        <time>2025-07-12T06:02:15Z</time>
      </trkpt>
      <trkpt lat="62.582589536905289" lon="12.233259519562125">
        <ele>945</ele>
        <time>2025-07-12T06:02:00Z</time>
      </trkpt>
      <trkpt lat="62.582621974870563" lon="12.233092300593853">
        <ele>944</ele>
        <time>2025-07-12T06:01:54Z</time>
      </trkpt>
      <trkpt lat="62.58263505063951" lon="12.232652502134442">
        <ele>943</ele>
        <time>2025-07-12T06:01:40Z</time>
      </trkpt>
      <trkpt lat="62.582667237147689" lon="12.23255611024797">
        <ele>943</ele>
        <time>2025-07-12T06:01:36Z</time>
      </trkpt>
      <trkpt lat="62.582679055631161" lon="12.232373803853989">
        <ele>942</ele>
        <time>2025-07-12T06:01:30Z</time>
      </trkpt>
      <trkpt lat="62.582855829969049" lon="12.231866614893079">
        <ele>939</ele>
        <time>2025-07-12T06:01:10Z</time>
      </trkpt>
      <trkpt lat="62.583007458597422" lon="12.231128755956888">
        <ele>937</ele>
        <time>2025-07-12T06:00:45Z</time>
      </trkpt>
      <trkpt lat="62.583179036155343" lon="12.230643779039383">
        <ele>935</ele>
        <time>2025-07-12T06:00:23Z</time>
      </trkpt>
      <trkpt lat="62.583118351176381" lon="12.229636274278164">
        <ele>934</ele>
        <time>2025-07-12T05:59:47Z</time>
      </trkpt>
      <trkpt lat="62.58312564343214" lon="12.229386745020747">
        <ele>933</ele>
        <time>2025-07-12T05:59:37Z</time>
      </trkpt>
      <trkpt lat="62.583152884617448" lon="12.229286162182689">
        <ele>933</ele>
        <time>2025-07-12T05:59:33Z</time>
      </trkpt>
      <trkpt lat="62.583134695887566" lon="12.229154733940959">
        <ele>933</ele>
        <time>2025-07-12T05:59:29Z</time>
      </trkpt>
      <trkpt lat="62.583181718364358" lon="12.228310341015458">
        <ele>930</ele>
        <time>2025-07-12T05:59:02Z</time>
      </trkpt>
      <trkpt lat="62.583177359774709" lon="12.228027116507292">
        <ele>929</ele>
        <time>2025-07-12T05:58:53Z</time>
      </trkpt>
      <trkpt lat="62.583343237638474" lon="12.227220861241221">
        <ele>925</ele>
        <time>2025-07-12T05:58:20Z</time>
      </trkpt>
      <trkpt lat="62.583381123840809" lon="12.226843256503344">
        <ele>924</ele>
        <time>2025-07-12T05:58:08Z</time>
      </trkpt>
      <trkpt lat="62.583545241504908" lon="12.226343443617225">
        <ele>923</ele>
        <time>2025-07-12T05:57:48Z</time>
      </trkpt>
      <trkpt lat="62.583829471841455" lon="12.226148396730423">
        <ele>920</ele>
        <time>2025-07-12T05:57:28Z</time>
      </trkpt>
      <trkpt lat="62.583924019709229" lon="12.225449178367853">
        <ele>920</ele>
        <time>2025-07-12T05:57:05Z</time>
      </trkpt>
      <trkpt lat="62.584111522883177" lon="12.224545860663056">
        <ele>921</ele>
        <time>2025-07-12T05:56:34Z</time>
      </trkpt>
      <trkpt lat="62.584268348291516" lon="12.224121484905481">
        <ele>921</ele>
        <time>2025-07-12T05:56:17Z</time>
      </trkpt>
      <trkpt lat="62.584646539762616" lon="12.223516814410686">
        <ele>915</ele>
        <time>2025-07-12T05:55:43Z</time>
      </trkpt>
      <trkpt lat="62.584839658811688" lon="12.22311875782907">
        <ele>913</ele>
        <time>2025-07-12T05:55:23Z</time>
      </trkpt>
      <trkpt lat="62.585360258817673" lon="12.22118966281414">
        <ele>901</ele>
        <time>2025-07-12T05:54:12Z</time>
      </trkpt>
      <trkpt lat="62.585499063134193" lon="12.219968335703015">
        <ele>895</ele>
        <time>2025-07-12T05:53:30Z</time>
      </trkpt>
      <trkpt lat="62.585501074790955" lon="12.219473132863641">
        <ele>892</ele>
        <time>2025-07-12T05:53:11Z</time>
      </trkpt>
      <trkpt lat="62.585405604913831" lon="12.219085302203894">
        <ele>890</ele>
        <time>2025-07-12T05:52:55Z</time>
      </trkpt>
      <trkpt lat="62.585210390388966" lon="12.21869763918221">
        <ele>888</ele>
        <time>2025-07-12T05:52:37Z</time>
      </trkpt>
      <trkpt lat="62.585353134199977" lon="12.218420952558517">
        <ele>885</ele>
        <time>2025-07-12T05:52:25Z</time>
      </trkpt>
      <trkpt lat="62.585482215508819" lon="12.218346018344164">
        <ele>883</ele>
        <time>2025-07-12T05:52:15Z</time>
      </trkpt>
      <trkpt lat="62.585529740899801" lon="12.218255577608943">
        <ele>882</ele>
        <time>2025-07-12T05:52:11Z</time>
      </trkpt>
      <trkpt lat="62.585564525797963" lon="12.218025075271726">
        <ele>879</ele>
        <time>2025-07-12T05:52:03Z</time>
      </trkpt>
      <trkpt lat="62.585726883262396" lon="12.217681584879756">
        <ele>873</ele>
        <time>2025-07-12T05:51:45Z</time>
      </trkpt>
      <trkpt lat="62.585799722000957" lon="12.217186046764255">
        <ele>867</ele>
        <time>2025-07-12T05:51:28Z</time>
      </trkpt>
      <trkpt lat="62.586041456088424" lon="12.216700650751591">
        <ele>859</ele>
        <time>2025-07-12T05:50:36Z</time>
      </trkpt>
      <trkpt lat="62.586317555978894" lon="12.215726422145963">
        <ele>847</ele>
        <time>2025-07-12T05:50:02Z</time>
      </trkpt>
      <trkpt lat="62.58636818267405" lon="12.21534663811326">
        <ele>845</ele>
        <time>2025-07-12T05:49:48Z</time>
      </trkpt>
      <trkpt lat="62.586362902075052" lon="12.215033071115613">
        <ele>842</ele>
        <time>2025-07-12T05:49:39Z</time>
      </trkpt>
      <trkpt lat="62.586336247622967" lon="12.214873228222132">
        <ele>842</ele>
        <time>2025-07-12T05:49:33Z</time>
      </trkpt>
      <trkpt lat="62.586323339492083" lon="12.21486534923315">
        <ele>842</ele>
        <time>2025-07-12T05:48:51Z</time>
      </trkpt>
      <trkpt lat="62.586346725001931" lon="12.214647922664881">
        <ele>841</ele>
        <time>2025-07-12T05:48:44Z</time>
      </trkpt>
      <trkpt lat="62.586543699726462" lon="12.214212147518992">
        <ele>840</ele>
        <time>2025-07-12T05:48:23Z</time>
      </trkpt>
      <trkpt lat="62.586595416069031" lon="12.213845020160079">
        <ele>839</ele>
        <time>2025-07-12T05:48:13Z</time>
      </trkpt>
      <trkpt lat="62.586798928678036" lon="12.213370939716697">
        <ele>839</ele>
        <time>2025-07-12T05:47:53Z</time>
      </trkpt>
      <trkpt lat="62.586932368576527" lon="12.213178910315037">
        <ele>840</ele>
        <time>2025-07-12T05:47:42Z</time>
      </trkpt>
      <trkpt lat="62.587459338828921" lon="12.213085368275642">
        <ele>842</ele>
        <time>2025-07-12T05:46:56Z</time>
      </trkpt>
      <trkpt lat="62.58764885365963" lon="12.212739614769816">
        <ele>843</ele>
        <time>2025-07-12T05:46:39Z</time>
      </trkpt>
      <trkpt lat="62.587841134518385" lon="12.212639199569821">
        <ele>844</ele>
        <time>2025-07-12T05:46:27Z</time>
      </trkpt>
      <trkpt lat="62.588054956868291" lon="12.212726622819901">
        <ele>845</ele>
        <time>2025-07-12T05:46:13Z</time>
      </trkpt>
      <trkpt lat="62.588487630710006" lon="12.212697369977832">
        <ele>848</ele>
        <time>2025-07-12T05:45:46Z</time>
      </trkpt>
      <trkpt lat="62.589047290384769" lon="12.2121377941221">
        <ele>853</ele>
        <time>2025-07-12T05:45:01Z</time>
      </trkpt>
      <trkpt lat="62.589471247047186" lon="12.212245836853981">
        <ele>856</ele>
        <time>2025-07-12T05:44:21Z</time>
      </trkpt>
      <trkpt lat="62.589616924524307" lon="12.212156569585204">
        <ele>858</ele>
        <time>2025-07-12T05:44:11Z</time>
      </trkpt>
      <trkpt lat="62.589766206219792" lon="12.212196467444301">
        <ele>859</ele>
        <time>2025-07-12T05:44:01Z</time>
      </trkpt>
      <trkpt lat="62.589930659160018" lon="12.212461503222585">
        <ele>861</ele>
        <time>2025-07-12T05:43:46Z</time>
      </trkpt>
      <trkpt lat="62.590151187032461" lon="12.21247005276382">
        <ele>863</ele>
        <time>2025-07-12T05:43:32Z</time>
      </trkpt>
      <trkpt lat="62.590272054076195" lon="12.212575664743781">
        <ele>864</ele>
        <time>2025-07-12T05:43:23Z</time>
      </trkpt>
      <trkpt lat="62.590538263320923" lon="12.212454127147794">
        <ele>867</ele>
        <time>2025-07-12T05:43:05Z</time>
      </trkpt>
      <trkpt lat="62.590842023491859" lon="12.212105775251985">
        <ele>869</ele>
        <time>2025-07-12T05:42:40Z</time>
      </trkpt>
      <trkpt lat="62.590948306024075" lon="12.212200239300728">
        <ele>870</ele>
        <time>2025-07-12T05:42:32Z</time>
      </trkpt>
      <trkpt lat="62.591437138617039" lon="12.211323659867048">
        <ele>875</ele>
        <time>2025-07-12T05:41:48Z</time>
      </trkpt>
      <trkpt lat="62.591539565473795" lon="12.211306393146515">
        <ele>876</ele>
        <time>2025-07-12T05:41:41Z</time>
      </trkpt>
      <trkpt lat="62.591778784990311" lon="12.2109445463866">
        <ele>878</ele>
        <time>2025-07-12T05:41:22Z</time>
      </trkpt>
      <trkpt lat="62.592093106359243" lon="12.211041608825326">
        <ele>881</ele>
        <time>2025-07-12T05:41:00Z</time>
      </trkpt>
      <trkpt lat="62.592331068590283" lon="12.210691496729851">
        <ele>883</ele>
        <time>2025-07-12T05:40:40Z</time>
      </trkpt>
      <trkpt lat="62.592440871521831" lon="12.210215236991644">
        <ele>884</ele>
        <time>2025-07-12T05:40:25Z</time>
      </trkpt>
      <trkpt lat="62.592481859028339" lon="12.210160167887807">
        <ele>884</ele>
        <time>2025-07-12T05:40:22Z</time>
      </trkpt>
      <trkpt lat="62.592480853199959" lon="12.210036283358932">
        <ele>884</ele>
        <time>2025-07-12T05:40:18Z</time>
      </trkpt>
      <trkpt lat="62.592716300860047" lon="12.209230614826083">
        <ele>886</ele>
        <time>2025-07-12T05:39:47Z</time>
      </trkpt>
      <trkpt lat="62.592837754637003" lon="12.209129529073834">
        <ele>887</ele>
        <time>2025-07-12T05:39:38Z</time>
      </trkpt>
      <trkpt lat="62.592999022454023" lon="12.209132965654135">
        <ele>888</ele>
        <time>2025-07-12T05:39:28Z</time>
      </trkpt>
      <trkpt lat="62.593275876715779" lon="12.2089240886271">
        <ele>890</ele>
        <time>2025-07-12T05:39:08Z</time>
      </trkpt>
      <trkpt lat="62.593377130106091" lon="12.208994915708899">
        <ele>891</ele>
        <time>2025-07-12T05:39:01Z</time>
      </trkpt>
      <trkpt lat="62.593509815633297" lon="12.20897639170289">
        <ele>892</ele>
        <time>2025-07-12T05:38:52Z</time>
      </trkpt>
      <trkpt lat="62.593596065416932" lon="12.208886370062828">
        <ele>892</ele>
        <time>2025-07-12T05:38:45Z</time>
      </trkpt>
      <trkpt lat="62.593728415668011" lon="12.208270048722625">
        <ele>894</ele>
        <time>2025-07-12T05:38:23Z</time>
      </trkpt>
      <trkpt lat="62.593787927180529" lon="12.208116492256522">
        <ele>895</ele>
        <time>2025-07-12T05:38:17Z</time>
      </trkpt>
      <trkpt lat="62.594070145860314" lon="12.207957739010453">
        <ele>897</ele>
        <time>2025-07-12T05:37:57Z</time>
      </trkpt>
      <trkpt lat="62.594175674021244" lon="12.207761267200112">
        <ele>898</ele>
        <time>2025-07-12T05:37:48Z</time>
      </trkpt>
      <trkpt lat="62.594378432258964" lon="12.207713322713971">
        <ele>898</ele>
        <time>2025-07-12T05:37:34Z</time>
      </trkpt>
      <trkpt lat="62.594561157748103" lon="12.207809798419476">
        <ele>898</ele>
        <time>2025-07-12T05:37:20Z</time>
      </trkpt>
      <trkpt lat="62.594860978424549" lon="12.207326916977763">
        <ele>900</ele>
        <time>2025-07-12T05:36:56Z</time>
      </trkpt>
      <trkpt lat="62.595121152698994" lon="12.207027934491634">
        <ele>900</ele>
        <time>2025-07-12T05:36:34Z</time>
      </trkpt>
      <trkpt lat="62.595435390248895" lon="12.20676289871335">
        <ele>900</ele>
        <time>2025-07-12T05:36:11Z</time>
      </trkpt>
      <trkpt lat="62.59571710601449" lon="12.20636609941721">
        <ele>901</ele>
        <time>2025-07-12T05:35:48Z</time>
      </trkpt>
      <trkpt lat="62.596198562532663" lon="12.206197790801525">
        <ele>901</ele>
        <time>2025-07-12T05:35:15Z</time>
      </trkpt>
      <trkpt lat="62.596415402367711" lon="12.205793196335435">
        <ele>901</ele>
        <time>2025-07-12T05:34:56Z</time>
      </trkpt>
      <trkpt lat="62.596540292724967" lon="12.205819012597203">
        <ele>901</ele>
        <time>2025-07-12T05:34:48Z</time>
      </trkpt>
      <trkpt lat="62.596739698201418" lon="12.205571914091706">
        <ele>901</ele>
        <time>2025-07-12T05:34:30Z</time>
      </trkpt>
      <trkpt lat="62.596879340708256" lon="12.205184502527118">
        <ele>901</ele>
        <time>2025-07-12T05:34:12Z</time>
      </trkpt>
      <trkpt lat="62.596914628520608" lon="12.20493832603097">
        <ele>901</ele>
        <time>2025-07-12T05:34:04Z</time>
      </trkpt>
      <trkpt lat="62.597016636282206" lon="12.204814944416285">
        <ele>901</ele>
        <time>2025-07-12T05:33:56Z</time>
      </trkpt>
      <trkpt lat="62.597242360934615" lon="12.204880574718118">
        <ele>902</ele>
        <time>2025-07-12T05:33:40Z</time>
      </trkpt>
      <trkpt lat="62.597338333725929" lon="12.204725928604603">
        <ele>902</ele>
        <time>2025-07-12T05:33:32Z</time>
      </trkpt>
      <trkpt lat="62.597216125577688" lon="12.204330135136843">
        <ele>901</ele>
        <time>2025-07-12T05:33:17Z</time>
      </trkpt>
      <trkpt lat="62.597361467778683" lon="12.203934928402305">
        <ele>902</ele>
        <time>2025-07-12T05:33:02Z</time>
      </trkpt>
      <trkpt lat="62.59749080054462" lon="12.203969713300467">
        <ele>902</ele>
        <time>2025-07-12T05:32:53Z</time>
      </trkpt>
      <trkpt lat="62.597565734758973" lon="12.204146403819323">
        <ele>902</ele>
        <time>2025-07-12T05:32:44Z</time>
      </trkpt>
      <trkpt lat="62.597663719207048" lon="12.204171381890774">
        <ele>903</ele>
        <time>2025-07-12T05:32:37Z</time>
      </trkpt>
      <trkpt lat="62.597724655643106" lon="12.204288560897112">
        <ele>903</ele>
        <time>2025-07-12T05:32:32Z</time>
      </trkpt>
      <trkpt lat="62.597920708358288" lon="12.204203400760889">
        <ele>904</ele>
        <time>2025-07-12T05:32:17Z</time>
      </trkpt>
      <trkpt lat="62.598004443570971" lon="12.20428311266005">
        <ele>904</ele>
        <time>2025-07-12T05:32:11Z</time>
      </trkpt>
      <trkpt lat="62.598091028630733" lon="12.204230558127165">
        <ele>904</ele>
        <time>2025-07-12T05:32:04Z</time>
      </trkpt>
      <trkpt lat="62.598166046664119" lon="12.203970551490784">
        <ele>905</ele>
        <time>2025-07-12T05:31:53Z</time>
      </trkpt>
      <trkpt lat="62.59832002222538" lon="12.203687746077776">
        <ele>905</ele>
        <time>2025-07-12T05:31:38Z</time>
      </trkpt>
      <trkpt lat="62.598601654171944" lon="12.203367725014687">
        <ele>906</ele>
        <time>2025-07-12T05:31:17Z</time>
      </trkpt>
      <trkpt lat="62.598713133484125" lon="12.203042590990663">
        <ele>906</ele>
        <time>2025-07-12T05:31:05Z</time>
      </trkpt>
      <trkpt lat="62.598849926143885" lon="12.20292029902339">
        <ele>906</ele>
        <time>2025-07-12T05:30:56Z</time>
      </trkpt>
      <trkpt lat="62.599018486216664" lon="12.202927088364959">
        <ele>907</ele>
        <time>2025-07-12T05:30:43Z</time>
      </trkpt>
      <trkpt lat="62.599207749590278" lon="12.203124398365617">
        <ele>908</ele>
        <time>2025-07-12T05:30:30Z</time>
      </trkpt>
      <trkpt lat="62.599276062101126" lon="12.203115094453096">
        <ele>908</ele>
        <time>2025-07-12T05:30:25Z</time>
      </trkpt>
      <trkpt lat="62.599322916939855" lon="12.202991964295506">
        <ele>908</ele>
        <time>2025-07-12T05:30:20Z</time>
      </trkpt>
      <trkpt lat="62.599307913333178" lon="12.202833127230406">
        <ele>908</ele>
        <time>2025-07-12T05:30:14Z</time>
      </trkpt>
      <trkpt lat="62.599345715716481" lon="12.202434567734599">
        <ele>907</ele>
        <time>2025-07-12T05:30:01Z</time>
      </trkpt>
      <trkpt lat="62.599583426490426" lon="12.202148493379354">
        <ele>908</ele>
        <time>2025-07-12T05:29:42Z</time>
      </trkpt>
      <trkpt lat="62.59965643286705" lon="12.201892174780369">
        <ele>907</ele>
        <time>2025-07-12T05:29:32Z</time>
      </trkpt>
      <trkpt lat="62.599831447005272" lon="12.20162395387888">
        <ele>908</ele>
        <time>2025-07-12T05:29:09Z</time>
      </trkpt>
      <trkpt lat="62.599996402859688" lon="12.201593024656177">
        <ele>908</ele>
        <time>2025-07-12T05:28:59Z</time>
      </trkpt>
      <trkpt lat="62.600057255476713" lon="12.201652703806758">
        <ele>909</ele>
        <time>2025-07-12T05:28:54Z</time>
      </trkpt>
      <trkpt lat="62.600260181352496" lon="12.201410885900259">
        <ele>909</ele>
        <time>2025-07-12T05:28:36Z</time>
      </trkpt>
      <trkpt lat="62.60041382163763" lon="12.201076280325651">
        <ele>909</ele>
        <time>2025-07-12T05:28:21Z</time>
      </trkpt>
      <trkpt lat="62.600414240732789" lon="12.20071610994637">
        <ele>908</ele>
        <time>2025-07-12T05:28:08Z</time>
      </trkpt>
      <trkpt lat="62.60034735314548" lon="12.200523996725678">
        <ele>907</ele>
        <time>2025-07-12T05:28:00Z</time>
      </trkpt>
      <trkpt lat="62.600171668455005" lon="12.200273042544723">
        <ele>906</ele>
        <time>2025-07-12T05:27:44Z</time>
      </trkpt>
      <trkpt lat="62.600069493055344" lon="12.199943382292986">
        <ele>905</ele>
        <time>2025-07-12T05:27:31Z</time>
      </trkpt>
      <trkpt lat="62.599931778386235" lon="12.199838943779469">
        <ele>904</ele>
        <time>2025-07-12T05:27:21Z</time>
      </trkpt>
      <trkpt lat="62.599747376516461" lon="12.199848666787148">
        <ele>903</ele>
        <time>2025-07-12T05:27:06Z</time>
      </trkpt>
      <trkpt lat="62.599705969914794" lon="12.199592851102352">
        <ele>902</ele>
        <time>2025-07-12T05:26:56Z</time>
      </trkpt>
      <trkpt lat="62.599646458402276" lon="12.199524706229568">
        <ele>902</ele>
        <time>2025-07-12T05:26:52Z</time>
      </trkpt>
      <trkpt lat="62.599615948274732" lon="12.199391853064299">
        <ele>901</ele>
        <time>2025-07-12T05:26:47Z</time>
      </trkpt>
      <trkpt lat="62.599488962441683" lon="12.199256904423237">
        <ele>900</ele>
        <time>2025-07-12T05:26:37Z</time>
      </trkpt>
      <trkpt lat="62.599302632734179" lon="12.198824565857649">
        <ele>898</ele>
        <time>2025-07-12T05:26:17Z</time>
      </trkpt>
      <trkpt lat="62.599235326051712" lon="12.198760947212577">
        <ele>897</ele>
        <time>2025-07-12T05:26:12Z</time>
      </trkpt>
      <trkpt lat="62.599166426807642" lon="12.198817525058985">
        <ele>897</ele>
        <time>2025-07-12T05:26:07Z</time>
      </trkpt>
      <trkpt lat="62.59901337325573" lon="12.198725072667003">
        <ele>896</ele>
        <time>2025-07-12T05:25:56Z</time>
      </trkpt>
      <trkpt lat="62.598953191190958" lon="12.198784332722425">
        <ele>896</ele>
        <time>2025-07-12T05:25:51Z</time>
      </trkpt>
      <trkpt lat="62.598912119865417" lon="12.198738064616919">
        <ele>895</ele>
        <time>2025-07-12T05:25:48Z</time>
      </trkpt>
      <trkpt lat="62.598866270855069" lon="12.198520554229617">
        <ele>894</ele>
        <time>2025-07-12T05:25:40Z</time>
      </trkpt>
      <trkpt lat="62.598788067698479" lon="12.198517788201571">
        <ele>894</ele>
        <time>2025-07-12T05:25:35Z</time>
      </trkpt>
      <trkpt lat="62.598684215918183" lon="12.198394238948822">
        <ele>892</ele>
        <time>2025-07-12T05:25:27Z</time>
      </trkpt>
      <trkpt lat="62.598505262285471" lon="12.197548002004623">
        <ele>888</ele>
        <time>2025-07-12T05:24:55Z</time>
      </trkpt>
      <trkpt lat="62.598475003615022" lon="12.197093367576599">
        <ele>886</ele>
        <time>2025-07-12T05:24:40Z</time>
      </trkpt>
      <trkpt lat="62.598351957276464" lon="12.19673378393054">
        <ele>883</ele>
        <time>2025-07-12T05:24:24Z</time>
      </trkpt>
      <trkpt lat="62.598311640322208" lon="12.196264648810029">
        <ele>881</ele>
        <time>2025-07-12T05:24:09Z</time>
      </trkpt>
      <trkpt lat="62.598190857097507" lon="12.196011263877153">
        <ele>879</ele>
        <time>2025-07-12T05:23:55Z</time>
      </trkpt>
      <trkpt lat="62.598066218197346" lon="12.195336017757654">
        <ele>876</ele>
        <time>2025-07-12T05:23:34Z</time>
      </trkpt>
      <trkpt lat="62.59807912632823" lon="12.195219593122602">
        <ele>876</ele>
        <time>2025-07-12T05:23:31Z</time>
      </trkpt>
      <trkpt lat="62.597913248464465" lon="12.194561026990414">
        <ele>872</ele>
        <time>2025-07-12T05:23:06Z</time>
      </trkpt>
      <trkpt lat="62.597709987312555" lon="12.194266654551029">
        <ele>870</ele>
        <time>2025-07-12T05:22:53Z</time>
      </trkpt>
      <trkpt lat="62.597699929028749" lon="12.194115109741688">
        <ele>869</ele>
        <time>2025-07-12T05:22:50Z</time>
      </trkpt>
      <trkpt lat="62.597652319818735" lon="12.194097340106964">
        <ele>869</ele>
        <time>2025-07-12T05:22:48Z</time>
      </trkpt>
      <trkpt lat="62.59756313636899" lon="12.193893659859896">
        <ele>867</ele>
        <time>2025-07-12T05:22:40Z</time>
      </trkpt>
      <trkpt lat="62.597204390913248" lon="12.192466389387846">
        <ele>860</ele>
        <time>2025-07-12T05:21:49Z</time>
      </trkpt>
      <trkpt lat="62.597160637378693" lon="12.192471586167812">
        <ele>859</ele>
        <time>2025-07-12T05:16:22Z</time>
      </trkpt>
      <trkpt lat="62.597182430326939" lon="12.192430682480335">
        <ele>859</ele>
        <time>2025-07-12T05:16:11Z</time>
      </trkpt>
      <trkpt lat="62.597121745347977" lon="12.192300176247954">
        <ele>858</ele>
        <time>2025-07-12T05:16:04Z</time>
      </trkpt>
      <trkpt lat="62.59667188860476" lon="12.19180840998888">
        <ele>854</ele>
        <time>2025-07-12T05:15:24Z</time>
      </trkpt>
      <trkpt lat="62.596363602206111" lon="12.191683268174529">
        <ele>851</ele>
        <time>2025-07-12T05:14:55Z</time>
      </trkpt>
      <trkpt lat="62.595704616978765" lon="12.191169876605272">
        <ele>845</ele>
        <time>2025-07-12T05:13:53Z</time>
      </trkpt>
      <trkpt lat="62.595606716349721" lon="12.190834684297442">
        <ele>843</ele>
        <time>2025-07-12T05:13:38Z</time>
      </trkpt>
      <trkpt lat="62.595521304756403" lon="12.19015633687377">
        <ele>840</ele>
        <time>2025-07-12T05:13:14Z</time>
      </trkpt>
      <trkpt lat="62.595519879832864" lon="12.189713940024376">
        <ele>838</ele>
        <time>2025-07-12T05:12:59Z</time>
      </trkpt>
      <trkpt lat="62.59559883736074" lon="12.189266597852111">
        <ele>836</ele>
        <time>2025-07-12T05:12:42Z</time>
      </trkpt>
      <trkpt lat="62.595737893134356" lon="12.188900224864483">
        <ele>836</ele>
        <time>2025-07-12T05:12:25Z</time>
      </trkpt>
      <trkpt lat="62.595948530361056" lon="12.188586741685867">
        <ele>837</ele>
        <time>2025-07-12T05:12:06Z</time>
      </trkpt>
      <trkpt lat="62.596177272498608" lon="12.188417762517929">
        <ele>838</ele>
        <time>2025-07-12T05:11:43Z</time>
      </trkpt>
      <trkpt lat="62.59624726139009" lon="12.188164545223117">
        <ele>837</ele>
        <time>2025-07-12T05:11:31Z</time>
      </trkpt>
      <trkpt lat="62.596238795667887" lon="12.187903868034482">
        <ele>837</ele>
        <time>2025-07-12T05:11:22Z</time>
      </trkpt>
      <trkpt lat="62.596131423488259" lon="12.187493238598108">
        <ele>835</ele>
        <time>2025-07-12T05:11:06Z</time>
      </trkpt>
      <trkpt lat="62.596086747944355" lon="12.187163662165403">
        <ele>834</ele>
        <time>2025-07-12T05:10:53Z</time>
      </trkpt>
      <trkpt lat="62.595893796533346" lon="12.1865991409868">
        <ele>831</ele>
        <time>2025-07-12T05:10:24Z</time>
      </trkpt>
      <trkpt lat="62.595586013048887" lon="12.186292950063944">
        <ele>827</ele>
        <time>2025-07-12T05:09:54Z</time>
      </trkpt>
      <trkpt lat="62.595536559820175" lon="12.186338547617197">
        <ele>826</ele>
        <time>2025-07-12T05:09:50Z</time>
      </trkpt>
      <trkpt lat="62.595369340851903" lon="12.186302086338401">
        <ele>825</ele>
        <time>2025-07-12T05:09:36Z</time>
      </trkpt>
      <trkpt lat="62.595193069428205" lon="12.186099328100681">
        <ele>822</ele>
        <time>2025-07-12T05:09:20Z</time>
      </trkpt>
      <trkpt lat="62.59506574831903" lon="12.185688782483339">
        <ele>819</ele>
        <time>2025-07-12T05:09:03Z</time>
      </trkpt>
      <trkpt lat="62.595048900693655" lon="12.185373371466994">
        <ele>817</ele>
        <time>2025-07-12T05:08:53Z</time>
      </trkpt>
      <trkpt lat="62.595124086365104" lon="12.18513616360724">
        <ele>817</ele>
        <time>2025-07-12T05:08:42Z</time>
      </trkpt>
      <trkpt lat="62.595354672521353" lon="12.18478336930275">
        <ele>817</ele>
        <time>2025-07-12T05:08:20Z</time>
      </trkpt>
      <trkpt lat="62.595384176820517" lon="12.184586310759187">
        <ele>816</ele>
        <time>2025-07-12T05:08:13Z</time>
      </trkpt>
      <trkpt lat="62.59558810852468" lon="12.183926571160555">
        <ele>814</ele>
        <time>2025-07-12T05:07:38Z</time>
      </trkpt>
      <trkpt lat="62.59558810852468" lon="12.183926571160555">
        <ele>814</ele>
        <time>2025-07-12T05:07:38Z</time>
      </trkpt>
      <trkpt lat="62.595384176820517" lon="12.184586310759187">
        <ele>816</ele>
        <time>2025-07-12T05:08:13Z</time>
      </trkpt>
      <trkpt lat="62.595354672521353" lon="12.18478336930275">
        <ele>817</ele>
        <time>2025-07-12T05:08:20Z</time>
      </trkpt>
      <trkpt lat="62.595124086365104" lon="12.18513616360724">
        <ele>817</ele>
        <time>2025-07-12T05:08:42Z</time>
      </trkpt>
      <trkpt lat="62.595048900693655" lon="12.185373371466994">
        <ele>817</ele>
        <time>2025-07-12T05:08:53Z</time>
      </trkpt>
      <trkpt lat="62.59506574831903" lon="12.185688782483339">
        <ele>819</ele>
        <time>2025-07-12T05:09:03Z</time>
      </trkpt>
      <trkpt lat="62.595193069428205" lon="12.186099328100681">
        <ele>822</ele>
        <time>2025-07-12T05:09:20Z</time>
      </trkpt>
      <trkpt lat="62.595369340851903" lon="12.186302086338401">
        <ele>825</ele>
        <time>2025-07-12T05:09:36Z</time>
      </trkpt>
      <trkpt lat="62.595536559820175" lon="12.186338547617197">
        <ele>826</ele>
        <time>2025-07-12T05:09:50Z</time>
      </trkpt>
      <trkpt lat="62.595586013048887" lon="12.186292950063944">
        <ele>827</ele>
        <time>2025-07-12T05:09:54Z</time>
      </trkpt>
      <trkpt lat="62.595893796533346" lon="12.1865991409868">
        <ele>831</ele>
        <time>2025-07-12T05:10:24Z</time>
      </trkpt>
      <trkpt lat="62.596086747944355" lon="12.187163662165403">
        <ele>834</ele>
        <time>2025-07-12T05:10:53Z</time>
      </trkpt>
      <trkpt lat="62.596131423488259" lon="12.187493238598108">
        <ele>835</ele>
        <time>2025-07-12T05:11:06Z</time>
      </trkpt>
      <trkpt lat="62.596238795667887" lon="12.187903868034482">
        <ele>837</ele>
        <time>2025-07-12T05:11:22Z</time>
      </trkpt>
      <trkpt lat="62.59624726139009" lon="12.188164545223117">
        <ele>837</ele>
        <time>2025-07-12T05:11:31Z</time>
      </trkpt>
      <trkpt lat="62.596177272498608" lon="12.188417762517929">
        <ele>838</ele>
        <time>2025-07-12T05:11:43Z</time>
      </trkpt>
      <trkpt lat="62.595948530361056" lon="12.188586741685867">
        <ele>837</ele>
        <time>2025-07-12T05:12:06Z</time>
      </trkpt>
      <trkpt lat="62.595737893134356" lon="12.188900224864483">
        <ele>836</ele>
        <time>2025-07-12T05:12:25Z</time>
      </trkpt>
      <trkpt lat="62.59559883736074" lon="12.189266597852111">
        <ele>836</ele>
        <time>2025-07-12T05:12:42Z</time>
      </trkpt>
      <trkpt lat="62.595519879832864" lon="12.189713940024376">
        <ele>838</ele>
        <time>2025-07-12T05:12:59Z</time>
      </trkpt>
      <trkpt lat="62.595521304756403" lon="12.19015633687377">
        <ele>840</ele>
        <time>2025-07-12T05:13:14Z</time>
      </trkpt>
      <trkpt lat="62.595606716349721" lon="12.190834684297442">
        <ele>843</ele>
        <time>2025-07-12T05:13:38Z</time>
      </trkpt>
      <trkpt lat="62.595704616978765" lon="12.191169876605272">
        <ele>845</ele>
        <time>2025-07-12T05:13:53Z</time>
      </trkpt>
      <trkpt lat="62.596363602206111" lon="12.191683268174529">
        <ele>851</ele>
        <time>2025-07-12T05:14:55Z</time>
      </trkpt>
      <trkpt lat="62.59667188860476" lon="12.19180840998888">
        <ele>854</ele>
        <time>2025-07-12T05:15:24Z</time>
      </trkpt>
      <trkpt lat="62.597121745347977" lon="12.192300176247954">
        <ele>858</ele>
        <time>2025-07-12T05:16:04Z</time>
      </trkpt>
      <trkpt lat="62.597182430326939" lon="12.192430682480335">
        <ele>859</ele>
        <time>2025-07-12T05:16:11Z</time>
      </trkpt>
      <trkpt lat="62.597160637378693" lon="12.192471586167812">
        <ele>859</ele>
        <time>2025-07-12T05:16:22Z</time>
      </trkpt>
      <trkpt lat="62.597204390913248" lon="12.192466389387846">
        <ele>860</ele>
        <time>2025-07-12T05:21:49Z</time>
      </trkpt>
      <trkpt lat="62.59756313636899" lon="12.193893659859896">
        <ele>867</ele>
        <time>2025-07-12T05:22:40Z</time>
      </trkpt>
      <trkpt lat="62.597652319818735" lon="12.194097340106964">
        <ele>869</ele>
        <time>2025-07-12T05:22:48Z</time>
      </trkpt>
      <trkpt lat="62.597699929028749" lon="12.194115109741688">
        <ele>869</ele>
        <time>2025-07-12T05:22:50Z</time>
      </trkpt>
      <trkpt lat="62.597709987312555" lon="12.194266654551029">
        <ele>870</ele>
        <time>2025-07-12T05:22:53Z</time>
      </trkpt>
      <trkpt lat="62.597913248464465" lon="12.194561026990414">
        <ele>872</ele>
        <time>2025-07-12T05:23:06Z</time>
      </trkpt>
      <trkpt lat="62.59807912632823" lon="12.195219593122602">
        <ele>876</ele>
        <time>2025-07-12T05:23:31Z</time>
      </trkpt>
      <trkpt lat="62.598066218197346" lon="12.195336017757654">
        <ele>876</ele>
        <time>2025-07-12T05:23:34Z</time>
      </trkpt>
      <trkpt lat="62.598190857097507" lon="12.196011263877153">
        <ele>879</ele>
        <time>2025-07-12T05:23:55Z</time>
      </trkpt>
      <trkpt lat="62.598311640322208" lon="12.196264648810029">
        <ele>881</ele>
        <time>2025-07-12T05:24:09Z</time>
      </trkpt>
      <trkpt lat="62.598351957276464" lon="12.19673378393054">
        <ele>883</ele>
        <time>2025-07-12T05:24:24Z</time>
      </trkpt>
      <trkpt lat="62.598475003615022" lon="12.197093367576599">
        <ele>886</ele>
        <time>2025-07-12T05:24:40Z</time>
      </trkpt>
      <trkpt lat="62.598505262285471" lon="12.197548002004623">
        <ele>888</ele>
        <time>2025-07-12T05:24:55Z</time>
      </trkpt>
      <trkpt lat="62.598684215918183" lon="12.198394238948822">
        <ele>892</ele>
        <time>2025-07-12T05:25:27Z</time>
      </trkpt>
      <trkpt lat="62.598788067698479" lon="12.198517788201571">
        <ele>894</ele>
        <time>2025-07-12T05:25:35Z</time>
      </trkpt>
      <trkpt lat="62.598866270855069" lon="12.198520554229617">
        <ele>894</ele>
        <time>2025-07-12T05:25:40Z</time>
      </trkpt>
      <trkpt lat="62.598912119865417" lon="12.198738064616919">
        <ele>895</ele>
        <time>2025-07-12T05:25:48Z</time>
      </trkpt>
      <trkpt lat="62.598953191190958" lon="12.198784332722425">
        <ele>896</ele>
        <time>2025-07-12T05:25:51Z</time>
      </trkpt>
      <trkpt lat="62.59901337325573" lon="12.198725072667003">
        <ele>896</ele>
        <time>2025-07-12T05:25:56Z</time>
      </trkpt>
      <trkpt lat="62.599166426807642" lon="12.198817525058985">
        <ele>897</ele>
        <time>2025-07-12T05:26:07Z</time>
      </trkpt>
      <trkpt lat="62.599235326051712" lon="12.198760947212577">
        <ele>897</ele>
        <time>2025-07-12T05:26:12Z</time>
      </trkpt>
      <trkpt lat="62.599302632734179" lon="12.198824565857649">
        <ele>898</ele>
        <time>2025-07-12T05:26:17Z</time>
      </trkpt>
      <trkpt lat="62.599488962441683" lon="12.199256904423237">
        <ele>900</ele>
        <time>2025-07-12T05:26:37Z</time>
      </trkpt>
      <trkpt lat="62.599615948274732" lon="12.199391853064299">
        <ele>901</ele>
        <time>2025-07-12T05:26:47Z</time>
      </trkpt>
      <trkpt lat="62.599646458402276" lon="12.199524706229568">
        <ele>902</ele>
        <time>2025-07-12T05:26:52Z</time>
      </trkpt>
      <trkpt lat="62.599705969914794" lon="12.199592851102352">
        <ele>902</ele>
        <time>2025-07-12T05:26:56Z</time>
      </trkpt>
      <trkpt lat="62.599747376516461" lon="12.199848666787148">
        <ele>903</ele>
        <time>2025-07-12T05:27:06Z</time>
      </trkpt>
      <trkpt lat="62.599931778386235" lon="12.199838943779469">
        <ele>904</ele>
        <time>2025-07-12T05:27:21Z</time>
      </trkpt>
      <trkpt lat="62.600069493055344" lon="12.199943382292986">
        <ele>905</ele>
        <time>2025-07-12T05:27:31Z</time>
      </trkpt>
      <trkpt lat="62.600171668455005" lon="12.200273042544723">
        <ele>906</ele>
        <time>2025-07-12T05:27:44Z</time>
      </trkpt>
      <trkpt lat="62.60034735314548" lon="12.200523996725678">
        <ele>907</ele>
        <time>2025-07-12T05:28:00Z</time>
      </trkpt>
      <trkpt lat="62.600414240732789" lon="12.20071610994637">
        <ele>908</ele>
        <time>2025-07-12T05:28:08Z</time>
      </trkpt>
      <trkpt lat="62.60041382163763" lon="12.201076280325651">
        <ele>909</ele>
        <time>2025-07-12T05:28:21Z</time>
      </trkpt>
      <trkpt lat="62.600260181352496" lon="12.201410885900259">
        <ele>909</ele>
        <time>2025-07-12T05:28:36Z</time>
      </trkpt>
      <trkpt lat="62.600057255476713" lon="12.201652703806758">
        <ele>909</ele>
        <time>2025-07-12T05:28:54Z</time>
      </trkpt>
      <trkpt lat="62.599996402859688" lon="12.201593024656177">
        <ele>908</ele>
        <time>2025-07-12T05:28:59Z</time>
      </trkpt>
      <trkpt lat="62.599831447005272" lon="12.20162395387888">
        <ele>908</ele>
        <time>2025-07-12T05:29:09Z</time>
      </trkpt>
      <trkpt lat="62.59965643286705" lon="12.201892174780369">
        <ele>907</ele>
        <time>2025-07-12T05:29:32Z</time>
      </trkpt>
      <trkpt lat="62.599583426490426" lon="12.202148493379354">
        <ele>908</ele>
        <time>2025-07-12T05:29:42Z</time>
      </trkpt>
      <trkpt lat="62.599345715716481" lon="12.202434567734599">
        <ele>907</ele>
        <time>2025-07-12T05:30:01Z</time>
      </trkpt>
      <trkpt lat="62.599307913333178" lon="12.202833127230406">
        <ele>908</ele>
        <time>2025-07-12T05:30:14Z</time>
      </trkpt>
      <trkpt lat="62.599322916939855" lon="12.202991964295506">
        <ele>908</ele>
        <time>2025-07-12T05:30:20Z</time>
      </trkpt>
      <trkpt lat="62.599276062101126" lon="12.203115094453096">
        <ele>908</ele>
        <time>2025-07-12T05:30:25Z</time>
      </trkpt>
      <trkpt lat="62.599207749590278" lon="12.203124398365617">
        <ele>908</ele>
        <time>2025-07-12T05:30:30Z</time>
      </trkpt>
      <trkpt lat="62.599018486216664" lon="12.202927088364959">
        <ele>907</ele>
        <time>2025-07-12T05:30:43Z</time>
      </trkpt>
      <trkpt lat="62.598849926143885" lon="12.20292029902339">
        <ele>906</ele>
        <time>2025-07-12T05:30:56Z</time>
      </trkpt>
      <trkpt lat="62.598713133484125" lon="12.203042590990663">
        <ele>906</ele>
        <time>2025-07-12T05:31:05Z</time>
      </trkpt>
      <trkpt lat="62.598601654171944" lon="12.203367725014687">
        <ele>906</ele>
        <time>2025-07-12T05:31:17Z</time>
      </trkpt>
      <trkpt lat="62.59832002222538" lon="12.203687746077776">
        <ele>905</ele>
        <time>2025-07-12T05:31:38Z</time>
      </trkpt>
      <trkpt lat="62.598166046664119" lon="12.203970551490784">
        <ele>905</ele>
        <time>2025-07-12T05:31:53Z</time>
      </trkpt>
      <trkpt lat="62.598091028630733" lon="12.204230558127165">
        <ele>904</ele>
        <time>2025-07-12T05:32:04Z</time>
      </trkpt>
      <trkpt lat="62.598004443570971" lon="12.20428311266005">
        <ele>904</ele>
        <time>2025-07-12T05:32:11Z</time>
      </trkpt>
      <trkpt lat="62.597920708358288" lon="12.204203400760889">
        <ele>904</ele>
        <time>2025-07-12T05:32:17Z</time>
      </trkpt>
      <trkpt lat="62.597724655643106" lon="12.204288560897112">
        <ele>903</ele>
        <time>2025-07-12T05:32:32Z</time>
      </trkpt>
      <trkpt lat="62.597663719207048" lon="12.204171381890774">
        <ele>903</ele>
        <time>2025-07-12T05:32:37Z</time>
      </trkpt>
      <trkpt lat="62.597565734758973" lon="12.204146403819323">
        <ele>902</ele>
        <time>2025-07-12T05:32:44Z</time>
      </trkpt>
      <trkpt lat="62.59749080054462" lon="12.203969713300467">
        <ele>902</ele>
        <time>2025-07-12T05:32:53Z</time>
      </trkpt>
      <trkpt lat="62.597361467778683" lon="12.203934928402305">
        <ele>902</ele>
        <time>2025-07-12T05:33:02Z</time>
      </trkpt>
      <trkpt lat="62.597216125577688" lon="12.204330135136843">
        <ele>901</ele>
        <time>2025-07-12T05:33:17Z</time>
      </trkpt>
      <trkpt lat="62.597338333725929" lon="12.204725928604603">
        <ele>902</ele>
        <time>2025-07-12T05:33:32Z</time>
      </trkpt>
      <trkpt lat="62.597242360934615" lon="12.204880574718118">
        <ele>902</ele>
        <time>2025-07-12T05:33:40Z</time>
      </trkpt>
      <trkpt lat="62.597016636282206" lon="12.204814944416285">
        <ele>901</ele>
        <time>2025-07-12T05:33:56Z</time>
      </trkpt>
      <trkpt lat="62.596914628520608" lon="12.20493832603097">
        <ele>901</ele>
        <time>2025-07-12T05:34:04Z</time>
      </trkpt>
      <trkpt lat="62.596879340708256" lon="12.205184502527118">
        <ele>901</ele>
        <time>2025-07-12T05:34:12Z</time>
      </trkpt>
      <trkpt lat="62.596739698201418" lon="12.205571914091706">
        <ele>901</ele>
        <time>2025-07-12T05:34:30Z</time>
      </trkpt>
      <trkpt lat="62.596540292724967" lon="12.205819012597203">
        <ele>901</ele>
        <time>2025-07-12T05:34:48Z</time>
      </trkpt>
      <trkpt lat="62.596415402367711" lon="12.205793196335435">
        <ele>901</ele>
        <time>2025-07-12T05:34:56Z</time>
      </trkpt>
      <trkpt lat="62.596198562532663" lon="12.206197790801525">
        <ele>901</ele>
        <time>2025-07-12T05:35:15Z</time>
      </trkpt>
      <trkpt lat="62.59571710601449" lon="12.20636609941721">
        <ele>901</ele>
        <time>2025-07-12T05:35:48Z</time>
      </trkpt>
      <trkpt lat="62.595435390248895" lon="12.20676289871335">
        <ele>900</ele>
        <time>2025-07-12T05:36:11Z</time>
      </trkpt>
      <trkpt lat="62.595121152698994" lon="12.207027934491634">
        <ele>900</ele>
        <time>2025-07-12T05:36:34Z</time>
      </trkpt>
      <trkpt lat="62.594860978424549" lon="12.207326916977763">
        <ele>900</ele>
        <time>2025-07-12T05:36:56Z</time>
      </trkpt>
      <trkpt lat="62.594561157748103" lon="12.207809798419476">
        <ele>898</ele>
        <time>2025-07-12T05:37:20Z</time>
      </trkpt>
      <trkpt lat="62.594378432258964" lon="12.207713322713971">
        <ele>898</ele>
        <time>2025-07-12T05:37:34Z</time>
      </trkpt>
      <trkpt lat="62.594175674021244" lon="12.207761267200112">
        <ele>898</ele>
        <time>2025-07-12T05:37:48Z</time>
      </trkpt>
      <trkpt lat="62.594070145860314" lon="12.207957739010453">
        <ele>897</ele>
        <time>2025-07-12T05:37:57Z</time>
      </trkpt>
      <trkpt lat="62.593787927180529" lon="12.208116492256522">
        <ele>895</ele>
        <time>2025-07-12T05:38:17Z</time>
      </trkpt>
      <trkpt lat="62.593728415668011" lon="12.208270048722625">
        <ele>894</ele>
        <time>2025-07-12T05:38:23Z</time>
      </trkpt>
      <trkpt lat="62.593596065416932" lon="12.208886370062828">
        <ele>892</ele>
        <time>2025-07-12T05:38:45Z</time>
      </trkpt>
      <trkpt lat="62.593509815633297" lon="12.20897639170289">
        <ele>892</ele>
        <time>2025-07-12T05:38:52Z</time>
      </trkpt>
      <trkpt lat="62.593377130106091" lon="12.208994915708899">
        <ele>891</ele>
        <time>2025-07-12T05:39:01Z</time>
      </trkpt>
      <trkpt lat="62.593275876715779" lon="12.2089240886271">
        <ele>890</ele>
        <time>2025-07-12T05:39:08Z</time>
      </trkpt>
      <trkpt lat="62.592999022454023" lon="12.209132965654135">
        <ele>888</ele>
        <time>2025-07-12T05:39:28Z</time>
      </trkpt>
      <trkpt lat="62.592837754637003" lon="12.209129529073834">
        <ele>887</ele>
        <time>2025-07-12T05:39:38Z</time>
      </trkpt>
      <trkpt lat="62.592716300860047" lon="12.209230614826083">
        <ele>886</ele>
        <time>2025-07-12T05:39:47Z</time>
      </trkpt>
      <trkpt lat="62.592480853199959" lon="12.210036283358932">
        <ele>884</ele>
        <time>2025-07-12T05:40:18Z</time>
      </trkpt>
      <trkpt lat="62.592481859028339" lon="12.210160167887807">
        <ele>884</ele>
        <time>2025-07-12T05:40:22Z</time>
      </trkpt>
      <trkpt lat="62.592440871521831" lon="12.210215236991644">
        <ele>884</ele>
        <time>2025-07-12T05:40:25Z</time>
      </trkpt>
      <trkpt lat="62.592331068590283" lon="12.210691496729851">
        <ele>883</ele>
        <time>2025-07-12T05:40:40Z</time>
      </trkpt>
      <trkpt lat="62.592093106359243" lon="12.211041608825326">
        <ele>881</ele>
        <time>2025-07-12T05:41:00Z</time>
      </trkpt>
      <trkpt lat="62.591778784990311" lon="12.2109445463866">
        <ele>878</ele>
        <time>2025-07-12T05:41:22Z</time>
      </trkpt>
      <trkpt lat="62.591539565473795" lon="12.211306393146515">
        <ele>876</ele>
        <time>2025-07-12T05:41:41Z</time>
      </trkpt>
      <trkpt lat="62.591437138617039" lon="12.211323659867048">
        <ele>875</ele>
        <time>2025-07-12T05:41:48Z</time>
      </trkpt>
      <trkpt lat="62.590948306024075" lon="12.212200239300728">
        <ele>870</ele>
        <time>2025-07-12T05:42:32Z</time>
      </trkpt>
      <trkpt lat="62.590842023491859" lon="12.212105775251985">
        <ele>869</ele>
        <time>2025-07-12T05:42:40Z</time>
      </trkpt>
      <trkpt lat="62.590538263320923" lon="12.212454127147794">
        <ele>867</ele>
        <time>2025-07-12T05:43:05Z</time>
      </trkpt>
      <trkpt lat="62.590272054076195" lon="12.212575664743781">
        <ele>864</ele>
        <time>2025-07-12T05:43:23Z</time>
      </trkpt>
      <trkpt lat="62.590151187032461" lon="12.21247005276382">
        <ele>863</ele>
        <time>2025-07-12T05:43:32Z</time>
      </trkpt>
      <trkpt lat="62.589930659160018" lon="12.212461503222585">
        <ele>861</ele>
        <time>2025-07-12T05:43:46Z</time>
      </trkpt>
      <trkpt lat="62.589766206219792" lon="12.212196467444301">
        <ele>859</ele>
        <time>2025-07-12T05:44:01Z</time>
      </trkpt>
      <trkpt lat="62.589616924524307" lon="12.212156569585204">
        <ele>858</ele>
        <time>2025-07-12T05:44:11Z</time>
      </trkpt>
      <trkpt lat="62.589471247047186" lon="12.212245836853981">
        <ele>856</ele>
        <time>2025-07-12T05:44:21Z</time>
      </trkpt>
      <trkpt lat="62.589047290384769" lon="12.2121377941221">
        <ele>853</ele>
        <time>2025-07-12T05:45:01Z</time>
      </trkpt>
      <trkpt lat="62.588487630710006" lon="12.212697369977832">
        <ele>848</ele>
        <time>2025-07-12T05:45:46Z</time>
      </trkpt>
      <trkpt lat="62.588054956868291" lon="12.212726622819901">
        <ele>845</ele>
        <time>2025-07-12T05:46:13Z</time>
      </trkpt>
      <trkpt lat="62.587841134518385" lon="12.212639199569821">
        <ele>844</ele>
        <time>2025-07-12T05:46:27Z</time>
      </trkpt>
      <trkpt lat="62.58764885365963" lon="12.212739614769816">
        <ele>843</ele>
        <time>2025-07-12T05:46:39Z</time>
      </trkpt>
      <trkpt lat="62.587459338828921" lon="12.213085368275642">
        <ele>842</ele>
        <time>2025-07-12T05:46:56Z</time>
      </trkpt>
      <trkpt lat="62.586932368576527" lon="12.213178910315037">
        <ele>840</ele>
        <time>2025-07-12T05:47:42Z</time>
      </trkpt>
      <trkpt lat="62.586798928678036" lon="12.213370939716697">
        <ele>839</ele>
        <time>2025-07-12T05:47:53Z</time>
      </trkpt>
      <trkpt lat="62.586595416069031" lon="12.213845020160079">
        <ele>839</ele>
        <time>2025-07-12T05:48:13Z</time>
      </trkpt>
      <trkpt lat="62.586543699726462" lon="12.214212147518992">
        <ele>840</ele>
        <time>2025-07-12T05:48:23Z</time>
      </trkpt>
      <trkpt lat="62.586346725001931" lon="12.214647922664881">
        <ele>841</ele>
        <time>2025-07-12T05:48:44Z</time>
      </trkpt>
      <trkpt lat="62.586323339492083" lon="12.21486534923315">
        <ele>842</ele>
        <time>2025-07-12T05:48:51Z</time>
      </trkpt>
      <trkpt lat="62.586336247622967" lon="12.214873228222132">
        <ele>842</ele>
        <time>2025-07-12T05:49:33Z</time>
      </trkpt>
      <trkpt lat="62.586362902075052" lon="12.215033071115613">
        <ele>842</ele>
        <time>2025-07-12T05:49:39Z</time>
      </trkpt>
      <trkpt lat="62.58636818267405" lon="12.21534663811326">
        <ele>845</ele>
        <time>2025-07-12T05:49:48Z</time>
      </trkpt>
      <trkpt lat="62.586317555978894" lon="12.215726422145963">
        <ele>847</ele>
        <time>2025-07-12T05:50:02Z</time>
      </trkpt>
      <trkpt lat="62.586041456088424" lon="12.216700650751591">
        <ele>859</ele>
        <time>2025-07-12T05:50:36Z</time>
      </trkpt>
      <trkpt lat="62.585799722000957" lon="12.217186046764255">
        <ele>867</ele>
        <time>2025-07-12T05:51:28Z</time>
      </trkpt>
      <trkpt lat="62.585726883262396" lon="12.217681584879756">
        <ele>873</ele>
        <time>2025-07-12T05:51:45Z</time>
      </trkpt>
      <trkpt lat="62.585564525797963" lon="12.218025075271726">
        <ele>879</ele>
        <time>2025-07-12T05:52:03Z</time>
      </trkpt>
      <trkpt lat="62.585529740899801" lon="12.218255577608943">
        <ele>882</ele>
        <time>2025-07-12T05:52:11Z</time>
      </trkpt>
      <trkpt lat="62.585482215508819" lon="12.218346018344164">
        <ele>883</ele>
        <time>2025-07-12T05:52:15Z</time>
      </trkpt>
      <trkpt lat="62.585353134199977" lon="12.218420952558517">
        <ele>885</ele>
        <time>2025-07-12T05:52:25Z</time>
      </trkpt>
      <trkpt lat="62.585210390388966" lon="12.21869763918221">
        <ele>888</ele>
        <time>2025-07-12T05:52:37Z</time>
      </trkpt>
      <trkpt lat="62.585405604913831" lon="12.219085302203894">
        <ele>890</ele>
        <time>2025-07-12T05:52:55Z</time>
      </trkpt>
      <trkpt lat="62.585501074790955" lon="12.219473132863641">
        <ele>892</ele>
        <time>2025-07-12T05:53:11Z</time>
      </trkpt>
      <trkpt lat="62.585499063134193" lon="12.219968335703015">
        <ele>895</ele>
        <time>2025-07-12T05:53:30Z</time>
      </trkpt>
      <trkpt lat="62.585360258817673" lon="12.22118966281414">
        <ele>901</ele>
        <time>2025-07-12T05:54:12Z</time>
      </trkpt>
      <trkpt lat="62.584839658811688" lon="12.22311875782907">
        <ele>913</ele>
        <time>2025-07-12T05:55:23Z</time>
      </trkpt>
      <trkpt lat="62.584646539762616" lon="12.223516814410686">
        <ele>915</ele>
        <time>2025-07-12T05:55:43Z</time>
      </trkpt>
      <trkpt lat="62.584268348291516" lon="12.224121484905481">
        <ele>921</ele>
        <time>2025-07-12T05:56:17Z</time>
      </trkpt>
      <trkpt lat="62.584111522883177" lon="12.224545860663056">
        <ele>921</ele>
        <time>2025-07-12T05:56:34Z</time>
      </trkpt>
      <trkpt lat="62.583924019709229" lon="12.225449178367853">
        <ele>920</ele>
        <time>2025-07-12T05:57:05Z</time>
      </trkpt>
      <trkpt lat="62.583829471841455" lon="12.226148396730423">
        <ele>920</ele>
        <time>2025-07-12T05:57:28Z</time>
      </trkpt>
      <trkpt lat="62.583545241504908" lon="12.226343443617225">
        <ele>923</ele>
        <time>2025-07-12T05:57:48Z</time>
      </trkpt>
      <trkpt lat="62.583381123840809" lon="12.226843256503344">
        <ele>924</ele>
        <time>2025-07-12T05:58:08Z</time>
      </trkpt>
      <trkpt lat="62.583343237638474" lon="12.227220861241221">
        <ele>925</ele>
        <time>2025-07-12T05:58:20Z</time>
      </trkpt>
      <trkpt lat="62.583177359774709" lon="12.228027116507292">
        <ele>929</ele>
        <time>2025-07-12T05:58:53Z</time>
      </trkpt>
      <trkpt lat="62.583181718364358" lon="12.228310341015458">
        <ele>930</ele>
        <time>2025-07-12T05:59:02Z</time>
      </trkpt>
      <trkpt lat="62.583134695887566" lon="12.229154733940959">
        <ele>933</ele>
        <time>2025-07-12T05:59:29Z</time>
      </trkpt>
      <trkpt lat="62.583152884617448" lon="12.229286162182689">
        <ele>933</ele>
        <time>2025-07-12T05:59:33Z</time>
      </trkpt>
      <trkpt lat="62.58312564343214" lon="12.229386745020747">
        <ele>933</ele>
        <time>2025-07-12T05:59:37Z</time>
      </trkpt>
      <trkpt lat="62.583118351176381" lon="12.229636274278164">
        <ele>934</ele>
        <time>2025-07-12T05:59:47Z</time>
      </trkpt>
      <trkpt lat="62.583179036155343" lon="12.230643779039383">
        <ele>935</ele>
        <time>2025-07-12T06:00:23Z</time>
      </trkpt>
      <trkpt lat="62.583007458597422" lon="12.231128755956888">
        <ele>937</ele>
        <time>2025-07-12T06:00:45Z</time>
      </trkpt>
      <trkpt lat="62.582855829969049" lon="12.231866614893079">
        <ele>939</ele>
        <time>2025-07-12T06:01:10Z</time>
      </trkpt>
      <trkpt lat="62.582679055631161" lon="12.232373803853989">
        <ele>942</ele>
        <time>2025-07-12T06:01:30Z</time>
      </trkpt>
      <trkpt lat="62.582667237147689" lon="12.23255611024797">
        <ele>943</ele>
        <time>2025-07-12T06:01:36Z</time>
      </trkpt>
      <trkpt lat="62.58263505063951" lon="12.232652502134442">
        <ele>943</ele>
        <time>2025-07-12T06:01:40Z</time>
      </trkpt>
      <trkpt lat="62.582621974870563" lon="12.233092300593853">
        <ele>944</ele>
        <time>2025-07-12T06:01:54Z</time>
      </trkpt>
      <trkpt lat="62.582589536905289" lon="12.233259519562125">
        <ele>945</ele>
        <time>2025-07-12T06:02:00Z</time>
      </trkpt>
      <trkpt lat="62.582419887185097" lon="12.233512904495001">
        <ele>947</ele>
        <time>2025-07-12T06:02:15Z</time>
      </trkpt>
      <trkpt lat="62.582261636853218" lon="12.233934011310339">
        <ele>950</ele>
        <time>2025-07-12T06:02:35Z</time>
      </trkpt>
      <trkpt lat="62.582240933552384" lon="12.234293762594461">
        <ele>951</ele>
        <time>2025-07-12T06:02:48Z</time>
      </trkpt>
      <trkpt lat="62.582191061228514" lon="12.234617304056883">
        <ele>952</ele>
        <time>2025-07-12T06:03:01Z</time>
      </trkpt>
      <trkpt lat="62.582108499482274" lon="12.234796425327659">
        <ele>954</ele>
        <time>2025-07-12T06:03:10Z</time>
      </trkpt>
      <trkpt lat="62.581959133967757" lon="12.235512658953667">
        <ele>956</ele>
        <time>2025-07-12T06:03:42Z</time>
      </trkpt>
      <trkpt lat="62.582317879423499" lon="12.235305793583393">
        <ele>953</ele>
        <time>2025-07-12T06:04:10Z</time>
      </trkpt>
      <trkpt lat="62.582446038722992" lon="12.235368574038148">
        <ele>952</ele>
        <time>2025-07-12T06:04:21Z</time>
      </trkpt>
      <trkpt lat="62.582866307348013" lon="12.236046502366662">
        <ele>948</ele>
        <time>2025-07-12T06:06:48Z</time>
      </trkpt>
      <trkpt lat="62.583630820736289" lon="12.236694423481822">
        <ele>939</ele>
        <time>2025-07-12T06:08:05Z</time>
      </trkpt>
      <trkpt lat="62.583802817389369" lon="12.237036321312189">
        <ele>937</ele>
        <time>2025-07-12T06:08:22Z</time>
      </trkpt>
      <trkpt lat="62.584134321659803" lon="12.238002670928836">
        <ele>935</ele>
        <time>2025-07-12T06:09:01Z</time>
      </trkpt>
      <trkpt lat="62.584307156503201" lon="12.238351861014962">
        <ele>934</ele>
        <time>2025-07-12T06:09:19Z</time>
      </trkpt>
      <trkpt lat="62.584470938891172" lon="12.238484797999263">
        <ele>932</ele>
        <time>2025-07-12T06:09:30Z</time>
      </trkpt>
      <trkpt lat="62.584623070433736" lon="12.23888193257153">
        <ele>930</ele>
        <time>2025-07-12T06:09:49Z</time>
      </trkpt>
      <trkpt lat="62.584903528913856" lon="12.238975977525115">
        <ele>927</ele>
        <time>2025-07-12T06:10:08Z</time>
      </trkpt>
      <trkpt lat="62.585021965205669" lon="12.239090977236629">
        <ele>926</ele>
        <time>2025-07-12T06:10:17Z</time>
      </trkpt>
      <trkpt lat="62.585014924407005" lon="12.239298513159156">
        <ele>926</ele>
        <time>2025-07-12T06:10:23Z</time>
      </trkpt>
      <trkpt lat="62.585177700966597" lon="12.239986164495349">
        <ele>925</ele>
        <time>2025-07-12T06:10:48Z</time>
      </trkpt>
      <trkpt lat="62.586250668391585" lon="12.24235413596034">
        <ele>918</ele>
        <time>2025-07-12T06:12:46Z</time>
      </trkpt>
      <trkpt lat="62.586318142712116" lon="12.242444744333625">
        <ele>918</ele>
        <time>2025-07-12T06:12:52Z</time>
      </trkpt>
      <trkpt lat="62.586882077157497" lon="12.242749929428101">
        <ele>919</ele>
        <time>2025-07-12T06:13:34Z</time>
      </trkpt>
      <trkpt lat="62.587223639711738" lon="12.242773985490203">
        <ele>918</ele>
        <time>2025-07-12T06:13:58Z</time>
      </trkpt>
      <trkpt lat="62.587355319410563" lon="12.243092665448785">
        <ele>918</ele>
        <time>2025-07-12T06:14:12Z</time>
      </trkpt>
      <trkpt lat="62.587388847023249" lon="12.243447303771973">
        <ele>918</ele>
        <time>2025-07-12T06:14:23Z</time>
      </trkpt>
      <trkpt lat="62.587367808446288" lon="12.243622234091163">
        <ele>918</ele>
        <time>2025-07-12T06:14:28Z</time>
      </trkpt>
      <trkpt lat="62.587404521182179" lon="12.2439328674227">
        <ele>918</ele>
        <time>2025-07-12T06:14:39Z</time>
      </trkpt>
      <trkpt lat="62.587392199784517" lon="12.244096314534545">
        <ele>918</ele>
        <time>2025-07-12T06:14:45Z</time>
      </trkpt>
      <trkpt lat="62.587479371577501" lon="12.244435446336865">
        <ele>918</ele>
        <time>2025-07-12T06:14:58Z</time>
      </trkpt>
      <trkpt lat="62.587487669661641" lon="12.244582967832685">
        <ele>918</ele>
        <time>2025-07-12T06:15:02Z</time>
      </trkpt>
      <trkpt lat="62.587562017142773" lon="12.244780277833343">
        <ele>918</ele>
        <time>2025-07-12T06:15:10Z</time>
      </trkpt>
      <trkpt lat="62.58757458999753" lon="12.245098454877734">
        <ele>918</ele>
        <time>2025-07-12T06:15:20Z</time>
      </trkpt>
      <trkpt lat="62.587668970227242" lon="12.245622575283051">
        <ele>918</ele>
        <time>2025-07-12T06:15:39Z</time>
      </trkpt>
      <trkpt lat="62.587802410125732" lon="12.246120795607567">
        <ele>918</ele>
        <time>2025-07-12T06:15:58Z</time>
      </trkpt>
      <trkpt lat="62.587880278006196" lon="12.246269574388862">
        <ele>917</ele>
        <time>2025-07-12T06:16:05Z</time>
      </trkpt>
      <trkpt lat="62.588064596056938" lon="12.246275525540113">
        <ele>917</ele>
        <time>2025-07-12T06:16:17Z</time>
      </trkpt>
      <trkpt lat="62.588239526376128" lon="12.246074946597219">
        <ele>917</ele>
        <time>2025-07-12T06:16:34Z</time>
      </trkpt>
      <trkpt lat="62.588476398959756" lon="12.246184749528766">
        <ele>916</ele>
        <time>2025-07-12T06:16:54Z</time>
      </trkpt>
      <trkpt lat="62.588672200217843" lon="12.246544500812888">
        <ele>916</ele>
        <time>2025-07-12T06:17:12Z</time>
      </trkpt>
      <trkpt lat="62.588643785566092" lon="12.246944736689329">
        <ele>916</ele>
        <time>2025-07-12T06:17:26Z</time>
      </trkpt>
      <trkpt lat="62.58865593932569" lon="12.24726090207696">
        <ele>917</ele>
        <time>2025-07-12T06:17:37Z</time>
      </trkpt>
      <trkpt lat="62.588726850226521" lon="12.24725553765893">
        <ele>917</ele>
        <time>2025-07-12T06:17:41Z</time>
      </trkpt>
      <trkpt lat="62.588865822181106" lon="12.247475227341056">
        <ele>917</ele>
        <time>2025-07-12T06:17:52Z</time>
      </trkpt>
      <trkpt lat="62.588866241276264" lon="12.247796086594462">
        <ele>918</ele>
        <time>2025-07-12T06:18:05Z</time>
      </trkpt>
      <trkpt lat="62.588818883523345" lon="12.2480065561831">
        <ele>918</ele>
        <time>2025-07-12T06:18:15Z</time>
      </trkpt>
      <trkpt lat="62.588886860758066" lon="12.248278381302953">
        <ele>919</ele>
        <time>2025-07-12T06:18:26Z</time>
      </trkpt>
      <trkpt lat="62.58894712664187" lon="12.248361948877573">
        <ele>919</ele>
        <time>2025-07-12T06:18:31Z</time>
      </trkpt>
      <trkpt lat="62.589031783863902" lon="12.249026885256171">
        <ele>920</ele>
        <time>2025-07-12T06:18:57Z</time>
      </trkpt>
      <trkpt lat="62.589391954243183" lon="12.249750830233097">
        <ele>920</ele>
        <time>2025-07-12T06:19:38Z</time>
      </trkpt>
      <trkpt lat="62.589393043890595" lon="12.250128770247102">
        <ele>919</ele>
        <time>2025-07-12T06:19:52Z</time>
      </trkpt>
      <trkpt lat="62.58954182267189" lon="12.250518780201674">
        <ele>919</ele>
        <time>2025-07-12T06:20:17Z</time>
      </trkpt>
      <trkpt lat="62.58960435166955" lon="12.250794628635049">
        <ele>919</ele>
        <time>2025-07-12T06:20:29Z</time>
      </trkpt>
      <trkpt lat="62.589936358854175" lon="12.251185895875096">
        <ele>918</ele>
        <time>2025-07-12T06:21:00Z</time>
      </trkpt>
      <trkpt lat="62.589981788769364" lon="12.251360323280096">
        <ele>918</ele>
        <time>2025-07-12T06:21:07Z</time>
      </trkpt>
      <trkpt lat="62.59003727696836" lon="12.251397622749209">
        <ele>918</ele>
        <time>2025-07-12T06:21:11Z</time>
      </trkpt>
      <trkpt lat="62.590059069916606" lon="12.251632483676076">
        <ele>918</ele>
        <time>2025-07-12T06:21:19Z</time>
      </trkpt>
      <trkpt lat="62.590011544525623" lon="12.251703226938844">
        <ele>918</ele>
        <time>2025-07-12T06:21:23Z</time>
      </trkpt>
      <trkpt lat="62.590048173442483" lon="12.252090303227305">
        <ele>918</ele>
        <time>2025-07-12T06:21:37Z</time>
      </trkpt>
      <trkpt lat="62.590043228119612" lon="12.252323320135474">
        <ele>918</ele>
        <time>2025-07-12T06:21:45Z</time>
      </trkpt>
      <trkpt lat="62.590122856199741" lon="12.252461286261678">
        <ele>918</ele>
        <time>2025-07-12T06:21:53Z</time>
      </trkpt>
      <trkpt lat="62.590421587228775" lon="12.252707714214921">
        <ele>917</ele>
        <time>2025-07-12T06:22:15Z</time>
      </trkpt>
      <trkpt lat="62.590670613572001" lon="12.253400394693017">
        <ele>917</ele>
        <time>2025-07-12T06:22:45Z</time>
      </trkpt>
      <trkpt lat="62.590777482837439" lon="12.253494439646602">
        <ele>917</ele>
        <time>2025-07-12T06:22:54Z</time>
      </trkpt>
      <trkpt lat="62.590760970488191" lon="12.253743717446923">
        <ele>917</ele>
        <time>2025-07-12T06:23:02Z</time>
      </trkpt>
      <trkpt lat="62.590787373483181" lon="12.254063654690981">
        <ele>917</ele>
        <time>2025-07-12T06:23:15Z</time>
      </trkpt>
      <trkpt lat="62.590925674885511" lon="12.254082513973117">
        <ele>917</ele>
        <time>2025-07-12T06:23:26Z</time>
      </trkpt>
      <trkpt lat="62.590973954647779" lon="12.254262892529368">
        <ele>917</ele>
        <time>2025-07-12T06:23:33Z</time>
      </trkpt>
      <trkpt lat="62.59116942062974" lon="12.254432206973433">
        <ele>917</ele>
        <time>2025-07-12T06:23:49Z</time>
      </trkpt>
      <trkpt lat="62.591266231611371" lon="12.254625912755728">
        <ele>917</ele>
        <time>2025-07-12T06:23:58Z</time>
      </trkpt>
      <trkpt lat="62.591327084228396" lon="12.254924895241857">
        <ele>917</ele>
        <time>2025-07-12T06:24:08Z</time>
      </trkpt>
      <trkpt lat="62.591393971815705" lon="12.255037128925323">
        <ele>917</ele>
        <time>2025-07-12T06:24:15Z</time>
      </trkpt>
      <trkpt lat="62.591415848582983" lon="12.25527785718441">
        <ele>917</ele>
        <time>2025-07-12T06:24:23Z</time>
      </trkpt>
      <trkpt lat="62.591475527733564" lon="12.255284395068884">
        <ele>917</ele>
        <time>2025-07-12T06:24:27Z</time>
      </trkpt>
      <trkpt lat="62.591628413647413" lon="12.255596788600087">
        <ele>917</ele>
        <time>2025-07-12T06:24:45Z</time>
      </trkpt>
      <trkpt lat="62.591676777228713" lon="12.255877163261175">
        <ele>917</ele>
        <time>2025-07-12T06:24:54Z</time>
      </trkpt>
      <trkpt lat="62.591625144705176" lon="12.25644763559103">
        <ele>918</ele>
        <time>2025-07-12T06:25:12Z</time>
      </trkpt>
      <trkpt lat="62.59158625267446" lon="12.256524665281177">
        <ele>918</ele>
        <time>2025-07-12T06:25:16Z</time>
      </trkpt>
      <trkpt lat="62.591613242402673" lon="12.256638323888183">
        <ele>918</ele>
        <time>2025-07-12T06:25:21Z</time>
      </trkpt>
      <trkpt lat="62.591576194390655" lon="12.256946945562959">
        <ele>918</ele>
        <time>2025-07-12T06:25:32Z</time>
      </trkpt>
      <trkpt lat="62.591619528830051" lon="12.257079631090164">
        <ele>918</ele>
        <time>2025-07-12T06:25:37Z</time>
      </trkpt>
      <trkpt lat="62.591607039794326" lon="12.257179375737906">
        <ele>918</ele>
        <time>2025-07-12T06:25:40Z</time>
      </trkpt>
      <trkpt lat="62.591634364798665" lon="12.257318682968616">
        <ele>918</ele>
        <time>2025-07-12T06:25:45Z</time>
      </trkpt>
      <trkpt lat="62.591696893796325" lon="12.257433850318193">
        <ele>919</ele>
        <time>2025-07-12T06:25:51Z</time>
      </trkpt>
      <trkpt lat="62.591694630682468" lon="12.257754625752568">
        <ele>919</ele>
        <time>2025-07-12T06:26:01Z</time>
      </trkpt>
      <trkpt lat="62.591787502169609" lon="12.257722523063421">
        <ele>919</ele>
        <time>2025-07-12T06:26:06Z</time>
      </trkpt>
      <trkpt lat="62.59183787740767" lon="12.2579809371382">
        <ele>919</ele>
        <time>2025-07-12T06:26:15Z</time>
      </trkpt>
      <trkpt lat="62.591840559616685" lon="12.258160812780261">
        <ele>919</ele>
        <time>2025-07-12T06:26:20Z</time>
      </trkpt>
      <trkpt lat="62.591901328414679" lon="12.258243625983596">
        <ele>919</ele>
        <time>2025-07-12T06:26:26Z</time>
      </trkpt>
      <trkpt lat="62.591854557394981" lon="12.258349740877748">
        <ele>919</ele>
        <time>2025-07-12T06:26:31Z</time>
      </trkpt>
      <trkpt lat="62.591971987858415" lon="12.259359760209918">
        <ele>919</ele>
        <time>2025-07-12T06:27:13Z</time>
      </trkpt>
      <trkpt lat="62.591841062530875" lon="12.259588167071342">
        <ele>919</ele>
        <time>2025-07-12T06:27:26Z</time>
      </trkpt>
      <trkpt lat="62.59179194457829" lon="12.260125949978828">
        <ele>919</ele>
        <time>2025-07-12T06:27:44Z</time>
      </trkpt>
      <trkpt lat="62.591826310381293" lon="12.260222928598523">
        <ele>919</ele>
        <time>2025-07-12T06:27:48Z</time>
      </trkpt>
      <trkpt lat="62.591948183253407" lon="12.260283445939422">
        <ele>919</ele>
        <time>2025-07-12T06:27:57Z</time>
      </trkpt>
      <trkpt lat="62.59200937114656" lon="12.26058242842555">
        <ele>919</ele>
        <time>2025-07-12T06:28:08Z</time>
      </trkpt>
      <trkpt lat="62.591978358104825" lon="12.260709665715694">
        <ele>919</ele>
        <time>2025-07-12T06:28:13Z</time>
      </trkpt>
      <trkpt lat="62.592014819383621" lon="12.260959446430206">
        <ele>919</ele>
        <time>2025-07-12T06:28:21Z</time>
      </trkpt>
      <trkpt lat="62.592070307582617" lon="12.261026250198483">
        <ele>919</ele>
        <time>2025-07-12T06:28:25Z</time>
      </trkpt>
      <trkpt lat="62.592235682532191" lon="12.261479627341032">
        <ele>919</ele>
        <time>2025-07-12T06:28:45Z</time>
      </trkpt>
      <trkpt lat="62.592338193207979" lon="12.261615917086601">
        <ele>919</ele>
        <time>2025-07-12T06:28:54Z</time>
      </trkpt>
      <trkpt lat="62.592399967834353" lon="12.261622957885265">
        <ele>918</ele>
        <time>2025-07-12T06:28:58Z</time>
      </trkpt>
      <trkpt lat="62.592428214848042" lon="12.26183133199811">
        <ele>918</ele>
        <time>2025-07-12T06:29:05Z</time>
      </trkpt>
      <trkpt lat="62.592525612562895" lon="12.261809622868896">
        <ele>918</ele>
        <time>2025-07-12T06:29:12Z</time>
      </trkpt>
      <trkpt lat="62.592539694160223" lon="12.261884473264217">
        <ele>918</ele>
        <time>2025-07-12T06:29:15Z</time>
      </trkpt>
      <trkpt lat="62.592492671683431" lon="12.262022355571389">
        <ele>918</ele>
        <time>2025-07-12T06:29:21Z</time>
      </trkpt>
      <trkpt lat="62.592559223994613" lon="12.262304993346334">
        <ele>919</ele>
        <time>2025-07-12T06:29:34Z</time>
      </trkpt>
      <trkpt lat="62.592618735507131" lon="12.262321170419455">
        <ele>918</ele>
        <time>2025-07-12T06:29:38Z</time>
      </trkpt>
      <trkpt lat="62.59271202608943" lon="12.262534070760012">
        <ele>919</ele>
        <time>2025-07-12T06:29:48Z</time>
      </trkpt>
      <trkpt lat="62.592817386612296" lon="12.262491155415773">
        <ele>918</ele>
        <time>2025-07-12T06:29:55Z</time>
      </trkpt>
      <trkpt lat="62.5929104257375" lon="12.262528706341982">
        <ele>918</ele>
        <time>2025-07-12T06:30:02Z</time>
      </trkpt>
      <trkpt lat="62.59296809323132" lon="12.26244798861444">
        <ele>918</ele>
        <time>2025-07-12T06:30:08Z</time>
      </trkpt>
      <trkpt lat="62.593212677165866" lon="12.262449078261852">
        <ele>918</ele>
        <time>2025-07-12T06:30:30Z</time>
      </trkpt>
      <trkpt lat="62.593307811766863" lon="12.262555528432131">
        <ele>918</ele>
        <time>2025-07-12T06:30:39Z</time>
      </trkpt>
      <trkpt lat="62.593433624133468" lon="12.262535579502583">
        <ele>918</ele>
        <time>2025-07-12T06:30:48Z</time>
      </trkpt>
      <trkpt lat="62.593678794801235" lon="12.262628450989723">
        <ele>918</ele>
        <time>2025-07-12T06:31:09Z</time>
      </trkpt>
      <trkpt lat="62.59396294131875" lon="12.262932294979692">
        <ele>919</ele>
        <time>2025-07-12T06:31:39Z</time>
      </trkpt>
      <trkpt lat="62.594054387882352" lon="12.262876555323601">
        <ele>918</ele>
        <time>2025-07-12T06:31:48Z</time>
      </trkpt>
      <trkpt lat="62.594207776710391" lon="12.263014772906899">
        <ele>918</ele>
        <time>2025-07-12T06:32:06Z</time>
      </trkpt>
      <trkpt lat="62.594210794195533" lon="12.263118959963322">
        <ele>919</ele>
        <time>2025-07-12T06:32:45Z</time>
      </trkpt>
      <trkpt lat="62.594490498304367" lon="12.26314963772893">
        <ele>918</ele>
        <time>2025-07-12T06:33:25Z</time>
      </trkpt>
      <trkpt lat="62.59464212693274" lon="12.263335883617401">
        <ele>917</ele>
        <time>2025-07-12T06:33:44Z</time>
      </trkpt>
      <trkpt lat="62.595150154083967" lon="12.263016365468502">
        <ele>917</ele>
        <time>2025-07-12T06:34:23Z</time>
      </trkpt>
      <trkpt lat="62.595776449888945" lon="12.263731928542256">
        <ele>916</ele>
        <time>2025-07-12T06:41:36Z</time>
      </trkpt>
      <trkpt lat="62.595825400203466" lon="12.263947175815701">
        <ele>915</ele>
        <time>2025-07-12T06:41:44Z</time>
      </trkpt>
      <trkpt lat="62.596146594733" lon="12.264576321467757">
        <ele>915</ele>
        <time>2025-07-12T06:42:29Z</time>
      </trkpt>
      <trkpt lat="62.596239801496267" lon="12.264672797173262">
        <ele>915</ele>
        <time>2025-07-12T06:42:36Z</time>
      </trkpt>
      <trkpt lat="62.596685048192739" lon="12.265484416857362">
        <ele>914</ele>
        <time>2025-07-12T06:43:21Z</time>
      </trkpt>
      <trkpt lat="62.596926111727953" lon="12.265664208680391">
        <ele>915</ele>
        <time>2025-07-12T06:43:41Z</time>
      </trkpt>
      <trkpt lat="62.597261052578688" lon="12.26619285531342">
        <ele>915</ele>
        <time>2025-07-12T06:44:17Z</time>
      </trkpt>
      <trkpt lat="62.597559532150626" lon="12.266475409269333">
        <ele>916</ele>
        <time>2025-07-12T06:44:43Z</time>
      </trkpt>
      <trkpt lat="62.597816102206707" lon="12.266927445307374">
        <ele>917</ele>
        <time>2025-07-12T06:45:09Z</time>
      </trkpt>
      <trkpt lat="62.598066385835409" lon="12.267178148031235">
        <ele>918</ele>
        <time>2025-07-12T06:45:49Z</time>
      </trkpt>
      <trkpt lat="62.598244082182646" lon="12.267486182972789">
        <ele>918</ele>
        <time>2025-07-12T06:46:06Z</time>
      </trkpt>
      <trkpt lat="62.598298061639071" lon="12.267662957310677">
        <ele>919</ele>
        <time>2025-07-12T06:46:13Z</time>
      </trkpt>
      <trkpt lat="62.598440134897828" lon="12.267811316996813">
        <ele>919</ele>
        <time>2025-07-12T06:46:26Z</time>
      </trkpt>
      <trkpt lat="62.598590087145567" lon="12.268190095201135">
        <ele>920</ele>
        <time>2025-07-12T06:46:43Z</time>
      </trkpt>
      <trkpt lat="62.59864641353488" lon="12.268232339993119">
        <ele>920</ele>
        <time>2025-07-12T06:46:47Z</time>
      </trkpt>
      <trkpt lat="62.598843639716506" lon="12.268617153167725">
        <ele>920</ele>
        <time>2025-07-12T06:47:07Z</time>
      </trkpt>
      <trkpt lat="62.59882964193821" lon="12.268560407683253">
        <ele>920</ele>
        <time>2025-07-12T06:47:41Z</time>
      </trkpt>
      <trkpt lat="62.599666155874729" lon="12.269764132797718">
        <ele>920</ele>
        <time>2025-07-12T06:49:02Z</time>
      </trkpt>
      <trkpt lat="62.599733378738165" lon="12.269942332059145">
        <ele>921</ele>
        <time>2025-07-12T06:49:10Z</time>
      </trkpt>
      <trkpt lat="62.599969077855349" lon="12.270064959302545">
        <ele>920</ele>
        <time>2025-07-12T06:49:27Z</time>
      </trkpt>
      <trkpt lat="62.600252637639642" lon="12.270444827154279">
        <ele>920</ele>
        <time>2025-07-12T06:49:52Z</time>
      </trkpt>
      <trkpt lat="62.600326649844646" lon="12.270454885438085">
        <ele>920</ele>
        <time>2025-07-12T06:49:57Z</time>
      </trkpt>
      <trkpt lat="62.600689586251974" lon="12.270745486021042">
        <ele>920</ele>
        <time>2025-07-12T06:50:24Z</time>
      </trkpt>
      <trkpt lat="62.600797628983855" lon="12.270760238170624">
        <ele>920</ele>
        <time>2025-07-12T06:50:33Z</time>
      </trkpt>
      <trkpt lat="62.601044476032257" lon="12.271083360537887">
        <ele>920</ele>
        <time>2025-07-12T06:50:54Z</time>
      </trkpt>
      <trkpt lat="62.601259807124734" lon="12.271147230640054">
        <ele>920</ele>
        <time>2025-07-12T06:51:10Z</time>
      </trkpt>
      <trkpt lat="62.601462565362453" lon="12.27142701856792">
        <ele>920</ele>
        <time>2025-07-12T06:51:28Z</time>
      </trkpt>
      <trkpt lat="62.601751489564776" lon="12.2717060521245">
        <ele>920</ele>
        <time>2025-07-12T06:51:50Z</time>
      </trkpt>
      <trkpt lat="62.601777808740735" lon="12.271795570850372">
        <ele>920</ele>
        <time>2025-07-12T06:51:54Z</time>
      </trkpt>
      <trkpt lat="62.602065056562424" lon="12.271930519491434">
        <ele>920</ele>
        <time>2025-07-12T06:52:15Z</time>
      </trkpt>
      <trkpt lat="62.602115599438548" lon="12.272036718204618">
        <ele>920</ele>
        <time>2025-07-12T06:52:20Z</time>
      </trkpt>
      <trkpt lat="62.602452719584107" lon="12.272383142262697">
        <ele>920</ele>
        <time>2025-07-12T06:52:49Z</time>
      </trkpt>
      <trkpt lat="62.60254668071866" lon="12.272550109773874">
        <ele>920</ele>
        <time>2025-07-12T06:52:58Z</time>
      </trkpt>
      <trkpt lat="62.602810123935342" lon="12.27276929654181">
        <ele>920</ele>
        <time>2025-07-12T06:53:19Z</time>
      </trkpt>
      <trkpt lat="62.602926883846521" lon="12.272784300148487">
        <ele>920</ele>
        <time>2025-07-12T06:53:29Z</time>
      </trkpt>
      <trkpt lat="62.60332846082747" lon="12.273151595145464">
        <ele>920</ele>
        <time>2025-07-12T06:54:02Z</time>
      </trkpt>
      <trkpt lat="62.603505654260516" lon="12.273381175473332">
        <ele>920</ele>
        <time>2025-07-12T06:54:17Z</time>
      </trkpt>
      <trkpt lat="62.60379608720541" lon="12.273528864607215">
        <ele>919</ele>
        <time>2025-07-12T06:54:39Z</time>
      </trkpt>
      <trkpt lat="62.603973699733615" lon="12.273746123537421">
        <ele>919</ele>
        <time>2025-07-12T06:54:55Z</time>
      </trkpt>
      <trkpt lat="62.604451971128583" lon="12.273936057463288">
        <ele>919</ele>
        <time>2025-07-12T06:55:32Z</time>
      </trkpt>
      <trkpt lat="62.604631930589676" lon="12.274108808487654">
        <ele>919</ele>
        <time>2025-07-12T06:55:47Z</time>
      </trkpt>
      <trkpt lat="62.60474449954927" lon="12.274666121229529">
        <ele>918</ele>
        <time>2025-07-12T06:56:09Z</time>
      </trkpt>
      <trkpt lat="62.604943234473467" lon="12.274746922776103">
        <ele>918</ele>
        <time>2025-07-12T06:56:24Z</time>
      </trkpt>
      <trkpt lat="62.60499662719667" lon="12.275110697373748">
        <ele>918</ele>
        <time>2025-07-12T06:56:55Z</time>
      </trkpt>
      <trkpt lat="62.605609847232699" lon="12.275579664856195">
        <ele>919</ele>
        <time>2025-07-12T06:58:41Z</time>
      </trkpt>
      <trkpt lat="62.606240082532167" lon="12.276410646736622">
        <ele>921</ele>
        <time>2025-07-12T07:00:01Z</time>
      </trkpt>
      <trkpt lat="62.606960255652666" lon="12.277144649997354">
        <ele>924</ele>
        <time>2025-07-12T07:01:04Z</time>
      </trkpt>
      <trkpt lat="62.606983724981546" lon="12.277335589751601">
        <ele>924</ele>
        <time>2025-07-12T07:01:11Z</time>
      </trkpt>
      <trkpt lat="62.607116242870688" lon="12.277494007721543">
        <ele>925</ele>
        <time>2025-07-12T07:01:23Z</time>
      </trkpt>
      <trkpt lat="62.607169719412923" lon="12.277647145092487">
        <ele>925</ele>
        <time>2025-07-12T07:01:31Z</time>
      </trkpt>
      <trkpt lat="62.607293855398893" lon="12.277744375169277">
        <ele>926</ele>
        <time>2025-07-12T07:01:42Z</time>
      </trkpt>
      <trkpt lat="62.607375411316752" lon="12.277878234162927">
        <ele>926</ele>
        <time>2025-07-12T07:01:51Z</time>
      </trkpt>
      <trkpt lat="62.607434587553144" lon="12.278146035969257">
        <ele>925</ele>
        <time>2025-07-12T07:02:03Z</time>
      </trkpt>
      <trkpt lat="62.607640950009227" lon="12.27865582332015">
        <ele>926</ele>
        <time>2025-07-12T07:02:59Z</time>
      </trkpt>
      <trkpt lat="62.607868518680334" lon="12.279011886566877">
        <ele>928</ele>
        <time>2025-07-12T07:03:19Z</time>
      </trkpt>
      <trkpt lat="62.608046801760793" lon="12.279578167945147">
        <ele>929</ele>
        <time>2025-07-12T07:03:45Z</time>
      </trkpt>
      <trkpt lat="62.608183510601521" lon="12.279708422720432">
        <ele>930</ele>
        <time>2025-07-12T07:03:56Z</time>
      </trkpt>
      <trkpt lat="62.608321895822883" lon="12.279645055532455">
        <ele>931</ele>
        <time>2025-07-12T07:04:06Z</time>
      </trkpt>
      <trkpt lat="62.608593972399831" lon="12.27971906773746">
        <ele>934</ele>
        <time>2025-07-12T07:04:31Z</time>
      </trkpt>
      <trkpt lat="62.608693968504667" lon="12.279599793255329">
        <ele>936</ele>
        <time>2025-07-12T07:04:59Z</time>
      </trkpt>
      <trkpt lat="62.60886219330132" lon="12.279711859300733">
        <ele>938</ele>
        <time>2025-07-12T07:05:15Z</time>
      </trkpt>
      <trkpt lat="62.608935534954071" lon="12.280031209811568">
        <ele>938</ele>
        <time>2025-07-12T07:05:35Z</time>
      </trkpt>
      <trkpt lat="62.609125971794128" lon="12.279960969462991">
        <ele>941</ele>
        <time>2025-07-12T07:05:53Z</time>
      </trkpt>
      <trkpt lat="62.609383715316653" lon="12.280028527602553">
        <ele>945</ele>
        <time>2025-07-12T07:06:15Z</time>
      </trkpt>
      <trkpt lat="62.609708094969392" lon="12.279887711629272">
        <ele>951</ele>
        <time>2025-07-12T07:06:38Z</time>
      </trkpt>
      <trkpt lat="62.609797948971391" lon="12.279956107959151">
        <ele>952</ele>
        <time>2025-07-12T07:06:47Z</time>
      </trkpt>
      <trkpt lat="62.61005250737071" lon="12.27982996031642">
        <ele>957</ele>
        <time>2025-07-12T07:07:11Z</time>
      </trkpt>
      <trkpt lat="62.610119227319956" lon="12.279859632253647">
        <ele>958</ele>
        <time>2025-07-12T07:07:19Z</time>
      </trkpt>
      <trkpt lat="62.61018393561244" lon="12.279777070507407">
        <ele>960</ele>
        <time>2025-07-12T07:07:34Z</time>
      </trkpt>
      <trkpt lat="62.610404044389725" lon="12.279855273663998">
        <ele>963</ele>
        <time>2025-07-12T07:07:55Z</time>
      </trkpt>
      <trkpt lat="62.6105572655797" lon="12.279821159318089">
        <ele>966</ele>
        <time>2025-07-12T07:08:11Z</time>
      </trkpt>
      <trkpt lat="62.610593056306243" lon="12.279876479879022">
        <ele>967</ele>
        <time>2025-07-12T07:08:15Z</time>
      </trkpt>
      <trkpt lat="62.610847614705563" lon="12.279841192066669">
        <ele>972</ele>
        <time>2025-07-12T07:08:40Z</time>
      </trkpt>
      <trkpt lat="62.611416159197688" lon="12.279975134879351">
        <ele>983</ele>
        <time>2025-07-12T07:09:24Z</time>
      </trkpt>
      <trkpt lat="62.611466869711876" lon="12.280073538422585">
        <ele>984</ele>
        <time>2025-07-12T07:09:29Z</time>
      </trkpt>
      <trkpt lat="62.611900800839067" lon="12.280325414612889">
        <ele>991</ele>
        <time>2025-07-12T07:10:03Z</time>
      </trkpt>
      <trkpt lat="62.612596079707146" lon="12.281132843345404">
        <ele>1002</ele>
        <time>2025-07-12T07:11:27Z</time>
      </trkpt>
      <trkpt lat="62.612846363335848" lon="12.28127047419548">
        <ele>1004</ele>
        <time>2025-07-12T07:11:47Z</time>
      </trkpt>
      <trkpt lat="62.612955830991268" lon="12.281412547454238">
        <ele>1005</ele>
        <time>2025-07-12T07:11:57Z</time>
      </trkpt>
      <trkpt lat="62.613238887861371" lon="12.282057702541351">
        <ele>1007</ele>
        <time>2025-07-12T07:12:27Z</time>
      </trkpt>
      <trkpt lat="62.613255819305778" lon="12.282480150461197">
        <ele>1007</ele>
        <time>2025-07-12T07:12:42Z</time>
      </trkpt>
      <trkpt lat="62.613449608907104" lon="12.283694772049785">
        <ele>1006</ele>
        <time>2025-07-12T07:13:25Z</time>
      </trkpt>
      <trkpt lat="62.613452123478055" lon="12.284161727875471">
        <ele>1005</ele>
        <time>2025-07-12T07:13:40Z</time>
      </trkpt>
      <trkpt lat="62.613504510372877" lon="12.28428234346211">
        <ele>1005</ele>
        <time>2025-07-12T07:13:46Z</time>
      </trkpt>
      <trkpt lat="62.613453045487404" lon="12.285291440784931">
        <ele>1003</ele>
        <time>2025-07-12T07:17:22Z</time>
      </trkpt>
      <trkpt lat="62.613521022722125" lon="12.28587775491178">
        <ele>1002</ele>
        <time>2025-07-12T07:17:43Z</time>
      </trkpt>
      <trkpt lat="62.61351834051311" lon="12.286973269656301">
        <ele>995</ele>
        <time>2025-07-12T07:18:22Z</time>
      </trkpt>
      <trkpt lat="62.613550694659352" lon="12.287812130525708">
        <ele>984</ele>
        <time>2025-07-12T07:18:50Z</time>
      </trkpt>
      <trkpt lat="62.613511802628636" lon="12.288243714720011">
        <ele>977</ele>
        <time>2025-07-12T07:19:05Z</time>
      </trkpt>
      <trkpt lat="62.613526219502091" lon="12.288492908701301">
        <ele>973</ele>
        <time>2025-07-12T07:19:13Z</time>
      </trkpt>
      <trkpt lat="62.613499648869038" lon="12.288652751594782">
        <ele>971</ele>
        <time>2025-07-12T07:19:18Z</time>
      </trkpt>
      <trkpt lat="62.613504678010941" lon="12.288984339684248">
        <ele>967</ele>
        <time>2025-07-12T07:19:29Z</time>
      </trkpt>
      <trkpt lat="62.613473664969206" lon="12.289276951923966">
        <ele>963</ele>
        <time>2025-07-12T07:19:39Z</time>
      </trkpt>
      <trkpt lat="62.613565614446998" lon="12.289616754278541">
        <ele>961</ele>
        <time>2025-07-12T07:19:53Z</time>
      </trkpt>
      <trkpt lat="62.613650858402252" lon="12.290097707882524">
        <ele>957</ele>
        <time>2025-07-12T07:20:10Z</time>
      </trkpt>
      <trkpt lat="62.613651026040316" lon="12.29042736813426">
        <ele>956</ele>
        <time>2025-07-12T07:20:21Z</time>
      </trkpt>
      <trkpt lat="62.613584138453007" lon="12.290930869057775">
        <ele>953</ele>
        <time>2025-07-12T07:20:38Z</time>
      </trkpt>
      <trkpt lat="62.613680278882384" lon="12.291275700554252">
        <ele>953</ele>
        <time>2025-07-12T07:21:03Z</time>
      </trkpt>
      <trkpt lat="62.613699724897742" lon="12.29148231446743">
        <ele>952</ele>
        <time>2025-07-12T07:21:11Z</time>
      </trkpt>
      <trkpt lat="62.613680781796575" lon="12.291602846235037">
        <ele>952</ele>
        <time>2025-07-12T07:21:15Z</time>
      </trkpt>
      <trkpt lat="62.613785639405251" lon="12.29207064025104">
        <ele>952</ele>
        <time>2025-07-12T07:22:34Z</time>
      </trkpt>
      <trkpt lat="62.613790920004249" lon="12.292748317122459">
        <ele>951</ele>
        <time>2025-07-12T07:23:36Z</time>
      </trkpt>
      <trkpt lat="62.613744148984551" lon="12.293250812217593">
        <ele>950</ele>
        <time>2025-07-12T07:23:57Z</time>
      </trkpt>
      <trkpt lat="62.613763930276036" lon="12.293511237949133">
        <ele>950</ele>
        <time>2025-07-12T07:24:08Z</time>
      </trkpt>
      <trkpt lat="62.613748339936137" lon="12.294215150177479">
        <ele>948</ele>
        <time>2025-07-12T07:24:34Z</time>
      </trkpt>
      <trkpt lat="62.613821430131793" lon="12.294954350218177">
        <ele>947</ele>
        <time>2025-07-12T07:25:03Z</time>
      </trkpt>
      <trkpt lat="62.613811371847987" lon="12.295095166191459">
        <ele>947</ele>
        <time>2025-07-12T07:25:08Z</time>
      </trkpt>
      <trkpt lat="62.613902734592557" lon="12.295552650466561">
        <ele>946</ele>
        <time>2025-07-12T07:25:26Z</time>
      </trkpt>
      <trkpt lat="62.613997450098395" lon="12.295777201652527">
        <ele>947</ele>
        <time>2025-07-12T07:25:38Z</time>
      </trkpt>
      <trkpt lat="62.613998958840966" lon="12.295838473364711">
        <ele>947</ele>
        <time>2025-07-12T07:25:40Z</time>
      </trkpt>
      <trkpt lat="62.614068863913417" lon="12.295884490013123">
        <ele>947</ele>
        <time>2025-07-12T07:25:46Z</time>
      </trkpt>
      <trkpt lat="62.614132314920425" lon="12.296137707307935">
        <ele>947</ele>
        <time>2025-07-12T07:25:57Z</time>
      </trkpt>
      <trkpt lat="62.614135835319757" lon="12.29658312164247">
        <ele>947</ele>
        <time>2025-07-12T07:26:16Z</time>
      </trkpt>
      <trkpt lat="62.614207500591874" lon="12.297020740807056">
        <ele>948</ele>
        <time>2025-07-12T07:26:34Z</time>
      </trkpt>
      <trkpt lat="62.61421219445765" lon="12.297314610332251">
        <ele>948</ele>
        <time>2025-07-12T07:26:45Z</time>
      </trkpt>
      <trkpt lat="62.614254355430603" lon="12.297417707741261">
        <ele>949</ele>
        <time>2025-07-12T07:26:50Z</time>
      </trkpt>
      <trkpt lat="62.614266760647297" lon="12.29757159948349">
        <ele>949</ele>
        <time>2025-07-12T07:26:56Z</time>
      </trkpt>
      <trkpt lat="62.614332977682352" lon="12.297825319692492">
        <ele>951</ele>
        <time>2025-07-12T07:27:07Z</time>
      </trkpt>
      <trkpt lat="62.614327780902386" lon="12.298085493966937">
        <ele>951</ele>
        <time>2025-07-12T07:27:17Z</time>
      </trkpt>
      <trkpt lat="62.614420233294368" lon="12.298356229439378">
        <ele>953</ele>
        <time>2025-07-12T07:27:29Z</time>
      </trkpt>
      <trkpt lat="62.614598264917731" lon="12.299567330628633">
        <ele>959</ele>
        <time>2025-07-12T07:28:19Z</time>
      </trkpt>
      <trkpt lat="62.614664565771818" lon="12.299721138551831">
        <ele>960</ele>
        <time>2025-07-12T07:28:27Z</time>
      </trkpt>
      <trkpt lat="62.614736314862967" lon="12.300138641148806">
        <ele>962</ele>
        <time>2025-07-12T07:28:43Z</time>
      </trkpt>
      <trkpt lat="62.61481418274343" lon="12.300177700817585">
        <ele>963</ele>
        <time>2025-07-12T07:28:50Z</time>
      </trkpt>
      <trkpt lat="62.614801106974483" lon="12.300246516242623">
        <ele>962</ele>
        <time>2025-07-12T07:28:52Z</time>
      </trkpt>
      <trkpt lat="62.61483714915812" lon="12.300281133502722">
        <ele>963</ele>
        <time>2025-07-12T07:28:56Z</time>
      </trkpt>
      <trkpt lat="62.614816781133413" lon="12.300255903974175">
        <ele>963</ele>
        <time>2025-07-12T07:29:14Z</time>
      </trkpt>
      <trkpt lat="62.614823402836919" lon="12.30042421258986">
        <ele>963</ele>
        <time>2025-07-12T07:29:29Z</time>
      </trkpt>
      <trkpt lat="62.6149798091501" lon="12.301042126491666">
        <ele>964</ele>
        <time>2025-07-12T07:29:57Z</time>
      </trkpt>
      <trkpt lat="62.615278540179133" lon="12.301807645708323">
        <ele>965</ele>
        <time>2025-07-12T07:30:56Z</time>
      </trkpt>
      <trkpt lat="62.615292957052588" lon="12.302023898810148">
        <ele>965</ele>
        <time>2025-07-12T07:31:03Z</time>
      </trkpt>
      <trkpt lat="62.615400580689311" lon="12.302549779415131">
        <ele>966</ele>
        <time>2025-07-12T07:31:25Z</time>
      </trkpt>
      <trkpt lat="62.615421954542398" lon="12.30297046713531">
        <ele>967</ele>
        <time>2025-07-12T07:31:53Z</time>
      </trkpt>
      <trkpt lat="62.61529203504324" lon="12.303334325551987">
        <ele>965</ele>
        <time>2025-07-12T07:32:52Z</time>
      </trkpt>
      <trkpt lat="62.615503929555416" lon="12.30340632610023">
        <ele>968</ele>
        <time>2025-07-12T07:33:40Z</time>
      </trkpt>
      <trkpt lat="62.615813221782446" lon="12.303142044693232">
        <ele>971</ele>
        <time>2025-07-12T07:34:16Z</time>
      </trkpt>
      <trkpt lat="62.617288269102573" lon="12.303628027439117">
        <ele>1003</ele>
        <time>2025-07-12T07:38:03Z</time>
      </trkpt>
      <trkpt lat="62.617372507229447" lon="12.303442368283868">
        <ele>1004</ele>
        <time>2025-07-12T07:38:16Z</time>
      </trkpt>
      <trkpt lat="62.617578785866499" lon="12.303389059379697">
        <ele>1010</ele>
        <time>2025-07-12T07:39:00Z</time>
      </trkpt>
      <trkpt lat="62.617745921015739" lon="12.303179511800408">
        <ele>1016</ele>
        <time>2025-07-12T07:39:24Z</time>
      </trkpt>
      <trkpt lat="62.618044149130583" lon="12.303219912573695">
        <ele>1029</ele>
        <time>2025-07-12T07:39:58Z</time>
      </trkpt>
      <trkpt lat="62.618372049182653" lon="12.302782461047173">
        <ele>1040</ele>
        <time>2025-07-12T07:41:18Z</time>
      </trkpt>
      <trkpt lat="62.618383364751935" lon="12.302692104130983">
        <ele>1040</ele>
        <time>2025-07-12T07:41:22Z</time>
      </trkpt>
      <trkpt lat="62.618576567620039" lon="12.302494207397103">
        <ele>1048</ele>
        <time>2025-07-12T07:41:47Z</time>
      </trkpt>
      <trkpt lat="62.618673462420702" lon="12.3025859054178">
        <ele>1053</ele>
        <time>2025-07-12T07:41:59Z</time>
      </trkpt>
      <trkpt lat="62.619050648063421" lon="12.303620064631104">
        <ele>1073</ele>
        <time>2025-07-12T07:43:26Z</time>
      </trkpt>
      <trkpt lat="62.619102783501148" lon="12.30366482399404">
        <ele>1076</ele>
        <time>2025-07-12T07:43:33Z</time>
      </trkpt>
      <trkpt lat="62.61915760114789" lon="12.30394578538835">
        <ele>1079</ele>
        <time>2025-07-12T07:43:52Z</time>
      </trkpt>
      <trkpt lat="62.619246281683445" lon="12.304054582491517">
        <ele>1083</ele>
        <time>2025-07-12T07:44:04Z</time>
      </trkpt>
      <trkpt lat="62.619285341352224" lon="12.304486753419042">
        <ele>1085</ele>
        <time>2025-07-12T07:44:40Z</time>
      </trkpt>
      <trkpt lat="62.619463708251715" lon="12.304781461134553">
        <ele>1090</ele>
        <time>2025-07-12T07:45:19Z</time>
      </trkpt>
      <trkpt lat="62.619461612775922" lon="12.304967623203993">
        <ele>1090</ele>
        <time>2025-07-12T07:45:29Z</time>
      </trkpt>
      <trkpt lat="62.619906775653362" lon="12.305359141901135">
        <ele>1105</ele>
        <time>2025-07-12T07:47:03Z</time>
      </trkpt>
      <trkpt lat="62.620023032650352" lon="12.30567061342299">
        <ele>1111</ele>
        <time>2025-07-12T07:47:23Z</time>
      </trkpt>
      <trkpt lat="62.620015405118465" lon="12.305738842114806">
        <ele>1112</ele>
        <time>2025-07-12T07:47:42Z</time>
      </trkpt>
      <trkpt lat="62.620308604091406" lon="12.305998597294092">
        <ele>1119</ele>
        <time>2025-07-12T07:48:39Z</time>
      </trkpt>
      <trkpt lat="62.620488060638309" lon="12.305978229269385">
        <ele>1124</ele>
        <time>2025-07-12T07:48:59Z</time>
      </trkpt>
      <trkpt lat="62.620586715638638" lon="12.30621007271111">
        <ele>1124</ele>
        <time>2025-07-12T07:49:22Z</time>
      </trkpt>
      <trkpt lat="62.620864575728774" lon="12.306255754083395">
        <ele>1131</ele>
        <time>2025-07-12T07:50:19Z</time>
      </trkpt>
      <trkpt lat="62.620948227122426" lon="12.306418027728796">
        <ele>1130</ele>
        <time>2025-07-12T07:50:33Z</time>
      </trkpt>
      <trkpt lat="62.621174538508058" lon="12.306399838998914">
        <ele>1133</ele>
        <time>2025-07-12T07:50:56Z</time>
      </trkpt>
      <trkpt lat="62.621371848508716" lon="12.30657460168004">
        <ele>1135</ele>
        <time>2025-07-12T07:51:20Z</time>
      </trkpt>
      <trkpt lat="62.621506042778492" lon="12.306485082954168">
        <ele>1137</ele>
        <time>2025-07-12T07:51:42Z</time>
      </trkpt>
      <trkpt lat="62.621544431895018" lon="12.306524142622948">
        <ele>1137</ele>
        <time>2025-07-12T07:51:48Z</time>
      </trkpt>
      <trkpt lat="62.621618779376149" lon="12.306471839547157">
        <ele>1139</ele>
        <time>2025-07-12T07:51:59Z</time>
      </trkpt>
      <trkpt lat="62.621696898713708" lon="12.306583905592561">
        <ele>1139</ele>
        <time>2025-07-12T07:52:16Z</time>
      </trkpt>
      <trkpt lat="62.621757667511702" lon="12.306596729904413">
        <ele>1139</ele>
        <time>2025-07-12T07:52:23Z</time>
      </trkpt>
      <trkpt lat="62.621985403820872" lon="12.306419452652335">
        <ele>1141</ele>
        <time>2025-07-12T07:52:51Z</time>
      </trkpt>
      <trkpt lat="62.622191682457924" lon="12.306159613654017">
        <ele>1144</ele>
        <time>2025-07-12T07:53:17Z</time>
      </trkpt>
      <trkpt lat="62.622321350499988" lon="12.305857697501779">
        <ele>1147</ele>
        <time>2025-07-12T07:53:43Z</time>
      </trkpt>
      <trkpt lat="62.622452527284622" lon="12.305665081366897">
        <ele>1149</ele>
        <time>2025-07-12T07:53:59Z</time>
      </trkpt>
      <trkpt lat="62.622572723776102" lon="12.305285213515162">
        <ele>1151</ele>
        <time>2025-07-12T07:54:18Z</time>
      </trkpt>
      <trkpt lat="62.622640449553728" lon="12.30494842864573">
        <ele>1152</ele>
        <time>2025-07-12T07:54:34Z</time>
      </trkpt>
      <trkpt lat="62.622740110382438" lon="12.304713735356927">
        <ele>1153</ele>
        <time>2025-07-12T07:54:51Z</time>
      </trkpt>
      <trkpt lat="62.622728124260902" lon="12.304720273241401">
        <ele>1153</ele>
        <time>2025-07-12T07:55:12Z</time>
      </trkpt>
      <trkpt lat="62.622740780934691" lon="12.304727230221033">
        <ele>1153</ele>
        <time>2025-07-12T07:55:13Z</time>
      </trkpt>
      <trkpt lat="62.622729130089283" lon="12.304683560505509">
        <ele>1153</ele>
        <time>2025-07-12T07:55:15Z</time>
      </trkpt>
      <trkpt lat="62.622906742617488" lon="12.304333699867129">
        <ele>1153</ele>
        <time>2025-07-12T07:55:37Z</time>
      </trkpt>
      <trkpt lat="62.622944880276918" lon="12.304114094004035">
        <ele>1154</ele>
        <time>2025-07-12T07:55:46Z</time>
      </trkpt>
      <trkpt lat="62.623215112835169" lon="12.303415210917592">
        <ele>1156</ele>
        <time>2025-07-12T07:56:21Z</time>
      </trkpt>
      <trkpt lat="62.623221063986421" lon="12.303240951150656">
        <ele>1158</ele>
        <time>2025-07-12T07:56:42Z</time>
      </trkpt>
      <trkpt lat="62.623300943523645" lon="12.302880445495248">
        <ele>1160</ele>
        <time>2025-07-12T07:56:58Z</time>
      </trkpt>
      <trkpt lat="62.623682571575046" lon="12.301789959892631">
        <ele>1160</ele>
        <time>2025-07-12T07:58:02Z</time>
      </trkpt>
      <trkpt lat="62.623830176889896" lon="12.300947578623891">
        <ele>1162</ele>
        <time>2025-07-12T07:58:38Z</time>
      </trkpt>
      <trkpt lat="62.623848281800747" lon="12.300618169829249">
        <ele>1161</ele>
        <time>2025-07-12T07:58:51Z</time>
      </trkpt>
      <trkpt lat="62.623838307335973" lon="12.300337376073003">
        <ele>1161</ele>
        <time>2025-07-12T07:59:06Z</time>
      </trkpt>
      <trkpt lat="62.623880971223116" lon="12.299925070255995">
        <ele>1160</ele>
        <time>2025-07-12T07:59:22Z</time>
      </trkpt>
      <trkpt lat="62.623852891847491" lon="12.299412516877055">
        <ele>1159</ele>
        <time>2025-07-12T07:59:42Z</time>
      </trkpt>
      <trkpt lat="62.623877953737974" lon="12.298502493649721">
        <ele>1152</ele>
        <time>2025-07-12T08:00:21Z</time>
      </trkpt>
      <trkpt lat="62.623773012310266" lon="12.296953853219748">
        <ele>1148</ele>
        <time>2025-07-12T08:01:25Z</time>
      </trkpt>
      <trkpt lat="62.623771168291569" lon="12.296298472210765">
        <ele>1149</ele>
        <time>2025-07-12T08:01:59Z</time>
      </trkpt>
      <trkpt lat="62.623747866600752" lon="12.29631339199841">
        <ele>1150</ele>
        <time>2025-07-12T08:02:06Z</time>
      </trkpt>
      <trkpt lat="62.623796314001083" lon="12.295765466988087">
        <ele>1150</ele>
        <time>2025-07-12T08:02:33Z</time>
      </trkpt>
      <trkpt lat="62.623780053108931" lon="12.295299014076591">
        <ele>1151</ele>
        <time>2025-07-12T08:02:42Z</time>
      </trkpt>
      <trkpt lat="62.623804109171033" lon="12.295164484530687">
        <ele>1151</ele>
        <time>2025-07-12T08:02:50Z</time>
      </trkpt>
      <trkpt lat="62.623828249052167" lon="12.293553650379181">
        <ele>1152</ele>
        <time>2025-07-12T08:04:02Z</time>
      </trkpt>
      <trkpt lat="62.623804612085223" lon="12.292842110618949">
        <ele>1152</ele>
        <time>2025-07-12T08:04:48Z</time>
      </trkpt>
      <trkpt lat="62.623528344556689" lon="12.290469696745276">
        <ele>1158</ele>
        <time>2025-07-12T08:06:48Z</time>
      </trkpt>
      <trkpt lat="62.623480316251516" lon="12.289581885561347">
        <ele>1160</ele>
        <time>2025-07-12T08:07:22Z</time>
      </trkpt>
      <trkpt lat="62.623493894934654" lon="12.289599571377039">
        <ele>1159</ele>
        <time>2025-07-12T08:31:48Z</time>
      </trkpt>
      <trkpt lat="62.62370964512229" lon="12.288648309186101">
        <ele>1153</ele>
        <time>2025-07-12T08:32:35Z</time>
      </trkpt>
      <trkpt lat="62.623753314837813" lon="12.288144892081618">
        <ele>1154</ele>
        <time>2025-07-12T08:32:53Z</time>
      </trkpt>
      <trkpt lat="62.623968478292227" lon="12.286721644923091">
        <ele>1162</ele>
        <time>2025-07-12T08:33:47Z</time>
      </trkpt>
      <trkpt lat="62.624000832438469" lon="12.28627203963697">
        <ele>1165</ele>
        <time>2025-07-12T08:34:04Z</time>
      </trkpt>
      <trkpt lat="62.624064786359668" lon="12.286042794585228">
        <ele>1166</ele>
        <time>2025-07-12T08:34:14Z</time>
      </trkpt>
      <trkpt lat="62.624295707792044" lon="12.284592976793647">
        <ele>1171</ele>
        <time>2025-07-12T08:35:09Z</time>
      </trkpt>
      <trkpt lat="62.624455885961652" lon="12.283961651846766">
        <ele>1168</ele>
        <time>2025-07-12T08:35:55Z</time>
      </trkpt>
      <trkpt lat="62.624833742156625" lon="12.282859934493899">
        <ele>1163</ele>
        <time>2025-07-12T08:36:43Z</time>
      </trkpt>
      <trkpt lat="62.624936420470476" lon="12.282485514879227">
        <ele>1164</ele>
        <time>2025-07-12T08:36:59Z</time>
      </trkpt>
      <trkpt lat="62.625177567824721" lon="12.281925184652209">
        <ele>1157</ele>
        <time>2025-07-12T08:37:26Z</time>
      </trkpt>
      <trkpt lat="62.626028247177601" lon="12.278910549357533">
        <ele>1147</ele>
        <time>2025-07-12T08:39:37Z</time>
      </trkpt>
      <trkpt lat="62.626064540818334" lon="12.278695804998279">
        <ele>1147</ele>
        <time>2025-07-12T08:39:46Z</time>
      </trkpt>
      <trkpt lat="62.626289930194616" lon="12.278084931895137">
        <ele>1146</ele>
        <time>2025-07-12T08:40:15Z</time>
      </trkpt>
      <trkpt lat="62.626482211053371" lon="12.277312790974975">
        <ele>1145</ele>
        <time>2025-07-12T08:41:03Z</time>
      </trkpt>
      <trkpt lat="62.626475086435676" lon="12.277369620278478">
        <ele>1145</ele>
        <time>2025-07-12T08:41:15Z</time>
      </trkpt>
      <trkpt lat="62.626522276550531" lon="12.277008444070816">
        <ele>1145</ele>
        <time>2025-07-12T08:42:36Z</time>
      </trkpt>
      <trkpt lat="62.626104271039367" lon="12.275523841381073">
        <ele>1138</ele>
        <time>2025-07-12T08:43:49Z</time>
      </trkpt>
      <trkpt lat="62.626097314059734" lon="12.27523148059845">
        <ele>1137</ele>
        <time>2025-07-12T08:44:42Z</time>
      </trkpt>
      <trkpt lat="62.626066049560905" lon="12.275132071226835">
        <ele>1136</ele>
        <time>2025-07-12T08:44:50Z</time>
      </trkpt>
      <trkpt lat="62.626084489747882" lon="12.274882709607482">
        <ele>1135</ele>
        <time>2025-07-12T08:45:05Z</time>
      </trkpt>
      <trkpt lat="62.625915091484785" lon="12.274638880044222">
        <ele>1130</ele>
        <time>2025-07-12T08:45:30Z</time>
      </trkpt>
      <trkpt lat="62.625392144545913" lon="12.274406366050243">
        <ele>1118</ele>
        <time>2025-07-12T08:46:20Z</time>
      </trkpt>
      <trkpt lat="62.625152254477143" lon="12.273774705827236">
        <ele>1106</ele>
        <time>2025-07-12T08:47:23Z</time>
      </trkpt>
      <trkpt lat="62.624997608363628" lon="12.273014215752482">
        <ele>1095</ele>
        <time>2025-07-12T08:47:59Z</time>
      </trkpt>
      <trkpt lat="62.624987969174981" lon="12.272839704528451">
        <ele>1093</ele>
        <time>2025-07-12T08:48:06Z</time>
      </trkpt>
      <trkpt lat="62.624832987785339" lon="12.272533429786563">
        <ele>1087</ele>
        <time>2025-07-12T08:48:28Z</time>
      </trkpt>
      <trkpt lat="62.624815385788679" lon="12.272249199450016">
        <ele>1084</ele>
        <time>2025-07-12T08:48:47Z</time>
      </trkpt>
      <trkpt lat="62.624708097428083" lon="12.272075358778238">
        <ele>1081</ele>
        <time>2025-07-12T08:49:16Z</time>
      </trkpt>
      <trkpt lat="62.624680688604712" lon="12.271970584988594">
        <ele>1080</ele>
        <time>2025-07-12T08:49:27Z</time>
      </trkpt>
      <trkpt lat="62.624516990035772" lon="12.271936386823654">
        <ele>1078</ele>
        <time>2025-07-12T08:49:45Z</time>
      </trkpt>
      <trkpt lat="62.624395787715912" lon="12.271705130115151">
        <ele>1075</ele>
        <time>2025-07-12T08:49:59Z</time>
      </trkpt>
      <trkpt lat="62.624055901542306" lon="12.271286118775606">
        <ele>1068</ele>
        <time>2025-07-12T08:50:36Z</time>
      </trkpt>
      <trkpt lat="62.623628592118621" lon="12.270890073850751">
        <ele>1061</ele>
        <time>2025-07-12T08:51:16Z</time>
      </trkpt>
      <trkpt lat="62.623022580519319" lon="12.270197728648782">
        <ele>1050</ele>
        <time>2025-07-12T08:52:08Z</time>
      </trkpt>
      <trkpt lat="62.622840274125338" lon="12.27009161375463">
        <ele>1047</ele>
        <time>2025-07-12T08:52:23Z</time>
      </trkpt>
      <trkpt lat="62.622225629165769" lon="12.269337913021445">
        <ele>1037</ele>
        <time>2025-07-12T08:53:25Z</time>
      </trkpt>
      <trkpt lat="62.622019937261939" lon="12.269177148118615">
        <ele>1035</ele>
        <time>2025-07-12T08:53:44Z</time>
      </trkpt>
      <trkpt lat="62.621841402724385" lon="12.269247304648161">
        <ele>1034</ele>
        <time>2025-07-12T08:53:59Z</time>
      </trkpt>
      <trkpt lat="62.621737383306026" lon="12.269162479788065">
        <ele>1033</ele>
        <time>2025-07-12T08:54:08Z</time>
      </trkpt>
      <trkpt lat="62.621269254013896" lon="12.269196258857846">
        <ele>1031</ele>
        <time>2025-07-12T08:54:45Z</time>
      </trkpt>
      <trkpt lat="62.621162217110395" lon="12.2693782299757">
        <ele>1031</ele>
        <time>2025-07-12T08:54:56Z</time>
      </trkpt>
      <trkpt lat="62.620857618749142" lon="12.269154768437147">
        <ele>1029</ele>
        <time>2025-07-12T08:55:23Z</time>
      </trkpt>
      <trkpt lat="62.620367361232638" lon="12.269094251096249">
        <ele>1028</ele>
        <time>2025-07-12T08:56:03Z</time>
      </trkpt>
      <trkpt lat="62.61970141902566" lon="12.267855824902654">
        <ele>1024</ele>
        <time>2025-07-12T08:57:48Z</time>
      </trkpt>
      <trkpt lat="62.619665628299117" lon="12.267889603972435">
        <ele>1024</ele>
        <time>2025-07-12T08:57:57Z</time>
      </trkpt>
      <trkpt lat="62.619497403502464" lon="12.267558183521032">
        <ele>1023</ele>
        <time>2025-07-12T08:58:18Z</time>
      </trkpt>
      <trkpt lat="62.619107393547893" lon="12.267069183290005">
        <ele>1023</ele>
        <time>2025-07-12T08:58:52Z</time>
      </trkpt>
      <trkpt lat="62.618766753003001" lon="12.267346708104014">
        <ele>1022</ele>
        <time>2025-07-12T08:59:21Z</time>
      </trkpt>
      <trkpt lat="62.618675054982305" lon="12.267159707844257">
        <ele>1021</ele>
        <time>2025-07-12T08:59:31Z</time>
      </trkpt>
      <trkpt lat="62.618582183495164" lon="12.267114948481321">
        <ele>1021</ele>
        <time>2025-07-12T08:59:39Z</time>
      </trkpt>
      <trkpt lat="62.618409600108862" lon="12.266835076734424">
        <ele>1021</ele>
        <time>2025-07-12T08:59:56Z</time>
      </trkpt>
      <trkpt lat="62.618373893201351" lon="12.266650255769491">
        <ele>1020</ele>
        <time>2025-07-12T09:00:04Z</time>
      </trkpt>
      <trkpt lat="62.61783585883677" lon="12.266578255221248">
        <ele>1018</ele>
        <time>2025-07-12T09:00:44Z</time>
      </trkpt>
      <trkpt lat="62.617137897759676" lon="12.266649501398206">
        <ele>1015</ele>
        <time>2025-07-12T09:01:41Z</time>
      </trkpt>
      <trkpt lat="62.616892727091908" lon="12.26672887802124">
        <ele>1013</ele>
        <time>2025-07-12T09:01:59Z</time>
      </trkpt>
      <trkpt lat="62.616432728245854" lon="12.26709583774209">
        <ele>1011</ele>
        <time>2025-07-12T09:02:38Z</time>
      </trkpt>
      <trkpt lat="62.616295181214809" lon="12.267307648435235">
        <ele>1011</ele>
        <time>2025-07-12T09:02:52Z</time>
      </trkpt>
      <trkpt lat="62.616103990003467" lon="12.267473023384809">
        <ele>1010</ele>
        <time>2025-07-12T09:03:09Z</time>
      </trkpt>
      <trkpt lat="62.615813305601478" lon="12.267444021999836">
        <ele>1007</ele>
        <time>2025-07-12T09:03:32Z</time>
      </trkpt>
      <trkpt lat="62.615769635885954" lon="12.267497917637229">
        <ele>1007</ele>
        <time>2025-07-12T09:03:36Z</time>
      </trkpt>
      <trkpt lat="62.615534439682961" lon="12.267327094450593">
        <ele>1005</ele>
        <time>2025-07-12T09:03:56Z</time>
      </trkpt>
      <trkpt lat="62.61527300812304" lon="12.267213771119714">
        <ele>1002</ele>
        <time>2025-07-12T09:04:17Z</time>
      </trkpt>
      <trkpt lat="62.615130767226219" lon="12.266880422830582">
        <ele>1000</ele>
        <time>2025-07-12T09:04:40Z</time>
      </trkpt>
      <trkpt lat="62.615026077255607" lon="12.266874555498362">
        <ele>999</ele>
        <time>2025-07-12T09:04:48Z</time>
      </trkpt>
      <trkpt lat="62.614838490262628" lon="12.266606586053967">
        <ele>996</ele>
        <time>2025-07-12T09:05:16Z</time>
      </trkpt>
      <trkpt lat="62.614670936018229" lon="12.266734577715397">
        <ele>995</ele>
        <time>2025-07-12T09:05:29Z</time>
      </trkpt>
      <trkpt lat="62.614608323201537" lon="12.26663013920188">
        <ele>994</ele>
        <time>2025-07-12T09:05:35Z</time>
      </trkpt>
      <trkpt lat="62.614528611302376" lon="12.266707504168153">
        <ele>994</ele>
        <time>2025-07-12T09:05:41Z</time>
      </trkpt>
      <trkpt lat="62.61424295604229" lon="12.266365606337786">
        <ele>990</ele>
        <time>2025-07-12T09:06:05Z</time>
      </trkpt>
      <trkpt lat="62.614082777872682" lon="12.266431991010904">
        <ele>988</ele>
        <time>2025-07-12T09:06:18Z</time>
      </trkpt>
      <trkpt lat="62.613918744027615" lon="12.266187993809581">
        <ele>986</ele>
        <time>2025-07-12T09:06:35Z</time>
      </trkpt>
      <trkpt lat="62.613933747634292" lon="12.266101660206914">
        <ele>986</ele>
        <time>2025-07-12T09:06:43Z</time>
      </trkpt>
      <trkpt lat="62.613954953849316" lon="12.266114400699735">
        <ele>986</ele>
        <time>2025-07-12T09:06:47Z</time>
      </trkpt>
      <trkpt lat="62.613934418186545" lon="12.266108198091388">
        <ele>986</ele>
        <time>2025-07-12T09:06:48Z</time>
      </trkpt>
      <trkpt lat="62.613937268033624" lon="12.265994371846318">
        <ele>986</ele>
        <time>2025-07-12T09:06:51Z</time>
      </trkpt>
      <trkpt lat="62.613903908059001" lon="12.265841234475374">
        <ele>985</ele>
        <time>2025-07-12T09:06:57Z</time>
      </trkpt>
      <trkpt lat="62.613843474537134" lon="12.265808125957847">
        <ele>984</ele>
        <time>2025-07-12T09:07:02Z</time>
      </trkpt>
      <trkpt lat="62.613837774842978" lon="12.265730006620288">
        <ele>984</ele>
        <time>2025-07-12T09:07:07Z</time>
      </trkpt>
      <trkpt lat="62.613936513662338" lon="12.265446111559868">
        <ele>985</ele>
        <time>2025-07-12T09:07:20Z</time>
      </trkpt>
      <trkpt lat="62.613927964121103" lon="12.265327926725149">
        <ele>984</ele>
        <time>2025-07-12T09:07:24Z</time>
      </trkpt>
      <trkpt lat="62.61386476457119" lon="12.265204461291432">
        <ele>984</ele>
        <time>2025-07-12T09:07:30Z</time>
      </trkpt>
      <trkpt lat="62.613842133432627" lon="12.264909418299794">
        <ele>983</ele>
        <time>2025-07-12T09:07:41Z</time>
      </trkpt>
      <trkpt lat="62.614112282171845" lon="12.26470104418695">
        <ele>986</ele>
        <time>2025-07-12T09:08:02Z</time>
      </trkpt>
      <trkpt lat="62.614222755655646" lon="12.2643668577075">
        <ele>987</ele>
        <time>2025-07-12T09:08:17Z</time>
      </trkpt>
      <trkpt lat="62.61424345895648" lon="12.2641044203192">
        <ele>987</ele>
        <time>2025-07-12T09:08:27Z</time>
      </trkpt>
      <trkpt lat="62.614301545545459" lon="12.264071563258767">
        <ele>987</ele>
        <time>2025-07-12T09:08:31Z</time>
      </trkpt>
      <trkpt lat="62.61436901986599" lon="12.263929406180978">
        <ele>988</ele>
        <time>2025-07-12T09:08:38Z</time>
      </trkpt>
      <trkpt lat="62.614484773948789" lon="12.263414086773992">
        <ele>988</ele>
        <time>2025-07-12T09:08:57Z</time>
      </trkpt>
      <trkpt lat="62.614617459475994" lon="12.263337476179004">
        <ele>989</ele>
        <time>2025-07-12T09:09:09Z</time>
      </trkpt>
      <trkpt lat="62.614731956273317" lon="12.263103704899549">
        <ele>989</ele>
        <time>2025-07-12T09:09:24Z</time>
      </trkpt>
      <trkpt lat="62.614721562713385" lon="12.262936066836119">
        <ele>989</ele>
        <time>2025-07-12T09:09:32Z</time>
      </trkpt>
      <trkpt lat="62.614639839157462" lon="12.262637335807085">
        <ele>987</ele>
        <time>2025-07-12T09:09:45Z</time>
      </trkpt>
      <trkpt lat="62.614673282951117" lon="12.26232192479074">
        <ele>986</ele>
        <time>2025-07-12T09:09:59Z</time>
      </trkpt>
      <trkpt lat="62.614633133634925" lon="12.262223269790411">
        <ele>986</ele>
        <time>2025-07-12T09:10:04Z</time>
      </trkpt>
      <trkpt lat="62.614623242989182" lon="12.261976087465882">
        <ele>985</ele>
        <time>2025-07-12T09:10:13Z</time>
      </trkpt>
      <trkpt lat="62.61451662518084" lon="12.261943817138672">
        <ele>984</ele>
        <time>2025-07-12T09:10:22Z</time>
      </trkpt>
      <trkpt lat="62.614424005150795" lon="12.261798977851868">
        <ele>983</ele>
        <time>2025-07-12T09:10:35Z</time>
      </trkpt>
      <trkpt lat="62.61432166211307" lon="12.260724836960435">
        <ele>981</ele>
        <time>2025-07-12T09:12:10Z</time>
      </trkpt>
      <trkpt lat="62.614268688485026" lon="12.260653339326382">
        <ele>980</ele>
        <time>2025-07-12T09:12:15Z</time>
      </trkpt>
      <trkpt lat="62.614143462851644" lon="12.2606454603374">
        <ele>979</ele>
        <time>2025-07-12T09:12:24Z</time>
      </trkpt>
      <trkpt lat="62.613983284682035" lon="12.260405486449599">
        <ele>977</ele>
        <time>2025-07-12T09:12:38Z</time>
      </trkpt>
      <trkpt lat="62.613956043496728" lon="12.260230137035251">
        <ele>977</ele>
        <time>2025-07-12T09:12:45Z</time>
      </trkpt>
      <trkpt lat="62.613859819248319" lon="12.260079933330417">
        <ele>976</ele>
        <time>2025-07-12T09:12:54Z</time>
      </trkpt>
      <trkpt lat="62.613803325220942" lon="12.26012796163559">
        <ele>976</ele>
        <time>2025-07-12T09:12:58Z</time>
      </trkpt>
      <trkpt lat="62.613725960254669" lon="12.260299036279321">
        <ele>976</ele>
        <time>2025-07-12T09:13:06Z</time>
      </trkpt>
      <trkpt lat="62.613630741834641" lon="12.260358044877648">
        <ele>975</ele>
        <time>2025-07-12T09:13:15Z</time>
      </trkpt>
      <trkpt lat="62.613602494820952" lon="12.260273387655616">
        <ele>975</ele>
        <time>2025-07-12T09:13:18Z</time>
      </trkpt>
      <trkpt lat="62.613506941124797" lon="12.260311273857951">
        <ele>974</ele>
        <time>2025-07-12T09:13:25Z</time>
      </trkpt>
      <trkpt lat="62.613452961668372" lon="12.260226616635919">
        <ele>974</ele>
        <time>2025-07-12T09:13:29Z</time>
      </trkpt>
      <trkpt lat="62.613387666642666" lon="12.260299623012543">
        <ele>973</ele>
        <time>2025-07-12T09:13:34Z</time>
      </trkpt>
      <trkpt lat="62.613233271986246" lon="12.260173223912716">
        <ele>972</ele>
        <time>2025-07-12T09:13:47Z</time>
      </trkpt>
      <trkpt lat="62.613182896748185" lon="12.259946912527084">
        <ele>971</ele>
        <time>2025-07-12T09:13:56Z</time>
      </trkpt>
      <trkpt lat="62.613191027194262" lon="12.259864937514067">
        <ele>971</ele>
        <time>2025-07-12T09:13:59Z</time>
      </trkpt>
      <trkpt lat="62.613098574802279" lon="12.259697131812572">
        <ele>970</ele>
        <time>2025-07-12T09:14:09Z</time>
      </trkpt>
      <trkpt lat="62.61305071413517" lon="12.259520692750812">
        <ele>969</ele>
        <time>2025-07-12T09:14:17Z</time>
      </trkpt>
      <trkpt lat="62.612735722213984" lon="12.258987184613943">
        <ele>965</ele>
        <time>2025-07-12T09:14:48Z</time>
      </trkpt>
      <trkpt lat="62.612719126045704" lon="12.25888199172914">
        <ele>964</ele>
        <time>2025-07-12T09:14:52Z</time>
      </trkpt>
      <trkpt lat="62.612481163814664" lon="12.258451832458377">
        <ele>961</ele>
        <time>2025-07-12T09:15:18Z</time>
      </trkpt>
      <trkpt lat="62.612390471622348" lon="12.258416628465056">
        <ele>960</ele>
        <time>2025-07-12T09:15:25Z</time>
      </trkpt>
      <trkpt lat="62.612258456647396" lon="12.258146060630679">
        <ele>958</ele>
        <time>2025-07-12T09:15:42Z</time>
      </trkpt>
      <trkpt lat="62.612223085016012" lon="12.257782202214003">
        <ele>956</ele>
        <time>2025-07-12T09:15:57Z</time>
      </trkpt>
      <trkpt lat="62.612247476354241" lon="12.257613558322191">
        <ele>956</ele>
        <time>2025-07-12T09:16:04Z</time>
      </trkpt>
      <trkpt lat="62.612220905721188" lon="12.257331591099501">
        <ele>955</ele>
        <time>2025-07-12T09:16:15Z</time>
      </trkpt>
      <trkpt lat="62.612090315669775" lon="12.256972175091505">
        <ele>953</ele>
        <time>2025-07-12T09:16:31Z</time>
      </trkpt>
      <trkpt lat="62.612018147483468" lon="12.256573615595698">
        <ele>951</ele>
        <time>2025-07-12T09:16:46Z</time>
      </trkpt>
      <trkpt lat="62.611939441412687" lon="12.256485354155302">
        <ele>950</ele>
        <time>2025-07-12T09:16:54Z</time>
      </trkpt>
      <trkpt lat="62.611847994849086" lon="12.256281254813075">
        <ele>949</ele>
        <time>2025-07-12T09:17:17Z</time>
      </trkpt>
      <trkpt lat="62.611814048141241" lon="12.255963915959001">
        <ele>948</ele>
        <time>2025-07-12T09:17:29Z</time>
      </trkpt>
      <trkpt lat="62.611654540523887" lon="12.255747998133302">
        <ele>946</ele>
        <time>2025-07-12T09:17:44Z</time>
      </trkpt>
      <trkpt lat="62.611598549410701" lon="12.255455302074552">
        <ele>945</ele>
        <time>2025-07-12T09:17:56Z</time>
      </trkpt>
      <trkpt lat="62.611506097018719" lon="12.2552749235183">
        <ele>943</ele>
        <time>2025-07-12T09:18:06Z</time>
      </trkpt>
      <trkpt lat="62.61145144701004" lon="12.254952723160386">
        <ele>942</ele>
        <time>2025-07-12T09:18:18Z</time>
      </trkpt>
      <trkpt lat="62.611471060663462" lon="12.254844596609473">
        <ele>942</ele>
        <time>2025-07-12T09:18:22Z</time>
      </trkpt>
      <trkpt lat="62.611454213038087" lon="12.254649549722672">
        <ele>941</ele>
        <time>2025-07-12T09:18:29Z</time>
      </trkpt>
      <trkpt lat="62.611332088708878" lon="12.254629600793123">
        <ele>940</ele>
        <time>2025-07-12T09:18:41Z</time>
      </trkpt>
      <trkpt lat="62.611119775101542" lon="12.254290217533708">
        <ele>938</ele>
        <time>2025-07-12T09:19:03Z</time>
      </trkpt>
      <trkpt lat="62.611043248325586" lon="12.253824518993497">
        <ele>936</ele>
        <time>2025-07-12T09:19:20Z</time>
      </trkpt>
      <trkpt lat="62.611044337972999" lon="12.253533415496349">
        <ele>936</ele>
        <time>2025-07-12T09:19:30Z</time>
      </trkpt>
      <trkpt lat="62.611078284680843" lon="12.253482285887003">
        <ele>936</ele>
        <time>2025-07-12T09:19:33Z</time>
      </trkpt>
      <trkpt lat="62.611083146184683" lon="12.253218339756131">
        <ele>935</ele>
        <time>2025-07-12T09:19:43Z</time>
      </trkpt>
      <trkpt lat="62.610824899747968" lon="12.252552816644311">
        <ele>932</ele>
        <time>2025-07-12T09:20:19Z</time>
      </trkpt>
      <trkpt lat="62.610626667737961" lon="12.252245200797915">
        <ele>930</ele>
        <time>2025-07-12T09:20:39Z</time>
      </trkpt>
      <trkpt lat="62.610449222847819" lon="12.251654025167227">
        <ele>928</ele>
        <time>2025-07-12T09:21:03Z</time>
      </trkpt>
      <trkpt lat="62.610290134325624" lon="12.251450177282095">
        <ele>927</ele>
        <time>2025-07-12T09:21:16Z</time>
      </trkpt>
      <trkpt lat="62.610194329172373" lon="12.251226464286447">
        <ele>926</ele>
        <time>2025-07-12T09:21:27Z</time>
      </trkpt>
      <trkpt lat="62.609830386936665" lon="12.250963859260082">
        <ele>923</ele>
        <time>2025-07-12T09:22:04Z</time>
      </trkpt>
      <trkpt lat="62.609838601201773" lon="12.250866293907166">
        <ele>923</ele>
        <time>2025-07-12T09:22:08Z</time>
      </trkpt>
      <trkpt lat="62.609790740534663" lon="12.250592205673456">
        <ele>923</ele>
        <time>2025-07-12T09:22:19Z</time>
      </trkpt>
      <trkpt lat="62.609816556796432" lon="12.250280566513538">
        <ele>923</ele>
        <time>2025-07-12T09:22:30Z</time>
      </trkpt>
      <trkpt lat="62.609798535704613" lon="12.250116029754281">
        <ele>922</ele>
        <time>2025-07-12T09:22:36Z</time>
      </trkpt>
      <trkpt lat="62.609751848503947" lon="12.250065486878157">
        <ele>922</ele>
        <time>2025-07-12T09:22:40Z</time>
      </trkpt>
      <trkpt lat="62.609751932322979" lon="12.249656282365322">
        <ele>922</ele>
        <time>2025-07-12T09:22:55Z</time>
      </trkpt>
      <trkpt lat="62.609668700024486" lon="12.249432653188705">
        <ele>921</ele>
        <time>2025-07-12T09:23:06Z</time>
      </trkpt>
      <trkpt lat="62.609618240967393" lon="12.249422930181026">
        <ele>921</ele>
        <time>2025-07-12T09:23:10Z</time>
      </trkpt>
      <trkpt lat="62.609553448855877" lon="12.249248083680868">
        <ele>921</ele>
        <time>2025-07-12T09:23:20Z</time>
      </trkpt>
      <trkpt lat="62.609570296481252" lon="12.249268954619765">
        <ele>921</ele>
        <time>2025-07-12T09:23:22Z</time>
      </trkpt>
      <trkpt lat="62.609589071944356" lon="12.249187231063843">
        <ele>921</ele>
        <time>2025-07-12T09:23:37Z</time>
      </trkpt>
      <trkpt lat="62.609421098604798" lon="12.248826641589403">
        <ele>920</ele>
        <time>2025-07-12T09:25:31Z</time>
      </trkpt>
      <trkpt lat="62.609254634007812" lon="12.248740140348673">
        <ele>920</ele>
        <time>2025-07-12T09:25:43Z</time>
      </trkpt>
      <trkpt lat="62.608891278505325" lon="12.248770566657186">
        <ele>919</ele>
        <time>2025-07-12T09:26:10Z</time>
      </trkpt>
      <trkpt lat="62.608850374817848" lon="12.248704433441162">
        <ele>919</ele>
        <time>2025-07-12T09:26:15Z</time>
      </trkpt>
      <trkpt lat="62.608770160004497" lon="12.248184336349368">
        <ele>919</ele>
        <time>2025-07-12T09:26:37Z</time>
      </trkpt>
      <trkpt lat="62.608681814745069" lon="12.247951989993453">
        <ele>919</ele>
        <time>2025-07-12T09:26:46Z</time>
      </trkpt>
      <trkpt lat="62.608681060373783" lon="12.247709752991796">
        <ele>919</ele>
        <time>2025-07-12T09:26:55Z</time>
      </trkpt>
      <trkpt lat="62.608503364026546" lon="12.24704347550869">
        <ele>919</ele>
        <time>2025-07-12T09:27:23Z</time>
      </trkpt>
      <trkpt lat="62.608201028779149" lon="12.246699398383498">
        <ele>919</ele>
        <time>2025-07-12T09:27:55Z</time>
      </trkpt>
      <trkpt lat="62.608011178672314" lon="12.246588841080666">
        <ele>919</ele>
        <time>2025-07-12T09:28:10Z</time>
      </trkpt>
      <trkpt lat="62.607946386560798" lon="12.24639555439353">
        <ele>919</ele>
        <time>2025-07-12T09:28:19Z</time>
      </trkpt>
      <trkpt lat="62.60772904381156" lon="12.246066564694047">
        <ele>919</ele>
        <time>2025-07-12T09:28:40Z</time>
      </trkpt>
      <trkpt lat="62.60765578597784" lon="12.246061367914081">
        <ele>920</ele>
        <time>2025-07-12T09:28:47Z</time>
      </trkpt>
      <trkpt lat="62.607629550620914" lon="12.246064217761159">
        <ele>920</ele>
        <time>2025-07-12T09:30:40Z</time>
      </trkpt>
      <trkpt lat="62.607642123475671" lon="12.246180223301053">
        <ele>920</ele>
        <time>2025-07-12T09:30:41Z</time>
      </trkpt>
      <trkpt lat="62.607669532299042" lon="12.246105456724763">
        <ele>920</ele>
        <time>2025-07-12T09:30:43Z</time>
      </trkpt>
      <trkpt lat="62.607627874240279" lon="12.246053069829941">
        <ele>920</ele>
        <time>2025-07-12T09:30:52Z</time>
      </trkpt>
      <trkpt lat="62.607530057430267" lon="12.246095314621925">
        <ele>920</ele>
        <time>2025-07-12T09:31:00Z</time>
      </trkpt>
      <trkpt lat="62.607395192608237" lon="12.24602859467268">
        <ele>920</ele>
        <time>2025-07-12T09:31:12Z</time>
      </trkpt>
      <trkpt lat="62.607213975861669" lon="12.246077880263329">
        <ele>920</ele>
        <time>2025-07-12T09:31:26Z</time>
      </trkpt>
      <trkpt lat="62.60706402361393" lon="12.246026583015919">
        <ele>920</ele>
        <time>2025-07-12T09:31:38Z</time>
      </trkpt>
      <trkpt lat="62.60689303278923" lon="12.245792057365179">
        <ele>920</ele>
        <time>2025-07-12T09:31:56Z</time>
      </trkpt>
      <trkpt lat="62.606839472427964" lon="12.245459966361523">
        <ele>920</ele>
        <time>2025-07-12T09:32:11Z</time>
      </trkpt>
      <trkpt lat="62.606553565710783" lon="12.244938528165221">
        <ele>920</ele>
        <time>2025-07-12T09:32:43Z</time>
      </trkpt>
      <trkpt lat="62.606504783034325" lon="12.244795868173242">
        <ele>920</ele>
        <time>2025-07-12T09:32:51Z</time>
      </trkpt>
      <trkpt lat="62.606495814397931" lon="12.244841465726495">
        <ele>920</ele>
        <time>2025-07-12T09:32:55Z</time>
      </trkpt>
      <trkpt lat="62.606093483045697" lon="12.244130680337548">
        <ele>921</ele>
        <time>2025-07-12T09:33:54Z</time>
      </trkpt>
      <trkpt lat="62.606052160263062" lon="12.243841588497162">
        <ele>921</ele>
        <time>2025-07-12T09:34:05Z</time>
      </trkpt>
      <trkpt lat="62.606074959039688" lon="12.243736982345581">
        <ele>921</ele>
        <time>2025-07-12T09:34:09Z</time>
      </trkpt>
      <trkpt lat="62.606057692319155" lon="12.243575043976307">
        <ele>921</ele>
        <time>2025-07-12T09:34:14Z</time>
      </trkpt>
      <trkpt lat="62.605916038155556" lon="12.243069782853127">
        <ele>920</ele>
        <time>2025-07-12T09:34:34Z</time>
      </trkpt>
      <trkpt lat="62.605917127802968" lon="12.242972468957305">
        <ele>920</ele>
        <time>2025-07-12T09:34:38Z</time>
      </trkpt>
      <trkpt lat="62.605886366218328" lon="12.242920082062483">
        <ele>920</ele>
        <time>2025-07-12T09:34:41Z</time>
      </trkpt>
      <trkpt lat="62.605937663465738" lon="12.242843052372336">
        <ele>920</ele>
        <time>2025-07-12T09:34:45Z</time>
      </trkpt>
      <trkpt lat="62.605937160551548" lon="12.242679689079523">
        <ele>919</ele>
        <time>2025-07-12T09:34:51Z</time>
      </trkpt>
      <trkpt lat="62.605971610173583" lon="12.242542980238795">
        <ele>919</ele>
        <time>2025-07-12T09:34:58Z</time>
      </trkpt>
      <trkpt lat="62.60596364736557" lon="12.242367966100574">
        <ele>919</ele>
        <time>2025-07-12T09:35:04Z</time>
      </trkpt>
      <trkpt lat="62.606003796681762" lon="12.242256822064519">
        <ele>919</ele>
        <time>2025-07-12T09:35:09Z</time>
      </trkpt>
      <trkpt lat="62.605996336787939" lon="12.242132099345326">
        <ele>919</ele>
        <time>2025-07-12T09:35:14Z</time>
      </trkpt>
      <trkpt lat="62.606014609336853" lon="12.242065379396081">
        <ele>919</ele>
        <time>2025-07-12T09:35:17Z</time>
      </trkpt>
      <trkpt lat="62.605985105037689" lon="12.241894891485572">
        <ele>918</ele>
        <time>2025-07-12T09:35:24Z</time>
      </trkpt>
      <trkpt lat="62.606092477217317" lon="12.241141609847546">
        <ele>918</ele>
        <time>2025-07-12T09:35:53Z</time>
      </trkpt>
      <trkpt lat="62.606076467782259" lon="12.241050414741039">
        <ele>918</ele>
        <time>2025-07-12T09:35:56Z</time>
      </trkpt>
      <trkpt lat="62.606112929061055" lon="12.24072502925992">
        <ele>918</ele>
        <time>2025-07-12T09:36:07Z</time>
      </trkpt>
      <trkpt lat="62.60607554577291" lon="12.240350358188152">
        <ele>918</ele>
        <time>2025-07-12T09:36:20Z</time>
      </trkpt>
      <trkpt lat="62.605947135016322" lon="12.23983864299953">
        <ele>918</ele>
        <time>2025-07-12T09:36:40Z</time>
      </trkpt>
      <trkpt lat="62.605913355946541" lon="12.23944628611207">
        <ele>918</ele>
        <time>2025-07-12T09:36:54Z</time>
      </trkpt>
      <trkpt lat="62.605871027335525" lon="12.239232212305069">
        <ele>918</ele>
        <time>2025-07-12T09:37:03Z</time>
      </trkpt>
      <trkpt lat="62.605876475572586" lon="12.238851338624954">
        <ele>918</ele>
        <time>2025-07-12T09:37:16Z</time>
      </trkpt>
      <trkpt lat="62.605907237157226" lon="12.23875243216753">
        <ele>918</ele>
        <time>2025-07-12T09:37:20Z</time>
      </trkpt>
      <trkpt lat="62.605926683172584" lon="12.2384690400213">
        <ele>917</ele>
        <time>2025-07-12T09:37:30Z</time>
      </trkpt>
      <trkpt lat="62.605876978486776" lon="12.238291930407286">
        <ele>917</ele>
        <time>2025-07-12T09:37:37Z</time>
      </trkpt>
      <trkpt lat="62.605879828333855" lon="12.23816997371614">
        <ele>917</ele>
        <time>2025-07-12T09:37:41Z</time>
      </trkpt>
      <trkpt lat="62.605828447267413" lon="12.238062517717481">
        <ele>916</ele>
        <time>2025-07-12T09:37:46Z</time>
      </trkpt>
      <trkpt lat="62.605763236060739" lon="12.237383499741554">
        <ele>915</ele>
        <time>2025-07-12T09:38:10Z</time>
      </trkpt>
      <trkpt lat="62.605700623244047" lon="12.23730412311852">
        <ele>914</ele>
        <time>2025-07-12T09:38:15Z</time>
      </trkpt>
      <trkpt lat="62.605636585503817" lon="12.237345110625029">
        <ele>914</ele>
        <time>2025-07-12T09:38:19Z</time>
      </trkpt>
      <trkpt lat="62.605178095400333" lon="12.236993908882141">
        <ele>912</ele>
        <time>2025-07-12T09:38:58Z</time>
      </trkpt>
      <trkpt lat="62.605116404592991" lon="12.236823253333569">
        <ele>912</ele>
        <time>2025-07-12T09:39:06Z</time>
      </trkpt>
      <trkpt lat="62.604954047128558" lon="12.236575065180659">
        <ele>911</ele>
        <time>2025-07-12T09:39:22Z</time>
      </trkpt>
      <trkpt lat="62.60494926944375" lon="12.236428465694189">
        <ele>911</ele>
        <time>2025-07-12T09:39:27Z</time>
      </trkpt>
      <trkpt lat="62.604858241975307" lon="12.236255714669824">
        <ele>911</ele>
        <time>2025-07-12T09:39:36Z</time>
      </trkpt>
      <trkpt lat="62.604792108759284" lon="12.235832596197724">
        <ele>911</ele>
        <time>2025-07-12T09:39:52Z</time>
      </trkpt>
      <trkpt lat="62.604693537577987" lon="12.235453566536307">
        <ele>911</ele>
        <time>2025-07-12T09:40:07Z</time>
      </trkpt>
      <trkpt lat="62.604698231443763" lon="12.23523966036737">
        <ele>911</ele>
        <time>2025-07-12T09:40:14Z</time>
      </trkpt>
      <trkpt lat="62.604600749909878" lon="12.234890051186085">
        <ele>910</ele>
        <time>2025-07-12T09:40:29Z</time>
      </trkpt>
      <trkpt lat="62.604567473754287" lon="12.234381185844541">
        <ele>909</ele>
        <time>2025-07-12T09:40:49Z</time>
      </trkpt>
      <trkpt lat="62.60439807549119" lon="12.233157511800528">
        <ele>906</ele>
        <time>2025-07-12T09:41:36Z</time>
      </trkpt>
      <trkpt lat="62.604423724114895" lon="12.233014684170485">
        <ele>906</ele>
        <time>2025-07-12T09:41:45Z</time>
      </trkpt>
      <trkpt lat="62.604383574798703" lon="12.23305206745863">
        <ele>906</ele>
        <time>2025-07-12T09:46:17Z</time>
      </trkpt>
      <trkpt lat="62.604425484314561" lon="12.233049720525742">
        <ele>906</ele>
        <time>2025-07-12T09:46:18Z</time>
      </trkpt>
      <trkpt lat="62.604485079646111" lon="12.23253314383328">
        <ele>906</ele>
        <time>2025-07-12T09:46:49Z</time>
      </trkpt>
      <trkpt lat="62.604459598660469" lon="12.232320411130786">
        <ele>905</ele>
        <time>2025-07-12T09:47:02Z</time>
      </trkpt>
      <trkpt lat="62.604481391608715" lon="12.232245141640306">
        <ele>905</ele>
        <time>2025-07-12T09:47:05Z</time>
      </trkpt>
      <trkpt lat="62.60443277657032" lon="12.231896538287401">
        <ele>904</ele>
        <time>2025-07-12T09:47:18Z</time>
      </trkpt>
      <trkpt lat="62.604472422972322" lon="12.231525639072061">
        <ele>904</ele>
        <time>2025-07-12T09:47:32Z</time>
      </trkpt>
      <trkpt lat="62.604431016370654" lon="12.230069199576974">
        <ele>902</ele>
        <time>2025-07-12T09:48:24Z</time>
      </trkpt>
      <trkpt lat="62.60446747764945" lon="12.229917654767632">
        <ele>903</ele>
        <time>2025-07-12T09:48:31Z</time>
      </trkpt>
      <trkpt lat="62.604461442679167" lon="12.22970056347549">
        <ele>903</ele>
        <time>2025-07-12T09:48:39Z</time>
      </trkpt>
      <trkpt lat="62.604633439332247" lon="12.229056414216757">
        <ele>903</ele>
        <time>2025-07-12T09:49:04Z</time>
      </trkpt>
      <trkpt lat="62.604671660810709" lon="12.22903948277235">
        <ele>904</ele>
        <time>2025-07-12T09:49:10Z</time>
      </trkpt>
      <trkpt lat="62.604686748236418" lon="12.228945018723607">
        <ele>904</ele>
        <time>2025-07-12T09:49:14Z</time>
      </trkpt>
      <trkpt lat="62.604797556996346" lon="12.228779643774033">
        <ele>904</ele>
        <time>2025-07-12T09:49:24Z</time>
      </trkpt>
      <trkpt lat="62.604841897264123" lon="12.228637989610434">
        <ele>905</ele>
        <time>2025-07-12T09:49:30Z</time>
      </trkpt>
      <trkpt lat="62.604932505637407" lon="12.228555511683226">
        <ele>905</ele>
        <time>2025-07-12T09:49:39Z</time>
      </trkpt>
      <trkpt lat="62.604945581406355" lon="12.228422239422798">
        <ele>905</ele>
        <time>2025-07-12T09:49:44Z</time>
      </trkpt>
      <trkpt lat="62.605098718777299" lon="12.228276645764709">
        <ele>906</ele>
        <time>2025-07-12T09:50:10Z</time>
      </trkpt>
      <trkpt lat="62.60517306625843" lon="12.227966599166393">
        <ele>907</ele>
        <time>2025-07-12T09:50:25Z</time>
      </trkpt>
      <trkpt lat="62.605294017121196" lon="12.227713298052549">
        <ele>908</ele>
        <time>2025-07-12T09:50:38Z</time>
      </trkpt>
      <trkpt lat="62.605317905545235" lon="12.227305099368095">
        <ele>908</ele>
        <time>2025-07-12T09:50:52Z</time>
      </trkpt>
      <trkpt lat="62.605399461463094" lon="12.227133186534047">
        <ele>909</ele>
        <time>2025-07-12T09:51:00Z</time>
      </trkpt>
      <trkpt lat="62.605398120358586" lon="12.226785253733397">
        <ele>909</ele>
        <time>2025-07-12T09:51:12Z</time>
      </trkpt>
      <trkpt lat="62.605442041531205" lon="12.22663345746696">
        <ele>909</ele>
        <time>2025-07-12T09:51:18Z</time>
      </trkpt>
      <trkpt lat="62.605443466454744" lon="12.226513344794512">
        <ele>909</ele>
        <time>2025-07-12T09:51:21Z</time>
      </trkpt>
      <trkpt lat="62.605500463396311" lon="12.226253673434258">
        <ele>909</ele>
        <time>2025-07-12T09:51:32Z</time>
      </trkpt>
      <trkpt lat="62.605510940775275" lon="12.226065499708056">
        <ele>910</ele>
        <time>2025-07-12T09:51:39Z</time>
      </trkpt>
      <trkpt lat="62.60568268597126" lon="12.225579516962171">
        <ele>910</ele>
        <time>2025-07-12T09:52:03Z</time>
      </trkpt>
      <trkpt lat="62.60562309063971" lon="12.225519251078367">
        <ele>910</ele>
        <time>2025-07-12T09:52:07Z</time>
      </trkpt>
      <trkpt lat="62.605638513341546" lon="12.22531808540225">
        <ele>910</ele>
        <time>2025-07-12T09:52:16Z</time>
      </trkpt>
      <trkpt lat="62.605592329055071" lon="12.225190093740821">
        <ele>910</ele>
        <time>2025-07-12T09:52:22Z</time>
      </trkpt>
      <trkpt lat="62.605516975745559" lon="12.224416779354215">
        <ele>910</ele>
        <time>2025-07-12T09:52:52Z</time>
      </trkpt>
      <trkpt lat="62.605421170592308" lon="12.224211506545544">
        <ele>910</ele>
        <time>2025-07-12T09:53:02Z</time>
      </trkpt>
      <trkpt lat="62.605352271348238" lon="12.223868099972606">
        <ele>910</ele>
        <time>2025-07-12T09:53:15Z</time>
      </trkpt>
      <trkpt lat="62.605283539742231" lon="12.223730301484466">
        <ele>910</ele>
        <time>2025-07-12T09:53:22Z</time>
      </trkpt>
      <trkpt lat="62.605098551139235" lon="12.223562328144908">
        <ele>910</ele>
        <time>2025-07-12T09:53:36Z</time>
      </trkpt>
      <trkpt lat="62.604983216151595" lon="12.223238619044423">
        <ele>910</ele>
        <time>2025-07-12T09:53:52Z</time>
      </trkpt>
      <trkpt lat="62.604900654405355" lon="12.22178628668189">
        <ele>911</ele>
        <time>2025-07-12T09:54:41Z</time>
      </trkpt>
      <trkpt lat="62.604864863678813" lon="12.221626779064536">
        <ele>911</ele>
        <time>2025-07-12T09:54:48Z</time>
      </trkpt>
      <trkpt lat="62.604897804558277" lon="12.221517898142338">
        <ele>912</ele>
        <time>2025-07-12T09:54:52Z</time>
      </trkpt>
      <trkpt lat="62.60491062887013" lon="12.221253784373403">
        <ele>912</ele>
        <time>2025-07-12T09:55:02Z</time>
      </trkpt>
      <trkpt lat="62.604886572808027" lon="12.221121769398451">
        <ele>913</ele>
        <time>2025-07-12T09:55:07Z</time>
      </trkpt>
      <trkpt lat="62.604883639141917" lon="12.220674343407154">
        <ele>914</ele>
        <time>2025-07-12T09:55:23Z</time>
      </trkpt>
      <trkpt lat="62.604852458462119" lon="12.220497820526361">
        <ele>914</ele>
        <time>2025-07-12T09:55:29Z</time>
      </trkpt>
      <trkpt lat="62.60483980178833" lon="12.220006221905351">
        <ele>915</ele>
        <time>2025-07-12T09:55:45Z</time>
      </trkpt>
      <trkpt lat="62.604770986363292" lon="12.219677483662963">
        <ele>916</ele>
        <time>2025-07-12T09:55:58Z</time>
      </trkpt>
      <trkpt lat="62.604789761826396" lon="12.219571871683002">
        <ele>916</ele>
        <time>2025-07-12T09:56:02Z</time>
      </trkpt>
      <trkpt lat="62.60477626696229" lon="12.219114722684026">
        <ele>917</ele>
        <time>2025-07-12T09:56:18Z</time>
      </trkpt>
      <trkpt lat="62.60481147095561" lon="12.218995029106736">
        <ele>918</ele>
        <time>2025-07-12T09:56:23Z</time>
      </trkpt>
      <trkpt lat="62.604764113202691" lon="12.218756731599569">
        <ele>918</ele>
        <time>2025-07-12T09:56:31Z</time>
      </trkpt>
      <trkpt lat="62.60475036688149" lon="12.218561433255672">
        <ele>919</ele>
        <time>2025-07-12T09:56:38Z</time>
      </trkpt>
      <trkpt lat="62.6046047732234" lon="12.218210231512785">
        <ele>919</ele>
        <time>2025-07-12T09:56:58Z</time>
      </trkpt>
      <trkpt lat="62.604497065767646" lon="12.217769762501121">
        <ele>920</ele>
        <time>2025-07-12T09:57:14Z</time>
      </trkpt>
      <trkpt lat="62.604483487084508" lon="12.217623917385936">
        <ele>921</ele>
        <time>2025-07-12T09:57:20Z</time>
      </trkpt>
      <trkpt lat="62.604505531489849" lon="12.217554934322834">
        <ele>921</ele>
        <time>2025-07-12T09:57:23Z</time>
      </trkpt>
      <trkpt lat="62.604462364688516" lon="12.21725326962769">
        <ele>921</ele>
        <time>2025-07-12T09:57:34Z</time>
      </trkpt>
      <trkpt lat="62.604495557025075" lon="12.217056127265096">
        <ele>921</ele>
        <time>2025-07-12T09:57:41Z</time>
      </trkpt>
      <trkpt lat="62.604433782398701" lon="12.216732166707516">
        <ele>921</ele>
        <time>2025-07-12T09:57:52Z</time>
      </trkpt>
      <trkpt lat="62.604431184008718" lon="12.216558074578643">
        <ele>921</ele>
        <time>2025-07-12T09:57:58Z</time>
      </trkpt>
      <trkpt lat="62.604369157925248" lon="12.216159179806709">
        <ele>921</ele>
        <time>2025-07-12T09:58:12Z</time>
      </trkpt>
      <trkpt lat="62.604309227317572" lon="12.216045605018735">
        <ele>921</ele>
        <time>2025-07-12T09:58:18Z</time>
      </trkpt>
      <trkpt lat="62.60428274050355" lon="12.215829016640782">
        <ele>921</ele>
        <time>2025-07-12T09:58:26Z</time>
      </trkpt>
      <trkpt lat="62.604235718026757" lon="12.215762296691537">
        <ele>921</ele>
        <time>2025-07-12T09:58:31Z</time>
      </trkpt>
      <trkpt lat="62.604172183200717" lon="12.215261897072196">
        <ele>920</ele>
        <time>2025-07-12T09:58:51Z</time>
      </trkpt>
      <trkpt lat="62.604369074106216" lon="12.215241109952331">
        <ele>921</ele>
        <time>2025-07-12T09:59:05Z</time>
      </trkpt>
      <trkpt lat="62.604446606710553" lon="12.215183777734637">
        <ele>921</ele>
        <time>2025-07-12T09:59:12Z</time>
      </trkpt>
      <trkpt lat="62.604500502347946" lon="12.215216299518943">
        <ele>921</ele>
        <time>2025-07-12T09:59:16Z</time>
      </trkpt>
      <trkpt lat="62.604715414345264" lon="12.215014463290572">
        <ele>921</ele>
        <time>2025-07-12T09:59:34Z</time>
      </trkpt>
      <trkpt lat="62.604776937514544" lon="12.21505737863481">
        <ele>921</ele>
        <time>2025-07-12T09:59:39Z</time>
      </trkpt>
      <trkpt lat="62.604844747111201" lon="12.214931650087237">
        <ele>921</ele>
        <time>2025-07-12T09:59:46Z</time>
      </trkpt>
      <trkpt lat="62.60488816536963" lon="12.214941289275885">
        <ele>921</ele>
        <time>2025-07-12T09:59:49Z</time>
      </trkpt>
      <trkpt lat="62.604915825650096" lon="12.214875072240829">
        <ele>921</ele>
        <time>2025-07-12T09:59:51Z</time>
      </trkpt>
      <trkpt lat="62.605065274983644" lon="12.214960316196084">
        <ele>922</ele>
        <time>2025-07-12T10:00:03Z</time>
      </trkpt>
      <trkpt lat="62.605085475370288" lon="12.215110100805759">
        <ele>922</ele>
        <time>2025-07-12T10:00:08Z</time>
      </trkpt>
      <trkpt lat="62.605174239724874" lon="12.215208923444152">
        <ele>922</ele>
        <time>2025-07-12T10:00:15Z</time>
      </trkpt>
      <trkpt lat="62.605353863909841" lon="12.215294167399406">
        <ele>923</ele>
        <time>2025-07-12T10:00:31Z</time>
      </trkpt>
      <trkpt lat="62.605394767597318" lon="12.215442610904574">
        <ele>923</ele>
        <time>2025-07-12T10:00:37Z</time>
      </trkpt>
      <trkpt lat="62.605518819764256" lon="12.215318558737636">
        <ele>923</ele>
        <time>2025-07-12T10:00:48Z</time>
      </trkpt>
      <trkpt lat="62.60567924939096" lon="12.215397516265512">
        <ele>923</ele>
        <time>2025-07-12T10:01:00Z</time>
      </trkpt>
      <trkpt lat="62.605821490287781" lon="12.21535200253129">
        <ele>924</ele>
        <time>2025-07-12T10:01:12Z</time>
      </trkpt>
      <trkpt lat="62.605963060632348" lon="12.215413693338633">
        <ele>924</ele>
        <time>2025-07-12T10:01:24Z</time>
      </trkpt>
      <trkpt lat="62.6060726121068" lon="12.215365245938301">
        <ele>925</ele>
        <time>2025-07-12T10:01:33Z</time>
      </trkpt>
      <trkpt lat="62.606366900727153" lon="12.215569093823433">
        <ele>925</ele>
        <time>2025-07-12T10:01:58Z</time>
      </trkpt>
      <trkpt lat="62.60645960457623" lon="12.215562555938959">
        <ele>925</ele>
        <time>2025-07-12T10:02:04Z</time>
      </trkpt>
      <trkpt lat="62.606913736090064" lon="12.216291027143598">
        <ele>924</ele>
        <time>2025-07-12T10:02:49Z</time>
      </trkpt>
      <trkpt lat="62.607102077454329" lon="12.216927381232381">
        <ele>922</ele>
        <time>2025-07-12T10:03:19Z</time>
      </trkpt>
      <trkpt lat="62.607098137959838" lon="12.217014720663428">
        <ele>922</ele>
        <time>2025-07-12T10:03:22Z</time>
      </trkpt>
      <trkpt lat="62.607369627803564" lon="12.21774335950613">
        <ele>920</ele>
        <time>2025-07-12T10:03:52Z</time>
      </trkpt>
      <trkpt lat="62.607446322217584" lon="12.217832375317812">
        <ele>920</ele>
        <time>2025-07-12T10:03:59Z</time>
      </trkpt>
      <trkpt lat="62.607480017468333" lon="12.218152228742838">
        <ele>919</ele>
        <time>2025-07-12T10:04:09Z</time>
      </trkpt>
      <trkpt lat="62.607521843165159" lon="12.218299498781562">
        <ele>918</ele>
        <time>2025-07-12T10:04:15Z</time>
      </trkpt>
      <trkpt lat="62.607711609452963" lon="12.21863167360425">
        <ele>919</ele>
        <time>2025-07-12T10:04:33Z</time>
      </trkpt>
      <trkpt lat="62.607705574482679" lon="12.218873240053654">
        <ele>919</ele>
        <time>2025-07-12T10:04:41Z</time>
      </trkpt>
      <trkpt lat="62.607794757932425" lon="12.219077590852976">
        <ele>919</ele>
        <time>2025-07-12T10:04:51Z</time>
      </trkpt>
      <trkpt lat="62.60783507488668" lon="12.219336088746786">
        <ele>919</ele>
        <time>2025-07-12T10:05:02Z</time>
      </trkpt>
      <trkpt lat="62.607891317456961" lon="12.219334496185184">
        <ele>920</ele>
        <time>2025-07-12T10:05:06Z</time>
      </trkpt>
      <trkpt lat="62.607987374067307" lon="12.219473551958799">
        <ele>920</ele>
        <time>2025-07-12T10:05:16Z</time>
      </trkpt>
      <trkpt lat="62.608040431514382" lon="12.219474641606212">
        <ele>921</ele>
        <time>2025-07-12T10:05:20Z</time>
      </trkpt>
      <trkpt lat="62.608155682682991" lon="12.219711430370808">
        <ele>922</ele>
        <time>2025-07-12T10:05:33Z</time>
      </trkpt>
      <trkpt lat="62.608263725414872" lon="12.219826010987163">
        <ele>923</ele>
        <time>2025-07-12T10:05:43Z</time>
      </trkpt>
      <trkpt lat="62.60828023776412" lon="12.219904968515038">
        <ele>923</ele>
        <time>2025-07-12T10:05:46Z</time>
      </trkpt>
      <trkpt lat="62.608360117301345" lon="12.219957271590829">
        <ele>924</ele>
        <time>2025-07-12T10:05:52Z</time>
      </trkpt>
      <trkpt lat="62.60842340067029" lon="12.220131196081638">
        <ele>925</ele>
        <time>2025-07-12T10:06:01Z</time>
      </trkpt>
      <trkpt lat="62.608460700139403" lon="12.220335714519024">
        <ele>926</ele>
        <time>2025-07-12T10:06:08Z</time>
      </trkpt>
      <trkpt lat="62.608614843338728" lon="12.220660597085953">
        <ele>928</ele>
        <time>2025-07-12T10:06:23Z</time>
      </trkpt>
      <trkpt lat="62.608747780323029" lon="12.220815913751721">
        <ele>929</ele>
        <time>2025-07-12T10:06:35Z</time>
      </trkpt>
      <trkpt lat="62.608905024826527" lon="12.221157560124993">
        <ele>931</ele>
        <time>2025-07-12T10:06:52Z</time>
      </trkpt>
      <trkpt lat="62.608945928514004" lon="12.221183963119984">
        <ele>932</ele>
        <time>2025-07-12T10:06:55Z</time>
      </trkpt>
      <trkpt lat="62.609099904075265" lon="12.221569027751684">
        <ele>934</ele>
        <time>2025-07-12T10:07:12Z</time>
      </trkpt>
      <trkpt lat="62.609144076704979" lon="12.221760218963027">
        <ele>934</ele>
        <time>2025-07-12T10:07:19Z</time>
      </trkpt>
      <trkpt lat="62.609204258769751" lon="12.221837919205427">
        <ele>935</ele>
        <time>2025-07-12T10:07:25Z</time>
      </trkpt>
      <trkpt lat="62.609304590150714" lon="12.22232230938971">
        <ele>936</ele>
        <time>2025-07-12T10:07:46Z</time>
      </trkpt>
      <trkpt lat="62.609635340049863" lon="12.222480224445462">
        <ele>937</ele>
        <time>2025-07-12T10:08:11Z</time>
      </trkpt>
      <trkpt lat="62.60985067114234" lon="12.222754145041108">
        <ele>937</ele>
        <time>2025-07-12T10:08:33Z</time>
      </trkpt>
      <trkpt lat="62.609958043321967" lon="12.222978780046105">
        <ele>937</ele>
        <time>2025-07-12T10:08:44Z</time>
      </trkpt>
      <trkpt lat="62.610125094652176" lon="12.222771244123578">
        <ele>937</ele>
        <time>2025-07-12T10:08:58Z</time>
      </trkpt>
      <trkpt lat="62.610253170132637" lon="12.22248843871057">
        <ele>938</ele>
        <time>2025-07-12T10:09:12Z</time>
      </trkpt>
      <trkpt lat="62.610293235629797" lon="12.222488019615412">
        <ele>938</ele>
        <time>2025-07-12T10:09:15Z</time>
      </trkpt>
      <trkpt lat="62.610366158187389" lon="12.222604025155306">
        <ele>938</ele>
        <time>2025-07-12T10:09:22Z</time>
      </trkpt>
      <trkpt lat="62.610398512333632" lon="12.222901415079832">
        <ele>937</ele>
        <time>2025-07-12T10:09:34Z</time>
      </trkpt>
      <trkpt lat="62.610690537840128" lon="12.22318765707314">
        <ele>935</ele>
        <time>2025-07-12T10:09:58Z</time>
      </trkpt>
      <trkpt lat="62.610862534493208" lon="12.223049020394683">
        <ele>935</ele>
        <time>2025-07-12T10:10:11Z</time>
      </trkpt>
      <trkpt lat="62.611036878079176" lon="12.223141472786665">
        <ele>934</ele>
        <time>2025-07-12T10:10:24Z</time>
      </trkpt>
      <trkpt lat="62.611272744834423" lon="12.222907030954957">
        <ele>933</ele>
        <time>2025-07-12T10:10:43Z</time>
      </trkpt>
      <trkpt lat="62.611327059566975" lon="12.222935780882835">
        <ele>933</ele>
        <time>2025-07-12T10:10:47Z</time>
      </trkpt>
      <trkpt lat="62.61137718334794" lon="12.222847603261471">
        <ele>933</ele>
        <time>2025-07-12T10:10:52Z</time>
      </trkpt>
      <trkpt lat="62.611447088420391" lon="12.222856655716896">
        <ele>932</ele>
        <time>2025-07-12T10:10:57Z</time>
      </trkpt>
      <trkpt lat="62.611649008467793" lon="12.222486762329936">
        <ele>932</ele>
        <time>2025-07-12T10:11:18Z</time>
      </trkpt>
      <trkpt lat="62.611866435036063" lon="12.222494641318917">
        <ele>931</ele>
        <time>2025-07-12T10:11:38Z</time>
      </trkpt>
      <trkpt lat="62.611972130835056" lon="12.222701255232096">
        <ele>930</ele>
        <time>2025-07-12T10:11:52Z</time>
      </trkpt>
      <trkpt lat="62.612195340916514" lon="12.222842993214726">
        <ele>929</ele>
        <time>2025-07-12T10:12:10Z</time>
      </trkpt>
      <trkpt lat="62.612347891554236" lon="12.222741404548287">
        <ele>928</ele>
        <time>2025-07-12T10:12:37Z</time>
      </trkpt>
      <trkpt lat="62.612437326461077" lon="12.222779374569654">
        <ele>928</ele>
        <time>2025-07-12T10:12:44Z</time>
      </trkpt>
      <trkpt lat="62.612526258453727" lon="12.222922621294856">
        <ele>927</ele>
        <time>2025-07-12T10:12:53Z</time>
      </trkpt>
      <trkpt lat="62.612571436911821" lon="12.223320007324219">
        <ele>926</ele>
        <time>2025-07-12T10:13:08Z</time>
      </trkpt>
      <trkpt lat="62.612703535705805" lon="12.223554281517863">
        <ele>924</ele>
        <time>2025-07-12T10:13:21Z</time>
      </trkpt>
      <trkpt lat="62.612728932872415" lon="12.223718231543899">
        <ele>924</ele>
        <time>2025-07-12T10:13:28Z</time>
      </trkpt>
      <trkpt lat="62.612861450761557" lon="12.223898777738214">
        <ele>923</ele>
        <time>2025-07-12T10:13:42Z</time>
      </trkpt>
      <trkpt lat="62.613365286961198" lon="12.223629299551249">
        <ele>923</ele>
        <time>2025-07-12T10:14:36Z</time>
      </trkpt>
      <trkpt lat="62.613427564501762" lon="12.22322721965611">
        <ele>924</ele>
        <time>2025-07-12T10:14:57Z</time>
      </trkpt>
      <trkpt lat="62.613579444587231" lon="12.222916083410382">
        <ele>925</ele>
        <time>2025-07-12T10:15:11Z</time>
      </trkpt>
      <trkpt lat="62.613631496205926" lon="12.222370924428105">
        <ele>927</ele>
        <time>2025-07-12T10:15:29Z</time>
      </trkpt>
      <trkpt lat="62.613763092085719" lon="12.222203454002738">
        <ele>928</ele>
        <time>2025-07-12T10:15:40Z</time>
      </trkpt>
      <trkpt lat="62.613836769014597" lon="12.22173985093832">
        <ele>930</ele>
        <time>2025-07-12T10:15:57Z</time>
      </trkpt>
      <trkpt lat="62.613891502842307" lon="12.221660809591413">
        <ele>931</ele>
        <time>2025-07-12T10:16:02Z</time>
      </trkpt>
      <trkpt lat="62.614083532243967" lon="12.221632394939661">
        <ele>931</ele>
        <time>2025-07-12T10:16:16Z</time>
      </trkpt>
      <trkpt lat="62.614127704873681" lon="12.221534997224808">
        <ele>932</ele>
        <time>2025-07-12T10:16:21Z</time>
      </trkpt>
      <trkpt lat="62.614172799512744" lon="12.221573805436492">
        <ele>932</ele>
        <time>2025-07-12T10:16:32Z</time>
      </trkpt>
      <trkpt lat="62.614181181415915" lon="12.221702300012112">
        <ele>931</ele>
        <time>2025-07-12T10:16:37Z</time>
      </trkpt>
      <trkpt lat="62.614260977134109" lon="12.221921151503921">
        <ele>931</ele>
        <time>2025-07-12T10:16:48Z</time>
      </trkpt>
      <trkpt lat="62.614276316016912" lon="12.222047802060843">
        <ele>930</ele>
        <time>2025-07-12T10:16:52Z</time>
      </trkpt>
      <trkpt lat="62.614229628816247" lon="12.222279561683536">
        <ele>929</ele>
        <time>2025-07-12T10:17:01Z</time>
      </trkpt>
      <trkpt lat="62.614354100078344" lon="12.222820026800036">
        <ele>927</ele>
        <time>2025-07-12T10:17:21Z</time>
      </trkpt>
      <trkpt lat="62.614542609080672" lon="12.223145244643092">
        <ele>926</ele>
        <time>2025-07-12T10:17:39Z</time>
      </trkpt>
      <trkpt lat="62.614756934344769" lon="12.223888551816344">
        <ele>924</ele>
        <time>2025-07-12T10:18:10Z</time>
      </trkpt>
      <trkpt lat="62.614756934344769" lon="12.224097345024347">
        <ele>923</ele>
        <time>2025-07-12T10:18:18Z</time>
      </trkpt>
      <trkpt lat="62.614712007343769" lon="12.224306557327509">
        <ele>922</ele>
        <time>2025-07-12T10:18:28Z</time>
      </trkpt>
      <trkpt lat="62.614708989858627" lon="12.22419667057693">
        <ele>922</ele>
        <time>2025-07-12T10:38:34Z</time>
      </trkpt>
      <trkpt lat="62.614768082275987" lon="12.223908081650734">
        <ele>924</ele>
        <time>2025-07-12T10:38:46Z</time>
      </trkpt>
      <trkpt lat="62.614708822220564" lon="12.223608680069447">
        <ele>925</ele>
        <time>2025-07-12T10:38:59Z</time>
      </trkpt>
      <trkpt lat="62.614590050652623" lon="12.223176844418049">
        <ele>926</ele>
        <time>2025-07-12T10:39:16Z</time>
      </trkpt>
      <trkpt lat="62.614373797550797" lon="12.22278306260705">
        <ele>927</ele>
        <time>2025-07-12T10:39:36Z</time>
      </trkpt>
      <trkpt lat="62.614250583574176" lon="12.222253996878862">
        <ele>929</ele>
        <time>2025-07-12T10:39:57Z</time>
      </trkpt>
      <trkpt lat="62.614290229976177" lon="12.22202324308455">
        <ele>930</ele>
        <time>2025-07-12T10:40:05Z</time>
      </trkpt>
      <trkpt lat="62.614268772304058" lon="12.221868010237813">
        <ele>931</ele>
        <time>2025-07-12T10:40:12Z</time>
      </trkpt>
      <trkpt lat="62.614178080111742" lon="12.221646727994084">
        <ele>931</ele>
        <time>2025-07-12T10:40:22Z</time>
      </trkpt>
      <trkpt lat="62.614163663238287" lon="12.221335088834167">
        <ele>933</ele>
        <time>2025-07-12T10:40:34Z</time>
      </trkpt>
      <trkpt lat="62.614190569147468" lon="12.221118081361055">
        <ele>934</ele>
        <time>2025-07-12T10:40:44Z</time>
      </trkpt>
      <trkpt lat="62.614292241632938" lon="12.220937618985772">
        <ele>936</ele>
        <time>2025-07-12T10:40:54Z</time>
      </trkpt>
      <trkpt lat="62.614326858893037" lon="12.220707116648555">
        <ele>937</ele>
        <time>2025-07-12T10:41:02Z</time>
      </trkpt>
      <trkpt lat="62.614234071224928" lon="12.220525229349732">
        <ele>937</ele>
        <time>2025-07-12T10:41:10Z</time>
      </trkpt>
      <trkpt lat="62.614188389852643" lon="12.220294810831547">
        <ele>938</ele>
        <time>2025-07-12T10:41:18Z</time>
      </trkpt>
      <trkpt lat="62.614245805889368" lon="12.219961797818542">
        <ele>939</ele>
        <time>2025-07-12T10:41:30Z</time>
      </trkpt>
      <trkpt lat="62.61417455971241" lon="12.2194545250386">
        <ele>938</ele>
        <time>2025-07-12T10:41:47Z</time>
      </trkpt>
      <trkpt lat="62.614155951887369" lon="12.218987233936787">
        <ele>938</ele>
        <time>2025-07-12T10:42:03Z</time>
      </trkpt>
      <trkpt lat="62.614094512537122" lon="12.21854860894382">
        <ele>938</ele>
        <time>2025-07-12T10:42:18Z</time>
      </trkpt>
      <trkpt lat="62.614111276343465" lon="12.218443248420954">
        <ele>938</ele>
        <time>2025-07-12T10:42:21Z</time>
      </trkpt>
      <trkpt lat="62.614084789529443" lon="12.218362027779222">
        <ele>938</ele>
        <time>2025-07-12T10:42:24Z</time>
      </trkpt>
      <trkpt lat="62.614088477566838" lon="12.218133369460702">
        <ele>938</ele>
        <time>2025-07-12T10:42:33Z</time>
      </trkpt>
      <trkpt lat="62.614003568887711" lon="12.217812091112137">
        <ele>938</ele>
        <time>2025-07-12T10:42:46Z</time>
      </trkpt>
      <trkpt lat="62.613980853930116" lon="12.217599609866738">
        <ele>938</ele>
        <time>2025-07-12T10:42:53Z</time>
      </trkpt>
      <trkpt lat="62.613814305514097" lon="12.217139527201653">
        <ele>939</ele>
        <time>2025-07-12T10:43:15Z</time>
      </trkpt>
      <trkpt lat="62.613655971363187" lon="12.217084290459752">
        <ele>939</ele>
        <time>2025-07-12T10:43:28Z</time>
      </trkpt>
      <trkpt lat="62.613493446260691" lon="12.217106837779284">
        <ele>939</ele>
        <time>2025-07-12T10:43:39Z</time>
      </trkpt>
      <trkpt lat="62.613353887572885" lon="12.216705763712525">
        <ele>939</ele>
        <time>2025-07-12T10:43:57Z</time>
      </trkpt>
      <trkpt lat="62.612933367490768" lon="12.215887606143951">
        <ele>942</ele>
        <time>2025-07-12T10:44:40Z</time>
      </trkpt>
      <trkpt lat="62.6128557510674" lon="12.215869082137942">
        <ele>942</ele>
        <time>2025-07-12T10:45:03Z</time>
      </trkpt>
      <trkpt lat="62.612611334770918" lon="12.21541453152895">
        <ele>944</ele>
        <time>2025-07-12T10:45:25Z</time>
      </trkpt>
      <trkpt lat="62.612558025866747" lon="12.215155530720949">
        <ele>945</ele>
        <time>2025-07-12T10:45:35Z</time>
      </trkpt>
      <trkpt lat="62.612544531002641" lon="12.21462051384151">
        <ele>947</ele>
        <time>2025-07-12T10:45:51Z</time>
      </trkpt>
      <trkpt lat="62.612413018941879" lon="12.213943088427186">
        <ele>949</ele>
        <time>2025-07-12T10:46:14Z</time>
      </trkpt>
      <trkpt lat="62.612313693389297" lon="12.213614182546735">
        <ele>950</ele>
        <time>2025-07-12T10:46:26Z</time>
      </trkpt>
      <trkpt lat="62.612215206027031" lon="12.213464984670281">
        <ele>949</ele>
        <time>2025-07-12T10:46:34Z</time>
      </trkpt>
      <trkpt lat="62.611997276544571" lon="12.213317295536399">
        <ele>948</ele>
        <time>2025-07-12T10:46:49Z</time>
      </trkpt>
      <trkpt lat="62.611934160813689" lon="12.213210174813867">
        <ele>947</ele>
        <time>2025-07-12T10:46:56Z</time>
      </trkpt>
      <trkpt lat="62.611758224666119" lon="12.212565690279007">
        <ele>947</ele>
        <time>2025-07-12T10:47:21Z</time>
      </trkpt>
      <trkpt lat="62.61154918000102" lon="12.212446751073003">
        <ele>945</ele>
        <time>2025-07-12T10:47:36Z</time>
      </trkpt>
      <trkpt lat="62.611407106742263" lon="12.212477177381516">
        <ele>944</ele>
        <time>2025-07-12T10:47:46Z</time>
      </trkpt>
      <trkpt lat="62.611243659630418" lon="12.21239528618753">
        <ele>943</ele>
        <time>2025-07-12T10:47:58Z</time>
      </trkpt>
      <trkpt lat="62.611154392361641" lon="12.212510202080011">
        <ele>942</ele>
        <time>2025-07-12T10:48:06Z</time>
      </trkpt>
      <trkpt lat="62.611080715432763" lon="12.212533922865987">
        <ele>942</ele>
        <time>2025-07-12T10:48:12Z</time>
      </trkpt>
      <trkpt lat="62.610932188108563" lon="12.212846903130412">
        <ele>941</ele>
        <time>2025-07-12T10:48:27Z</time>
      </trkpt>
      <trkpt lat="62.610868820920587" lon="12.213111268356442">
        <ele>940</ele>
        <time>2025-07-12T10:48:37Z</time>
      </trkpt>
      <trkpt lat="62.610743260011077" lon="12.213458698242903">
        <ele>940</ele>
        <time>2025-07-12T10:48:51Z</time>
      </trkpt>
      <trkpt lat="62.610604120418429" lon="12.213726751506329">
        <ele>939</ele>
        <time>2025-07-12T10:49:05Z</time>
      </trkpt>
      <trkpt lat="62.6105244923383" lon="12.21372390165925">
        <ele>939</ele>
        <time>2025-07-12T10:49:11Z</time>
      </trkpt>
      <trkpt lat="62.610361380502582" lon="12.213420309126377">
        <ele>939</ele>
        <time>2025-07-12T10:49:25Z</time>
      </trkpt>
      <trkpt lat="62.610175469890237" lon="12.212771382182837">
        <ele>939</ele>
        <time>2025-07-12T10:49:51Z</time>
      </trkpt>
      <trkpt lat="62.610069522634149" lon="12.21257021650672">
        <ele>939</ele>
        <time>2025-07-12T10:50:01Z</time>
      </trkpt>
      <trkpt lat="62.609827872365713" lon="12.212408613413572">
        <ele>939</ele>
        <time>2025-07-12T10:50:18Z</time>
      </trkpt>
      <trkpt lat="62.609786968678236" lon="12.212282633408904">
        <ele>939</ele>
        <time>2025-07-12T10:50:23Z</time>
      </trkpt>
      <trkpt lat="62.609682027250528" lon="12.212169477716088">
        <ele>940</ele>
        <time>2025-07-12T10:50:32Z</time>
      </trkpt>
      <trkpt lat="62.609418919309974" lon="12.211273284628987">
        <ele>941</ele>
        <time>2025-07-12T10:51:10Z</time>
      </trkpt>
      <trkpt lat="62.609264608472586" lon="12.210855698212981">
        <ele>941</ele>
        <time>2025-07-12T10:51:27Z</time>
      </trkpt>
      <trkpt lat="62.608956573531032" lon="12.21042855642736">
        <ele>941</ele>
        <time>2025-07-12T10:51:53Z</time>
      </trkpt>
      <trkpt lat="62.608744008466601" lon="12.210317747667432">
        <ele>941</ele>
        <time>2025-07-12T10:52:08Z</time>
      </trkpt>
      <trkpt lat="62.608453407883644" lon="12.210275670513511">
        <ele>941</ele>
        <time>2025-07-12T10:52:29Z</time>
      </trkpt>
      <trkpt lat="62.608250817283988" lon="12.210154552012682">
        <ele>941</ele>
        <time>2025-07-12T10:52:44Z</time>
      </trkpt>
      <trkpt lat="62.60806423611939" lon="12.210135608911514">
        <ele>940</ele>
        <time>2025-07-12T10:52:58Z</time>
      </trkpt>
      <trkpt lat="62.606525486335158" lon="12.208564002066851">
        <ele>933</ele>
        <time>2025-07-12T10:54:59Z</time>
      </trkpt>
      <trkpt lat="62.606304455548525" lon="12.207999145612121">
        <ele>932</ele>
        <time>2025-07-12T10:55:25Z</time>
      </trkpt>
      <trkpt lat="62.606237148866057" lon="12.20734728500247">
        <ele>931</ele>
        <time>2025-07-12T10:55:46Z</time>
      </trkpt>
      <trkpt lat="62.606274951249361" lon="12.206569612026215">
        <ele>932</ele>
        <time>2025-07-12T10:56:12Z</time>
      </trkpt>
      <trkpt lat="62.606179649010301" lon="12.2060177475214">
        <ele>933</ele>
        <time>2025-07-12T10:56:30Z</time>
      </trkpt>
      <trkpt lat="62.606155090034008" lon="12.205482646822929">
        <ele>933</ele>
        <time>2025-07-12T10:56:47Z</time>
      </trkpt>
      <trkpt lat="62.606081496924162" lon="12.20512792468071">
        <ele>933</ele>
        <time>2025-07-12T10:57:00Z</time>
      </trkpt>
      <trkpt lat="62.605893490836024" lon="12.204705392941833">
        <ele>933</ele>
        <time>2025-07-12T10:57:19Z</time>
      </trkpt>
      <trkpt lat="62.605894496664405" lon="12.204201053828001">
        <ele>933</ele>
        <time>2025-07-12T10:57:37Z</time>
      </trkpt>
      <trkpt lat="62.605828866362572" lon="12.204040205106139">
        <ele>932</ele>
        <time>2025-07-12T10:57:44Z</time>
      </trkpt>
      <trkpt lat="62.605623174458742" lon="12.203996703028679">
        <ele>931</ele>
        <time>2025-07-12T10:57:58Z</time>
      </trkpt>
      <trkpt lat="62.605427457019687" lon="12.204264421015978">
        <ele>931</ele>
        <time>2025-07-12T10:58:14Z</time>
      </trkpt>
      <trkpt lat="62.605129731819034" lon="12.203868543729186">
        <ele>930</ele>
        <time>2025-07-12T10:58:37Z</time>
      </trkpt>
      <trkpt lat="62.604703679680824" lon="12.203611973673105">
        <ele>928</ele>
        <time>2025-07-12T10:59:08Z</time>
      </trkpt>
      <trkpt lat="62.604395477101207" lon="12.203601580113173">
        <ele>927</ele>
        <time>2025-07-12T10:59:29Z</time>
      </trkpt>
      <trkpt lat="62.604185845702887" lon="12.203259682282805">
        <ele>926</ele>
        <time>2025-07-12T10:59:49Z</time>
      </trkpt>
      <trkpt lat="62.603887701407075" lon="12.203291030600667">
        <ele>925</ele>
        <time>2025-07-12T11:00:10Z</time>
      </trkpt>
      <trkpt lat="62.603570614010096" lon="12.202974110841751">
        <ele>923</ele>
        <time>2025-07-12T11:00:34Z</time>
      </trkpt>
      <trkpt lat="62.603412279859185" lon="12.20293739810586">
        <ele>923</ele>
        <time>2025-07-12T11:00:44Z</time>
      </trkpt>
      <trkpt lat="62.60325713083148" lon="12.202741848304868">
        <ele>922</ele>
        <time>2025-07-12T11:00:57Z</time>
      </trkpt>
      <trkpt lat="62.602814733982086" lon="12.202466921880841">
        <ele>920</ele>
        <time>2025-07-12T11:01:30Z</time>
      </trkpt>
      <trkpt lat="62.602566545829177" lon="12.20207984559238">
        <ele>919</ele>
        <time>2025-07-12T11:01:52Z</time>
      </trkpt>
      <trkpt lat="62.602464705705643" lon="12.201545415446162">
        <ele>918</ele>
        <time>2025-07-12T11:02:11Z</time>
      </trkpt>
      <trkpt lat="62.602424724027514" lon="12.201488418504596">
        <ele>918</ele>
        <time>2025-07-12T11:02:15Z</time>
      </trkpt>
      <trkpt lat="62.602207884192467" lon="12.199795609340072">
        <ele>914</ele>
        <time>2025-07-12T11:04:05Z</time>
      </trkpt>
      <trkpt lat="62.602113923057914" lon="12.199496459215879">
        <ele>913</ele>
        <time>2025-07-12T11:04:18Z</time>
      </trkpt>
      <trkpt lat="62.602125322446227" lon="12.199132097885013">
        <ele>912</ele>
        <time>2025-07-12T11:04:29Z</time>
      </trkpt>
      <trkpt lat="62.602060697972775" lon="12.198891872540116">
        <ele>911</ele>
        <time>2025-07-12T11:04:37Z</time>
      </trkpt>
      <trkpt lat="62.601481340825558" lon="12.19858274795115">
        <ele>909</ele>
        <time>2025-07-12T11:05:18Z</time>
      </trkpt>
      <trkpt lat="62.601255280897021" lon="12.1985456161201">
        <ele>908</ele>
        <time>2025-07-12T11:05:36Z</time>
      </trkpt>
      <trkpt lat="62.601274894550443" lon="12.198550729081035">
        <ele>908</ele>
        <time>2025-07-12T11:05:40Z</time>
      </trkpt>
      <trkpt lat="62.601185794919729" lon="12.198238838464022">
        <ele>907</ele>
        <time>2025-07-12T11:05:56Z</time>
      </trkpt>
      <trkpt lat="62.601150590926409" lon="12.197539703920484">
        <ele>906</ele>
        <time>2025-07-12T11:06:20Z</time>
      </trkpt>
      <trkpt lat="62.6010128762573" lon="12.196969566866755">
        <ele>904</ele>
        <time>2025-07-12T11:06:38Z</time>
      </trkpt>
      <trkpt lat="62.600921262055635" lon="12.196783488616347">
        <ele>904</ele>
        <time>2025-07-12T11:06:46Z</time>
      </trkpt>
      <trkpt lat="62.600872479379177" lon="12.196390712633729">
        <ele>902</ele>
        <time>2025-07-12T11:07:01Z</time>
      </trkpt>
      <trkpt lat="62.600555475801229" lon="12.195665175095201">
        <ele>898</ele>
        <time>2025-07-12T11:07:34Z</time>
      </trkpt>
      <trkpt lat="62.600538963451982" lon="12.195323947817087">
        <ele>897</ele>
        <time>2025-07-12T11:07:43Z</time>
      </trkpt>
      <trkpt lat="62.600739290937781" lon="12.194907367229462">
        <ele>896</ele>
        <time>2025-07-12T11:08:05Z</time>
      </trkpt>
      <trkpt lat="62.600791174918413" lon="12.19453252851963">
        <ele>893</ele>
        <time>2025-07-12T11:08:17Z</time>
      </trkpt>
      <trkpt lat="62.600750019773841" lon="12.194244274869561">
        <ele>891</ele>
        <time>2025-07-12T11:08:26Z</time>
      </trkpt>
      <trkpt lat="62.600759575143456" lon="12.193800620734692">
        <ele>889</ele>
        <time>2025-07-12T11:08:45Z</time>
      </trkpt>
      <trkpt lat="62.600716659799218" lon="12.193603059276938">
        <ele>888</ele>
        <time>2025-07-12T11:08:59Z</time>
      </trkpt>
      <trkpt lat="62.600431758910418" lon="12.193513540551066">
        <ele>886</ele>
        <time>2025-07-12T11:09:40Z</time>
      </trkpt>
      <trkpt lat="62.599924905225635" lon="12.193158231675625">
        <ele>882</ele>
        <time>2025-07-12T11:10:20Z</time>
      </trkpt>
      <trkpt lat="62.598980013281107" lon="12.193186394870281">
        <ele>875</ele>
        <time>2025-07-12T11:11:26Z</time>
      </trkpt>
      <trkpt lat="62.598451785743237" lon="12.192969974130392">
        <ele>870</ele>
        <time>2025-07-12T11:12:04Z</time>
      </trkpt>
      <trkpt lat="62.597558358684182" lon="12.19245390035212">
        <ele>862</ele>
        <time>2025-07-12T11:13:28Z</time>
      </trkpt>
      <trkpt lat="62.59735744446516" lon="12.19219883903861">
        <ele>860</ele>
        <time>2025-07-12T11:13:52Z</time>
      </trkpt>
      <trkpt lat="62.597021162509918" lon="12.192112170159817">
        <ele>857</ele>
        <time>2025-07-12T11:14:45Z</time>
      </trkpt>
      <trkpt lat="62.596554290503263" lon="12.191592575982213">
        <ele>852</ele>
        <time>2025-07-12T11:15:24Z</time>
      </trkpt>
      <trkpt lat="62.596181128174067" lon="12.191582517698407">
        <ele>850</ele>
        <time>2025-07-12T11:15:55Z</time>
      </trkpt>
      <trkpt lat="62.595803858712316" lon="12.191154956817627">
        <ele>846</ele>
        <time>2025-07-12T11:16:29Z</time>
      </trkpt>
      <trkpt lat="62.59565650485456" lon="12.190786069259048">
        <ele>843</ele>
        <time>2025-07-12T11:16:46Z</time>
      </trkpt>
      <trkpt lat="62.595563717186451" lon="12.189873866736889">
        <ele>839</ele>
        <time>2025-07-12T11:17:17Z</time>
      </trkpt>
      <trkpt lat="62.595568830147386" lon="12.189660547301173">
        <ele>838</ele>
        <time>2025-07-12T11:17:25Z</time>
      </trkpt>
      <trkpt lat="62.595688439905643" lon="12.189119579270482">
        <ele>837</ele>
        <time>2025-07-12T11:17:45Z</time>
      </trkpt>
      <trkpt lat="62.595973676070571" lon="12.188619347289205">
        <ele>837</ele>
        <time>2025-07-12T11:18:12Z</time>
      </trkpt>
      <trkpt lat="62.59616713039577" lon="12.188396556302905">
        <ele>837</ele>
        <time>2025-07-12T11:18:30Z</time>
      </trkpt>
      <trkpt lat="62.596236364915967" lon="12.18776548281312">
        <ele>836</ele>
        <time>2025-07-12T11:18:53Z</time>
      </trkpt>
      <trkpt lat="62.595957750454545" lon="12.186722019687295">
        <ele>832</ele>
        <time>2025-07-12T11:19:34Z</time>
      </trkpt>
      <trkpt lat="62.595656253397465" lon="12.186277359724045">
        <ele>827</ele>
        <time>2025-07-12T11:20:04Z</time>
      </trkpt>
      <trkpt lat="62.595362635329366" lon="12.186147272586823">
        <ele>824</ele>
        <time>2025-07-12T11:20:24Z</time>
      </trkpt>
      <trkpt lat="62.595138000324368" lon="12.185854827985168">
        <ele>821</ele>
        <time>2025-07-12T11:20:47Z</time>
      </trkpt>
      <trkpt lat="62.595076393336058" lon="12.185429446399212">
        <ele>818</ele>
        <time>2025-07-12T11:21:03Z</time>
      </trkpt>
      <trkpt lat="62.595094665884972" lon="12.185275638476014">
        <ele>817</ele>
        <time>2025-07-12T11:21:08Z</time>
      </trkpt>
      <trkpt lat="62.595344446599483" lon="12.1848049107939">
        <ele>817</ele>
        <time>2025-07-12T11:21:32Z</time>
      </trkpt>
      <trkpt lat="62.595569752156734" lon="12.183852139860392">
        <ele>813</ele>
        <time>2025-07-12T11:22:18Z</time>
      </trkpt>
    </trkseg>
  </trk>

</gpx>